GFSGBSN_850_thetae_000.txt.gz
Theta_e
307 307 308 309 311 311 312 313 313 314 314 314 314 313 313 313 312 311 310 309 309 309 310 311 313 314 314 315 316 316 318 318 317 315 314 314 319 320 316 315 315 312 313 315 316 317 315
307 307 309 310 312 312 313 313 314 314 314 313 313 313 313 312 311 310 309 309 309 309 311 313 314 315 315 318 319 317 318 318 318 319 319 319 319 319 318 316 314 315 314 314 315 317 317
307 308 309 311 312 313 313 314 314 314 313 312 312 313 313 312 310 309 309 309 310 311 313 314 315 315 315 317 318 317 317 317 317 318 319 319 319 319 319 316 316 315 312 313 314 317 317
307 309 310 312 313 313 313 314 315 314 314 313 312 312 312 311 310 309 309 310 312 313 314 315 315 315 314 318 318 317 317 317 317 319 319 318 319 319 318 317 317 315 313 313 315 316 318
308 309 311 313 314 313 314 314 315 316 316 314 312 312 312 311 310 310 311 312 313 314 315 316 315 315 315 320 317 317 316 318 318 318 317 318 319 318 318 312 312 312 313 315 317 316 316
308 310 312 313 314 313 314 315 316 316 316 315 312 311 312 310 310 311 312 313 314 316 316 315 320 318 316 318 316 316 316 318 319 319 319 319 319 314 313 312 313 314 316 314 315 316 317
309 311 313 314 313 313 314 315 316 316 316 315 313 311 311 311 312 312 313 315 317 317 317 315 317 320 319 317 317 316 315 318 320 320 318 319 316 315 317 316 316 316 316 315 316 316 316
309 312 313 314 313 313 314 315 316 317 316 315 313 312 311 312 313 313 316 322 326 324 319 317 319 319 319 318 317 317 317 319 319 318 318 315 316 317 317 319 319 318 319 318 317 317 315
310 313 314 314 313 313 314 316 316 316 317 316 313 312 312 313 313 314 318 324 323 319 320 318 318 318 319 319 318 318 320 320 319 318 317 316 318 318 319 318 319 319 318 319 319 318 313
311 313 314 314 313 313 314 315 316 316 318 318 313 312 313 313 314 315 317 325 321 321 312 315 317 317 319 319 318 319 318 319 319 317 317 318 319 320 319 319 319 322 320 319 319 317 314
312 313 314 313 313 313 314 315 315 316 318 319 315 314 314 316 325 324 325 324 317 322 313 315 318 318 319 319 319 318 318 322 320 317 318 319 319 319 319 319 319 321 320 320 320 318 318
312 313 313 313 313 313 314 315 315 316 317 318 318 316 316 318 326 323 322 316 317 318 317 318 318 318 317 319 319 319 319 321 321 318 317 318 319 319 319 319 319 319 321 319 319 318 319
312 312 312 313 313 313 313 314 315 315 315 317 317 318 322 322 326 321 317 316 318 316 320 317 318 319 319 319 320 320 318 317 318 319 319 319 319 318 319 320 318 317 320 323 321 318 319
311 311 311 313 313 313 313 314 315 315 315 317 316 318 324 321 324 320 316 318 323 321 319 317 318 319 320 320 319 320 319 317 316 320 319 320 320 318 317 318 319 319 318 318 323 318 321
309 310 311 312 313 313 313 313 314 315 315 315 316 317 318 317 317 317 321 318 322 321 318 319 319 320 320 321 320 318 317 317 317 317 320 320 320 318 317 317 319 320 315 316 317 314 316
308 309 311 312 313 313 314 314 313 314 315 315 315 316 316 316 316 316 320 321 324 320 320 318 319 320 320 320 321 320 320 319 320 316 316 318 319 317 317 319 318 315 316 319 313 317 316
308 309 310 311 312 313 315 314 313 313 315 315 315 315 316 314 316 315 318 322 322 320 322 319 320 319 320 319 319 320 320 319 319 319 315 319 316 317 319 318 318 318 318 317 315 312 314
308 309 309 310 312 314 315 315 314 313 314 315 319 317 321 320 312 317 320 324 320 319 321 321 322 322 320 321 323 322 322 320 320 320 316 316 313 312 318 317 317 317 318 315 311 319 310
308 309 308 309 311 314 316 316 315 313 314 318 322 325 324 318 308 306 321 322 320 319 320 321 321 321 321 321 322 322 321 319 316 316 319 316 313 313 318 319 316 317 317 318 313 307 313
308 308 308 309 311 313 316 317 314 313 315 319 323 315 320 320 322 320 322 321 321 321 321 321 321 321 321 321 320 322 321 319 315 314 316 318 316 313 316 317 313 315 315 317 314 310 312
309 308 307 308 310 312 316 318 315 313 315 321 324 316 315 309 314 322 322 321 321 321 321 321 320 321 320 321 322 321 320 319 317 316 317 315 315 315 314 314 315 315 314 313 314 313 313
309 308 308 307 309 311 315 318 315 313 315 319 322 322 315 313 314 320 319 321 321 321 320 321 320 321 319 317 319 320 318 317 318 317 318 313 312 312 315 315 314 314 312 313 313 313 313
309 309 308 307 308 309 312 317 317 314 315 319 322 323 316 320 314 317 316 320 321 320 320 320 319 317 316 319 318 319 319 319 318 317 313 310 306 307 311 309 310 309 313 316 315 314 314
309 309 309 308 307 308 311 315 317 316 314 321 323 324 323 312 313 316 322 321 319 319 320 319 320 317 319 318 318 318 317 318 317 313 311 308 309 302 304 302 306 315 313 313 316 315 312
309 310 309 308 307 308 310 314 316 317 318 322 321 325 322 307 318 321 320 320 320 320 319 320 319 319 317 313 306 309 306 308 309 314 315 309 301 305 303 306 306 311 314 313 313 316 313
309 309 309 308 307 307 309 314 315 316 319 318 317 324 321 320 317 323 319 319 314 315 314 321 318 321 318 306 304 309 307 310 313 317 310 308 301 304 307 302 302 307 314 315 313 312 313
309 309 309 308 308 307 308 311 314 314 314 314 320 321 322 322 323 321 319 319 320 317 312 320 321 320 318 299 305 311 312 312 313 311 307 304 300 304 303 299 305 306 311 314 311 309 313
309 309 309 308 308 307 308 309 314 315 316 316 317 320 322 322 322 322 321 321 320 319 312 320 316 317 308 304 301 308 308 308 309 311 309 308 306 303 301 302 309 310 313 310 310 314 315
309 309 308 308 308 308 307 308 311 315 319 316 319 321 320 320 321 321 321 321 320 319 318 319 314 317 316 307 307 310 307 308 302 310 311 311 308 308 309 309 309 312 314 314 314 315 314

GFSGBSN_850_thetae_003.txt.gz
Theta_e
313 309 308 307 308 309 310 311 312 313 314 314 314 313 313 313 313 312 311 310 309 309 309 309 311 313 313 315 316 317 316 317 316 315 314 315 315 316 315 314 315 311 312 314 315 314 314
309 309 307 307 308 310 311 312 313 314 314 314 313 312 313 313 313 312 310 309 309 309 309 311 313 314 314 315 318 317 317 317 317 317 317 315 315 317 318 315 311 312 312 313 315 316 314
308 308 307 308 309 311 312 313 313 314 314 313 312 312 312 313 312 311 310 309 309 309 311 313 314 315 315 317 318 317 316 316 317 317 318 318 318 318 316 313 314 313 311 312 313 315 315
308 307 307 308 310 311 313 313 314 315 315 315 313 312 312 312 311 310 309 309 309 311 312 314 315 315 315 316 318 317 316 316 317 318 318 317 318 318 315 314 314 313 311 312 313 315 315
308 306 307 309 310 312 313 313 315 315 316 316 314 312 312 312 310 309 309 310 311 312 314 315 315 315 314 317 317 317 316 317 317 318 318 318 319 316 316 311 310 310 312 314 316 314 314
309 306 308 309 312 313 313 314 315 316 316 316 314 312 312 311 310 310 311 312 313 314 316 316 320 316 315 317 315 317 316 317 319 319 318 319 318 312 311 309 310 313 315 313 314 314 314
309 306 308 310 312 313 313 314 316 316 316 316 313 311 311 311 310 311 312 314 317 317 318 313 315 317 319 318 316 316 315 317 319 319 316 316 314 315 315 315 315 316 315 314 313 314 314
310 307 309 311 313 313 313 315 316 316 317 315 313 311 311 311 312 312 314 321 325 323 321 314 316 318 319 317 316 316 316 318 318 316 316 314 316 316 316 317 318 317 316 317 314 315 315
310 308 309 312 313 313 313 315 316 316 316 315 313 312 311 312 312 314 317 321 323 321 320 317 318 318 319 318 317 318 319 319 318 317 316 315 317 317 317 317 319 319 317 318 316 316 316
309 308 310 313 314 313 313 315 316 316 317 315 313 312 312 313 314 315 317 324 322 321 311 314 316 317 319 318 318 318 319 319 318 315 315 316 317 318 317 318 317 321 319 318 315 317 319
309 309 312 313 313 313 314 315 316 316 318 317 314 313 313 315 323 319 325 323 319 322 311 313 317 318 318 319 318 318 320 321 317 317 317 319 319 318 318 318 318 320 318 318 317 314 314
309 309 312 313 313 313 313 315 315 315 318 318 317 314 314 321 325 323 321 316 318 316 314 317 317 317 317 318 319 318 320 321 319 316 315 318 318 318 318 318 318 318 319 318 317 316 317
309 309 312 313 313 313 313 315 315 315 317 317 318 316 317 324 326 320 318 316 313 317 317 316 317 317 317 318 318 317 316 316 318 318 318 317 317 315 318 320 317 316 318 320 320 316 318
309 311 312 312 312 312 313 314 315 315 316 316 317 320 322 323 323 319 320 314 323 319 318 316 317 317 319 319 318 318 317 316 315 318 317 318 318 316 315 317 318 317 317 318 322 317 318
309 312 311 312 313 312 313 314 315 315 315 316 317 323 322 317 319 319 317 315 320 319 317 317 318 319 320 319 318 317 317 316 316 316 320 318 318 317 316 316 318 318 314 314 315 311 316
309 310 310 311 313 312 313 314 314 315 315 315 316 319 318 317 317 316 318 319 323 320 319 317 319 318 319 319 320 319 319 318 319 315 315 317 316 316 316 318 316 315 315 316 311 315 315
311 308 309 311 313 313 313 313 314 314 315 314 316 316 316 316 317 314 314 319 323 319 321 318 317 318 319 318 319 319 319 318 318 318 315 317 313 315 317 317 317 316 316 313 313 310 312
309 308 309 311 312 313 314 314 313 314 315 314 316 310 319 315 313 313 316 321 322 318 320 321 320 320 318 320 322 321 321 319 318 319 316 315 312 312 317 315 316 316 316 312 309 316 308
307 308 308 310 312 313 315 314 314 313 314 316 317 326 325 319 308 304 315 322 319 319 319 320 321 321 320 321 321 321 320 318 314 316 318 315 312 313 317 317 314 317 316 313 309 307 314
307 308 308 310 312 314 315 315 314 313 314 317 320 316 323 321 313 311 317 320 321 320 320 320 320 320 319 321 319 320 321 318 314 315 317 316 314 312 315 316 312 313 314 314 312 308 310
308 307 308 309 311 313 316 316 315 313 315 320 322 314 318 311 314 321 319 319 320 320 320 320 320 320 319 321 321 321 319 317 316 316 316 312 313 314 313 312 313 314 313 313 314 312 312
307 307 308 308 311 314 316 317 315 313 315 321 323 317 314 310 315 318 318 321 319 320 320 320 319 320 319 316 318 319 317 315 316 317 316 309 312 310 316 312 312 313 311 310 311 312 313
307 307 307 308 310 313 316 317 315 313 316 320 321 322 314 313 312 315 315 320 319 318 319 319 318 316 316 318 318 317 316 316 316 316 311 307 305 304 306 308 308 305 309 312 312 314 311
308 307 307 308 309 311 315 317 314 313 315 318 322 323 321 310 308 312 319 319 319 318 319 319 319 316 316 318 318 318 317 316 315 313 310 307 304 299 304 301 304 309 309 311 313 314 311
308 308 307 307 308 310 314 316 315 313 314 318 322 323 321 308 314 318 319 318 319 320 319 320 319 318 317 315 308 311 306 308 308 312 310 307 301 305 303 304 304 308 312 314 313 313 311
309 308 307 307 308 311 315 316 317 315 315 320 321 323 320 321 316 320 318 318 312 313 313 320 317 317 317 303 304 306 308 311 313 316 309 306 299 302 303 300 301 305 312 313 311 311 312
309 308 308 307 307 310 315 316 317 317 318 320 320 322 321 322 322 321 317 318 318 315 310 319 320 319 315 299 300 308 310 309 313 310 306 304 298 300 296 298 304 304 311 312 312 309 312
309 309 308 307 307 309 313 315 315 317 318 317 320 320 322 322 322 321 320 320 319 319 312 319 315 317 306 304 301 303 304 307 308 310 309 309 306 304 303 302 308 308 310 311 311 311 313
309 309 308 307 307 308 310 315 316 317 316 317 319 321 321 321 320 320 321 320 319 319 319 319 316 316 314 306 303 306 306 307 302 310 309 309 306 307 308 308 308 311 312 313 313 313 313

GFSGBSN_850_thetae_006.txt.gz
Theta_e
314 312 308 307 308 308 308 308 310 311 312 313 314 313 313 312 313 313 313 311 310 309 308 308 310 311 312 314 315 317 316 316 317 317 316 315 314 315 315 315 313 312 311 312 313 314 314
314 313 309 307 308 307 308 309 310 312 313 314 314 313 312 312 313 313 312 311 309 309 308 309 310 312 313 316 317 317 316 316 316 316 316 315 314 314 317 313 314 314 311 311 313 312 312
314 313 309 307 308 307 308 310 311 313 313 314 313 313 312 312 312 312 311 310 309 308 309 310 312 313 314 316 317 316 316 316 316 316 317 316 315 316 317 313 312 311 311 311 312 314 312
314 313 311 307 307 307 308 311 312 313 314 314 315 314 312 312 312 311 310 309 308 309 311 311 313 314 314 316 316 317 316 316 316 316 316 317 317 316 317 313 313 311 309 310 312 314 313
314 313 311 307 307 308 309 312 313 313 314 315 315 314 312 312 311 310 309 309 310 311 312 313 315 315 315 316 317 316 316 316 317 318 317 316 316 315 312 310 310 309 311 313 315 313 314
314 313 311 306 307 308 310 312 313 314 315 316 315 314 312 311 310 309 309 310 311 312 313 316 319 316 314 317 316 316 316 315 318 318 318 318 316 312 311 309 311 311 312 312 314 313 312
314 314 311 307 307 308 311 313 313 314 316 316 315 312 311 311 310 310 311 312 315 317 316 313 313 315 316 317 315 316 316 316 319 318 316 315 313 313 314 312 311 313 313 313 312 312 315
315 314 310 308 307 309 312 313 313 315 315 316 314 312 311 310 310 311 312 317 325 323 320 313 314 316 318 318 316 316 316 318 317 316 315 313 315 315 315 316 316 315 314 314 314 314 315
315 315 309 308 307 310 312 313 314 315 316 316 314 311 310 310 311 312 316 320 323 323 320 316 317 318 318 317 316 317 317 319 317 316 314 314 316 316 317 316 318 318 315 316 315 316 315
315 315 309 308 307 311 313 313 314 315 316 316 313 311 311 311 313 313 315 321 324 322 311 314 315 316 317 318 317 318 318 319 316 314 315 317 316 316 316 317 316 319 317 315 316 317 320
316 316 308 308 308 312 313 313 314 315 316 316 312 312 312 314 317 318 324 319 320 322 311 313 316 317 318 319 317 318 320 319 316 316 316 318 318 317 317 318 318 319 315 315 314 313 314
317 316 308 308 309 312 313 313 314 315 316 317 313 313 314 320 323 325 317 317 319 314 314 315 316 316 317 318 317 319 320 319 318 315 315 316 317 316 317 317 316 316 317 316 315 315 316
316 316 309 308 310 313 313 313 314 315 316 317 314 314 315 323 326 318 317 317 312 315 316 315 316 316 317 316 317 316 315 315 316 317 318 316 316 314 316 319 316 316 317 318 319 315 318
315 317 310 308 311 313 313 313 314 315 316 316 318 317 318 325 321 319 319 311 318 318 316 314 316 315 318 318 317 316 315 315 314 315 316 317 316 316 314 317 317 316 316 317 320 316 318
315 317 309 309 312 313 313 313 314 315 315 316 317 318 324 318 317 318 318 309 317 317 316 316 317 318 319 318 317 316 315 315 315 315 319 317 317 315 315 315 317 316 314 313 314 311 315
315 316 309 309 312 312 313 313 314 314 315 315 318 323 318 315 316 317 314 315 322 320 318 317 317 317 318 319 318 318 318 317 317 316 314 316 316 315 315 316 315 316 313 314 310 315 315
316 314 308 311 312 312 313 313 314 314 314 315 320 319 319 316 316 317 310 316 321 322 319 317 317 318 317 317 318 319 318 318 318 318 316 314 313 314 315 316 316 315 315 312 311 309 311
317 311 309 312 311 312 312 313 314 314 314 315 319 310 318 316 312 310 312 319 322 318 319 320 318 318 316 319 320 320 319 318 317 318 316 314 312 312 316 314 314 315 315 309 307 312 307
316 309 311 311 311 312 312 313 314 314 314 315 316 323 322 316 307 303 312 319 320 317 319 320 320 319 318 319 320 319 319 317 313 315 315 313 312 313 315 313 313 316 315 310 307 307 312
312 308 310 310 312 312 313 313 314 313 314 317 317 317 325 321 310 310 314 317 319 319 319 319 318 318 318 320 317 319 319 317 314 315 315 313 311 311 313 313 311 314 315 311 310 307 309
308 309 309 310 311 312 313 314 314 313 314 318 317 316 320 311 312 311 313 318 319 320 319 318 319 319 319 320 320 319 318 316 315 315 315 310 313 312 312 311 312 312 312 313 312 310 311
308 307 309 310 311 312 314 315 314 313 314 320 319 315 315 313 317 318 314 317 318 319 319 319 318 319 318 316 317 318 315 313 313 315 313 307 310 308 315 311 310 312 311 310 311 311 310
307 308 308 310 311 312 315 315 314 313 315 321 321 320 318 308 310 315 313 319 319 317 318 318 317 315 317 318 316 315 314 313 314 314 309 305 305 304 304 306 305 306 308 309 309 309 309
307 307 308 309 310 313 315 316 315 313 315 319 321 321 317 306 306 312 316 319 318 317 318 318 318 315 316 317 317 317 315 314 313 310 308 303 302 298 303 300 304 308 307 309 311 312 310
307 307 307 308 310 313 315 317 315 313 315 318 321 322 320 304 308 314 317 317 318 319 318 318 318 317 317 315 308 311 307 308 307 309 306 304 300 302 303 303 304 307 312 311 312 311 309
307 307 307 308 309 312 315 317 315 313 315 317 319 322 322 313 312 316 317 317 310 312 311 318 315 315 315 302 303 307 311 312 313 316 308 304 298 301 296 301 301 305 308 312 311 311 310
307 307 307 308 310 315 316 316 314 313 314 316 319 321 322 321 320 319 317 317 317 313 309 318 316 317 313 298 299 303 307 308 311 310 307 304 301 299 295 298 303 303 311 311 312 310 311
307 307 307 308 312 315 316 316 314 314 315 318 319 320 322 322 321 320 319 319 317 318 312 317 314 316 305 304 302 302 301 306 308 309 309 309 305 303 299 299 306 306 310 310 311 310 312
307 307 307 308 311 315 316 318 317 315 317 318 319 322 321 321 320 320 320 320 319 319 319 319 317 315 313 304 296 303 306 306 301 309 307 309 306 305 304 305 306 308 310 313 312 311 312

GFSGBSN_850_thetae_009.txt.gz
Theta_e
315 312 312 312 311 308 307 308 308 308 309 311 312 313 313 312 311 312 312 312 311 310 308 308 308 309 311 313 314 316 316 317 315 315 315 315 314 314 317 316 314 313 312 311 312 314 319
320 313 313 312 311 306 307 307 308 308 310 312 313 314 312 312 311 312 312 312 310 309 308 308 309 311 312 315 316 317 316 316 316 316 317 315 314 314 316 314 315 314 311 311 310 312 315
323 316 313 313 312 307 307 307 308 309 311 313 313 313 313 313 311 312 312 310 309 308 308 309 310 311 313 315 316 315 316 315 316 316 316 315 314 314 315 314 312 310 313 312 312 312 312
324 321 313 313 312 308 307 307 308 310 312 313 314 314 314 313 312 312 311 309 308 308 309 311 311 313 313 315 315 317 316 315 315 315 315 316 315 314 315 312 312 313 312 315 313 314 312
323 323 315 313 312 309 307 307 308 311 313 313 314 315 315 312 311 311 309 308 308 309 310 312 314 314 314 315 317 316 316 315 315 315 315 315 315 315 312 314 314 313 314 314 314 313 314
322 323 317 314 313 310 306 307 308 311 313 314 315 315 314 312 311 310 308 309 310 310 312 314 316 316 315 317 317 315 316 315 317 316 315 315 314 315 313 314 315 315 314 314 315 314 317
321 321 320 314 313 310 306 307 309 312 313 314 315 315 313 311 310 309 309 310 314 314 314 313 313 314 315 318 316 315 316 316 318 317 317 314 316 317 315 313 312 313 313 314 313 315 319
319 320 321 315 314 310 306 307 310 313 313 315 315 315 312 311 310 310 311 314 319 322 320 314 314 314 315 317 316 315 315 318 317 317 315 317 317 314 315 316 315 316 316 317 317 316 319
316 319 320 316 314 310 307 307 311 313 314 315 315 314 311 310 310 311 312 321 321 323 320 316 316 316 317 317 317 315 316 318 316 316 315 317 316 315 317 317 319 317 317 316 319 318 318
313 317 319 319 314 312 307 307 312 313 314 315 315 313 311 310 311 312 316 316 324 324 314 315 314 315 316 317 316 317 318 318 316 315 316 318 316 316 317 318 317 320 315 318 319 320 322
306 314 319 319 315 313 307 308 312 313 314 315 315 313 311 310 315 314 323 323 322 322 317 314 315 316 317 317 316 318 319 319 316 316 317 318 317 317 318 317 317 319 316 318 316 317 318
304 308 317 319 315 313 307 308 313 313 314 315 315 312 311 312 319 320 324 321 322 318 319 314 315 315 316 316 316 318 319 318 317 317 316 316 316 316 317 315 316 316 318 318 317 318 322
303 306 313 318 316 314 308 309 313 313 314 315 315 312 312 316 322 324 321 320 317 319 316 315 315 315 316 317 317 315 316 317 319 321 320 317 316 315 316 319 316 318 320 324 324 325 323
303 304 310 318 316 313 308 310 313 313 314 314 315 313 314 321 325 319 318 314 316 316 317 313 314 315 317 317 316 315 316 318 315 316 318 318 320 316 315 317 319 317 320 325 324 324 322
302 303 308 316 316 313 308 311 313 313 314 314 315 316 316 324 322 319 315 314 315 316 315 315 316 317 318 317 317 317 315 316 315 315 321 319 318 314 314 315 317 316 318 316 318 313 319
302 303 308 315 316 312 309 312 313 313 314 314 316 317 318 322 318 317 315 313 318 318 317 315 316 316 319 318 318 317 317 317 316 316 314 317 318 314 315 315 315 317 314 318 316 319 318
301 303 306 314 316 311 309 312 313 313 314 313 314 318 323 318 317 316 315 314 321 322 319 316 317 317 317 318 318 318 318 317 317 317 315 313 317 317 315 317 318 317 317 314 314 314 316
301 303 307 313 316 310 310 312 313 313 313 313 317 312 320 316 313 309 314 316 321 320 318 319 316 316 317 318 319 319 320 318 316 317 318 314 316 319 316 314 314 315 315 314 317 314 311
301 303 308 314 315 309 312 312 313 313 313 314 318 322 322 315 311 308 311 318 320 317 318 319 319 318 318 319 320 319 319 315 313 315 316 314 316 319 318 315 314 317 315 311 311 312 315
304 303 306 313 313 310 312 312 312 313 313 316 318 320 323 316 311 311 313 316 318 318 318 318 318 318 319 320 318 320 319 315 314 315 314 313 312 316 319 315 314 315 315 312 314 316 314
303 303 308 314 310 310 312 312 313 313 313 318 317 316 320 314 310 309 311 314 318 319 318 317 318 318 319 320 319 319 318 315 315 315 314 313 316 313 312 312 312 312 314 313 313 313 318
302 305 311 312 309 310 312 312 313 314 313 319 316 315 315 313 312 311 310 318 318 318 318 318 319 318 317 318 318 320 317 314 314 315 313 309 314 310 314 311 311 313 311 312 313 312 312
303 305 312 309 308 311 312 312 314 313 313 319 318 317 315 306 312 313 313 314 317 318 318 317 317 317 317 317 316 314 312 312 313 315 311 309 309 310 311 307 307 312 312 312 311 311 314
305 311 309 307 309 311 312 313 314 313 313 319 318 316 315 307 309 312 315 318 317 316 318 316 316 316 315 315 315 315 313 312 311 308 307 306 305 304 312 305 313 312 309 309 311 310 310
310 308 307 308 310 312 313 314 314 313 314 319 318 316 317 305 309 312 315 316 317 318 318 317 317 316 316 314 313 314 312 311 309 308 306 305 306 306 314 311 308 309 308 312 314 314 312
307 307 308 308 310 312 314 315 314 313 315 319 320 320 320 310 310 315 316 316 313 313 313 316 314 314 313 304 309 314 317 314 312 315 308 305 302 311 306 311 311 310 306 312 311 316 311
306 307 307 308 310 313 315 316 315 313 316 319 320 321 321 317 314 315 317 317 316 314 314 313 313 314 311 305 309 312 314 309 313 312 310 310 306 310 302 312 310 306 309 310 315 315 310
306 307 307 308 310 313 315 316 315 313 315 317 318 320 321 321 317 318 317 318 316 317 316 315 316 315 307 311 311 310 311 311 311 310 311 313 311 310 303 308 313 305 311 315 314 311 310
307 308 309 311 314 315 316 316 315 313 315 316 318 318 320 320 319 319 319 318 318 318 318 316 317 314 313 309 304 305 309 307 306 315 308 313 311 312 309 312 307 307 311 312 311 311 311

GFSGBSN_850_thetae_012.txt.gz
Theta_e
324 323 322 316 313 312 310 308 308 307 308 308 309 311 313 313 312 312 311 312 312 311 310 308 308 308 310 315 316 316 314 314 316 315 314 315 315 316 316 318 318 318 318 316 315 321 325
322 323 323 322 315 312 311 308 307 307 308 308 310 312 313 313 313 312 312 312 311 310 308 308 308 310 311 318 316 316 315 313 314 314 315 315 316 316 317 319 318 318 316 315 315 319 319
323 321 324 323 319 313 311 308 307 307 308 309 311 313 313 314 313 312 312 311 310 309 308 308 309 311 312 316 316 316 315 316 315 316 317 316 315 315 317 319 315 315 316 316 315 319 319
320 321 321 322 322 315 312 310 307 307 308 310 312 313 314 314 313 311 311 310 309 308 308 309 311 312 317 315 315 315 316 316 315 315 316 316 316 316 318 314 315 316 317 318 317 318 315
317 320 322 322 323 317 312 310 307 307 308 311 313 314 315 314 313 311 310 309 308 308 310 311 313 314 318 315 316 315 315 315 314 315 315 315 316 317 316 318 317 316 316 317 316 318 318
303 319 320 320 322 320 314 311 307 307 308 311 313 314 315 314 312 311 309 308 309 310 311 313 314 318 316 318 317 315 315 315 316 315 315 316 317 319 318 317 317 316 316 316 316 320 318
299 313 318 320 321 322 315 311 307 307 309 312 313 314 315 314 311 310 309 309 312 314 312 317 316 317 315 316 317 315 315 316 317 318 320 318 319 318 318 317 317 318 318 317 319 321 322
302 304 315 317 320 321 317 313 308 307 309 313 314 315 315 312 311 309 309 311 316 320 320 314 314 314 314 315 318 315 315 319 319 319 319 319 319 318 319 318 318 318 318 320 319 320 323
303 305 312 314 320 322 319 314 309 306 309 313 314 315 314 311 310 309 310 313 321 323 324 319 315 316 317 317 317 316 317 318 319 319 319 320 320 319 320 320 320 320 320 322 321 321 322
304 303 306 313 319 320 320 314 309 307 310 313 314 315 313 311 309 310 312 314 315 323 320 318 317 318 316 317 318 317 317 319 319 320 321 321 319 320 321 321 321 322 320 321 322 322 321
303 303 304 310 316 318 320 314 311 307 311 313 314 314 313 310 313 311 318 316 323 321 319 317 317 316 317 318 318 319 319 319 320 320 321 322 321 321 322 321 321 322 321 323 322 323 323
302 301 305 305 313 318 320 315 311 308 311 313 314 314 313 310 313 314 322 324 323 325 318 317 317 318 319 318 318 319 320 319 319 321 321 321 319 321 321 320 320 320 322 322 322 323 324
301 301 303 304 309 316 320 315 312 308 312 313 314 314 312 311 316 318 324 323 322 320 317 317 317 318 320 319 320 321 321 321 322 322 323 321 321 319 320 322 321 322 323 323 323 324 324
301 300 301 304 307 314 318 315 312 308 312 313 314 314 313 311 321 325 323 320 319 317 318 317 317 319 320 320 320 320 321 322 320 322 322 320 322 320 319 322 322 323 323 322 322 324 321
301 300 302 303 304 311 318 316 312 309 312 313 313 314 313 312 316 324 319 325 320 320 320 318 318 319 320 320 320 321 322 322 321 321 321 321 320 318 319 320 320 321 322 322 324 321 324
300 301 302 303 303 307 316 316 311 309 312 313 314 314 313 314 315 317 323 321 319 322 320 318 317 318 320 321 319 320 322 320 321 320 320 322 321 319 318 319 319 321 319 322 323 324 321
299 299 301 303 303 305 313 316 311 310 313 313 314 317 317 315 320 321 325 320 321 324 322 319 318 319 319 321 320 319 320 321 320 320 319 320 322 321 320 321 322 320 320 318 320 321 317
298 299 300 302 303 305 311 316 311 311 313 312 317 320 318 321 321 319 321 319 322 323 320 321 320 320 321 322 322 322 321 322 320 320 322 319 322 324 322 319 319 320 320 318 318 318 319
298 299 300 301 303 304 311 316 311 311 313 313 317 320 323 320 323 324 318 320 322 321 321 322 322 322 322 324 324 323 323 317 316 320 322 320 323 324 321 320 319 320 319 317 318 320 319
298 299 300 300 302 304 311 315 310 311 313 315 318 325 322 316 316 319 319 319 319 320 321 321 322 323 324 324 323 324 323 318 317 318 313 316 321 323 324 321 320 321 320 318 317 319 318
298 299 299 301 302 306 312 313 310 312 313 316 320 321 320 324 318 318 318 318 319 322 320 320 322 323 324 325 324 324 322 318 318 316 318 320 322 319 317 317 316 318 319 318 318 318 318
298 299 300 301 303 309 314 310 310 313 313 316 320 320 318 319 315 317 315 317 318 321 322 322 324 323 324 325 324 325 323 321 321 319 320 316 322 317 319 316 316 317 317 318 318 318 317
298 299 301 302 301 309 313 310 312 312 313 317 317 317 318 313 317 318 317 318 318 322 320 320 323 324 324 322 320 320 318 318 319 321 320 320 318 317 319 314 315 319 317 317 317 318 318
299 301 302 303 305 309 311 310 312 313 313 318 317 316 317 320 319 318 316 316 322 322 323 320 321 324 318 316 317 317 317 316 315 314 314 314 315 315 320 312 326 315 313 314 317 316 316
300 302 302 307 311 312 309 311 312 313 313 317 317 316 316 319 318 316 316 316 319 320 322 321 319 318 316 317 322 321 323 321 318 314 313 312 315 316 325 317 316 313 312 313 315 315 316
303 302 305 307 311 308 310 312 313 314 314 317 318 315 315 319 319 316 317 319 323 324 322 317 315 314 312 318 322 325 324 320 319 319 313 311 311 318 315 329 330 315 311 314 315 316 315
305 309 310 308 307 310 311 312 313 314 314 318 319 316 316 318 317 317 318 320 321 323 324 317 315 316 312 320 330 327 324 316 319 319 318 318 317 322 318 324 317 313 311 314 316 316 315
309 307 306 308 310 311 312 313 314 313 316 319 319 319 320 322 318 316 317 319 318 322 325 318 319 318 317 325 329 323 326 318 317 316 317 319 320 321 314 323 323 309 314 318 317 316 313
306 307 308 309 310 311 313 315 314 313 317 318 320 320 319 322 320 317 316 318 319 321 321 318 323 320 321 324 320 319 318 312 319 323 313 318 318 319 317 318 313 311 315 315 313 314 314

GFSGBSN_850_thetae_015.txt.gz
Theta_e
322 323 323 323 323 321 316 312 310 308 308 307 308 309 310 312 313 313 312 311 312 312 311 309 308 308 310 321 320 316 314 312 312 315 315 315 316 317 318 318 318 320 322 320 323 325 324
321 320 321 323 323 323 321 314 311 308 307 307 308 309 311 313 313 313 312 312 312 311 310 308 308 308 312 321 318 319 315 313 316 317 315 315 316 316 317 318 320 319 321 319 321 323 324
304 321 322 322 320 323 322 317 312 309 307 307 308 309 312 313 314 314 312 312 311 310 309 308 308 310 315 319 318 320 316 315 316 315 316 317 317 317 319 320 319 318 318 320 322 322 323
299 307 320 322 321 321 323 320 313 310 307 307 308 310 313 314 314 314 312 311 310 309 308 308 310 311 319 319 318 319 320 319 317 317 318 318 318 317 319 318 318 318 319 321 321 322 322
298 298 309 321 321 320 321 322 315 311 308 307 308 311 313 314 314 314 311 310 309 308 308 310 312 317 322 317 317 317 318 318 318 318 317 317 318 318 319 320 319 319 318 319 320 321 322
298 298 298 310 320 321 322 322 317 312 308 307 308 312 313 314 314 313 311 309 308 309 310 311 314 320 320 318 319 316 317 317 319 318 318 318 319 321 321 321 318 319 319 319 320 320 319
297 298 297 299 318 320 320 322 318 313 309 307 308 312 314 315 314 312 310 308 313 317 313 319 319 319 318 318 318 317 317 317 319 320 321 319 320 320 320 320 319 319 318 318 319 319 318
298 297 299 298 308 318 319 321 320 314 310 307 309 313 314 315 314 311 310 315 319 323 324 314 317 317 318 318 318 317 317 318 320 320 321 321 320 320 320 319 318 318 319 320 320 320 322
304 302 302 299 303 315 318 320 322 315 312 307 309 313 314 315 313 311 309 313 321 322 325 320 318 318 318 319 318 318 318 319 320 320 320 321 320 320 319 318 318 320 318 321 321 322 322
304 304 304 304 300 312 315 319 322 316 313 308 310 313 314 314 312 313 312 312 315 315 325 320 319 319 318 318 319 318 318 319 319 320 320 321 321 319 319 320 320 321 322 321 321 323 322
302 303 302 304 302 306 314 316 321 316 313 308 310 313 314 314 320 316 323 322 319 325 324 320 319 318 318 318 318 319 318 318 318 320 320 322 322 322 320 322 323 324 322 323 322 322 324
301 302 303 302 304 305 312 316 320 317 314 308 311 313 314 314 312 319 322 328 326 329 322 319 319 318 319 319 318 318 318 318 320 320 321 321 322 322 323 322 322 323 323 324 323 323 324
301 302 302 302 303 305 307 314 319 318 314 309 311 313 314 313 316 319 321 327 327 324 319 318 318 319 319 318 319 319 319 319 318 319 321 322 321 322 322 323 323 323 323 324 323 324 324
300 303 301 302 301 304 306 311 317 319 314 309 311 313 314 314 318 321 327 327 324 319 320 318 317 318 319 319 319 319 319 319 320 322 321 322 324 322 322 323 323 323 322 323 321 322 321
298 301 302 301 302 302 305 307 316 318 315 310 311 313 313 313 313 322 326 328 324 318 320 318 318 318 320 319 319 320 321 320 320 321 321 321 321 321 322 322 322 322 323 323 324 324 324
297 299 301 301 301 301 304 305 312 317 315 310 312 313 315 313 312 321 326 324 321 321 320 319 318 319 320 320 319 320 321 322 323 322 323 322 322 321 321 322 322 322 322 322 321 322 322
297 297 301 301 302 301 303 305 310 316 315 310 316 316 315 313 313 322 325 323 320 321 321 319 318 319 320 320 320 320 321 322 323 323 322 321 321 323 322 322 322 323 321 321 322 324 323
296 297 300 301 301 302 303 304 307 313 313 310 317 320 323 314 321 323 325 322 319 323 323 321 321 319 320 321 321 320 319 320 322 322 321 320 322 325 323 322 322 323 323 322 322 320 320
297 297 300 300 301 302 303 303 306 312 313 312 318 320 324 318 327 330 322 321 320 323 323 322 320 320 320 320 320 320 320 322 322 323 321 323 322 324 323 323 321 320 321 321 320 322 319
296 298 300 300 300 302 304 303 305 311 312 315 318 324 323 322 322 323 323 321 321 322 322 322 320 322 323 323 323 324 324 321 320 322 317 319 322 322 324 323 323 323 320 320 320 321 320
298 301 299 299 299 300 303 304 307 313 311 315 318 321 321 326 326 323 322 321 320 322 322 323 324 322 322 323 324 325 325 322 321 318 319 322 323 322 322 321 320 320 320 320 320 319 321
298 299 298 298 299 300 301 303 307 313 310 314 319 321 320 323 321 322 320 320 320 322 323 324 323 322 322 324 324 323 326 324 324 323 323 322 324 322 323 321 320 320 319 318 319 319 318
297 298 298 299 299 300 301 303 308 312 311 315 320 320 321 323 325 322 323 320 320 323 324 323 323 324 324 326 325 324 323 323 324 325 325 324 324 321 320 319 320 322 320 319 319 319 319
295 297 298 299 300 301 301 303 308 312 312 317 321 320 321 325 325 321 319 319 320 323 324 323 324 324 323 321 321 321 320 320 319 320 322 323 322 321 321 317 323 317 317 317 318 318 318
295 296 298 299 300 300 301 304 309 311 312 316 322 321 321 328 321 319 318 318 319 323 325 324 323 323 321 322 324 323 324 324 320 318 317 318 320 321 327 319 317 316 315 315 316 316 316
294 297 299 299 301 302 303 305 312 310 314 316 323 320 319 323 322 317 317 317 325 326 325 321 320 320 320 325 327 325 325 322 324 323 316 315 317 320 318 327 327 319 315 316 317 316 315
297 299 300 301 302 303 302 308 310 311 314 317 324 318 317 316 316 316 319 318 318 323 326 322 320 319 319 327 330 327 324 321 321 321 321 321 322 324 321 325 321 316 314 315 316 318 316
300 300 301 303 303 306 310 310 311 312 315 318 324 316 317 317 319 319 318 318 318 320 328 323 322 322 323 327 331 327 328 323 322 320 321 321 323 323 323 323 323 313 315 318 320 316 316
301 304 304 303 307 310 309 310 312 313 314 319 323 316 318 321 323 322 321 320 320 322 323 321 323 323 323 327 328 329 324 318 324 324 318 321 320 322 319 320 316 314 315 315 315 315 315

GFSGBSN_850_thetae_018.txt.gz
Theta_e
316 320 321 323 324 323 323 322 319 314 311 308 308 307 308 309 311 313 313 313 312 312 311 310 309 308 308 321 322 321 316 313 311 313 318 316 316 316 318 319 318 318 321 321 325 324 326
299 304 319 321 321 322 322 323 322 317 312 310 308 307 308 309 311 313 313 313 312 311 311 309 308 308 312 322 319 320 316 314 313 315 317 315 317 317 318 318 318 319 321 321 323 325 325
299 299 300 320 321 320 321 321 323 321 313 311 308 307 308 310 312 313 314 312 311 311 309 308 308 309 316 318 319 321 317 315 317 317 316 316 317 318 319 319 319 320 320 320 322 323 326
299 299 299 300 318 321 321 320 323 322 315 312 308 308 308 311 313 314 314 312 311 310 308 308 309 311 318 321 319 320 320 319 317 317 316 319 319 318 319 320 320 319 320 320 321 322 323
299 299 299 299 301 316 321 320 320 322 318 313 309 308 308 312 313 314 313 311 310 308 308 309 313 319 322 320 318 318 319 320 320 318 318 318 318 319 320 320 320 319 318 320 322 322 323
299 299 299 299 299 305 317 321 320 320 321 314 311 308 308 312 314 314 313 310 309 308 309 310 312 318 318 320 319 317 318 319 320 319 319 319 319 321 321 320 319 318 319 320 320 320 322
299 299 298 299 298 299 310 320 319 320 322 315 312 308 309 313 314 314 312 309 316 317 316 317 320 318 318 319 319 318 318 319 320 320 322 320 321 321 322 321 320 320 319 320 320 321 320
298 299 299 298 298 298 299 314 319 320 322 316 313 308 309 313 314 314 311 317 321 324 325 321 314 319 319 319 319 318 318 319 321 322 321 319 320 321 321 320 321 319 320 319 319 318 319
301 300 303 300 299 297 298 305 318 320 322 317 313 308 309 313 314 314 311 309 320 320 324 322 316 317 319 318 318 318 318 319 320 321 321 322 322 321 320 321 319 319 320 321 320 319 317
302 303 303 305 303 299 298 300 315 319 320 319 314 309 310 314 314 313 311 309 317 318 324 322 319 319 319 319 318 318 318 319 321 321 320 321 322 321 320 318 319 321 322 321 321 322 321
301 301 301 302 305 305 300 298 315 318 319 321 314 310 310 313 321 317 324 317 322 324 328 322 320 318 319 318 318 319 319 319 320 321 321 322 321 320 319 322 322 322 322 322 322 320 324
300 301 300 301 303 305 303 299 312 315 319 320 314 310 310 314 314 317 324 328 324 331 326 320 319 320 319 318 318 318 319 318 319 319 322 320 321 322 323 322 322 323 323 323 321 322 328
297 299 300 300 301 304 304 301 309 314 318 319 315 311 310 314 317 315 320 328 328 324 320 320 319 319 319 319 319 318 319 319 319 319 322 320 320 321 322 320 322 321 321 323 328 329 328
295 297 299 300 301 302 304 303 305 313 317 319 315 312 310 313 319 322 325 329 325 320 321 318 318 319 319 319 318 318 320 318 319 319 320 323 325 321 321 320 323 324 320 326 328 328 326
295 297 299 300 302 301 303 303 304 311 316 318 315 312 310 313 316 322 325 329 325 321 320 319 318 318 318 319 319 318 318 318 319 320 324 324 324 323 322 322 321 319 322 322 323 325 327
295 296 299 300 302 303 303 302 304 309 314 316 314 311 310 313 314 321 326 326 323 322 320 319 318 318 319 320 318 319 319 319 319 321 321 324 324 323 322 321 321 321 321 324 323 323 323
295 296 298 299 300 302 302 302 304 307 310 315 314 314 314 314 314 321 326 326 324 321 320 320 318 318 319 320 319 319 320 322 322 322 322 321 323 322 322 322 319 322 321 321 320 327 331
295 297 297 298 299 301 302 301 303 306 310 314 313 316 317 316 317 317 326 323 321 321 321 321 320 319 319 321 320 319 319 321 322 321 322 321 320 328 322 322 322 322 324 321 332 324 329
295 296 296 297 298 301 302 301 302 306 309 313 314 317 319 316 318 323 323 322 322 322 323 323 321 321 320 321 321 320 320 324 324 322 322 322 322 325 323 324 323 322 320 321 322 326 327
295 295 295 296 298 300 301 302 302 305 309 313 315 320 324 321 315 321 325 322 322 321 321 321 322 321 320 320 321 321 321 323 322 323 319 322 322 321 326 323 323 324 321 320 321 329 325
295 295 295 297 298 299 301 302 303 304 308 313 316 320 322 324 323 323 325 322 322 321 321 322 321 320 322 322 322 323 322 324 322 321 320 322 323 321 321 321 322 322 321 321 320 321 322
295 295 296 297 298 300 301 302 304 304 306 311 317 320 320 321 320 324 324 325 322 321 323 323 323 321 323 323 323 323 323 326 324 323 323 323 326 325 325 322 322 321 321 321 320 319 319
296 297 297 297 298 301 301 302 304 305 307 310 315 320 321 322 323 326 327 325 323 322 322 322 322 323 323 325 325 325 325 325 324 326 326 327 330 326 325 320 321 321 322 320 321 319 319
294 297 298 300 300 300 300 301 303 305 305 311 316 320 322 324 323 325 325 322 321 323 325 323 323 325 325 323 323 323 322 322 323 323 325 327 327 327 327 318 323 318 318 318 318 318 319
296 298 299 300 300 299 299 300 303 303 306 311 316 319 321 323 325 323 324 323 321 320 325 324 325 326 323 324 326 325 328 322 321 319 320 322 325 327 328 323 319 317 317 316 316 317 317
296 297 298 298 299 299 300 301 301 303 307 311 316 319 323 325 327 321 322 322 323 329 327 323 323 323 324 331 332 327 328 323 324 322 318 317 323 328 322 328 327 321 317 316 317 317 316
297 296 297 298 299 300 300 301 303 303 307 310 313 318 323 323 322 320 322 322 320 327 327 324 322 322 323 330 328 333 330 322 326 325 321 323 324 323 324 326 325 318 316 315 318 322 317
297 295 296 298 299 300 301 301 304 306 308 310 315 320 320 321 320 320 319 318 320 325 329 324 325 324 330 329 331 332 330 328 326 321 322 323 326 323 327 323 322 315 315 318 322 317 316
295 294 297 299 299 301 301 302 305 306 310 310 312 319 325 325 324 323 321 319 320 321 325 323 325 324 326 329 330 333 323 318 324 328 320 324 324 328 323 324 318 315 315 315 315 315 315

GFSGBSN_850_thetae_021.txt.gz
Theta_e
300 301 311 319 319 318 323 322 323 322 322 316 311 308 308 307 308 310 311 313 313 311 311 310 309 307 307 315 319 321 316 315 311 313 315 317 318 317 315 315 316 316 317 324 322 323 325
300 300 300 301 315 319 321 319 320 323 322 321 313 309 307 307 308 310 312 313 312 311 310 309 308 307 309 321 321 321 317 315 312 313 316 317 317 316 316 316 315 318 318 325 325 325 323
300 300 300 300 300 308 318 320 320 320 322 322 316 311 307 307 308 311 313 313 312 311 310 308 307 308 310 313 320 320 321 314 315 316 316 316 317 318 318 318 320 319 318 318 322 326 325
300 300 300 300 300 300 305 316 320 320 320 323 319 312 308 308 309 311 313 313 311 310 309 308 308 310 312 318 318 319 319 318 317 317 317 317 319 318 318 319 319 318 318 319 320 324 324
300 300 301 300 300 300 300 305 315 320 318 322 322 314 309 307 309 312 314 313 310 309 308 308 312 322 318 321 319 318 320 321 319 319 317 318 318 318 319 318 317 317 316 319 320 321 322
299 299 300 300 300 300 300 299 305 317 319 320 322 316 311 307 309 312 314 312 309 308 308 309 310 315 315 319 318 318 318 320 320 319 319 318 318 317 316 317 318 317 317 317 319 319 320
299 299 299 300 300 300 300 300 301 306 319 318 321 318 312 307 309 313 314 311 320 321 315 311 314 314 319 318 319 318 318 319 319 319 318 319 316 317 319 319 319 318 317 317 316 317 319
304 302 299 299 300 300 300 299 299 302 318 316 322 318 313 307 309 313 314 311 319 317 321 322 324 315 318 319 319 319 318 319 320 320 320 318 319 320 320 319 319 319 320 318 318 317 316
303 303 302 299 298 299 300 299 299 299 310 318 321 320 313 308 310 313 314 312 314 318 320 322 322 319 317 319 319 318 318 318 320 320 320 319 321 321 321 321 320 320 320 319 318 316 316
302 302 303 303 300 301 299 299 299 298 302 316 319 321 314 308 311 319 319 311 310 313 321 322 323 317 316 318 319 317 318 318 320 321 320 320 321 321 321 321 319 319 321 321 321 319 317
300 301 301 302 302 302 305 300 298 298 305 315 317 321 315 308 315 317 321 318 318 321 326 319 321 318 318 318 318 317 318 319 320 321 320 320 321 321 322 321 319 321 320 320 321 320 322
301 299 299 300 302 302 304 305 303 298 308 313 317 320 315 308 312 317 324 326 324 326 326 322 320 318 318 319 319 318 318 318 320 320 319 319 320 321 321 321 319 322 322 322 321 319 320
301 300 299 298 300 301 301 303 305 301 309 314 317 319 317 309 312 317 317 325 324 322 320 321 319 319 318 318 318 317 318 317 316 319 320 320 320 320 321 320 320 321 319 321 320 322 321
299 299 300 298 299 300 301 301 304 302 304 315 316 319 317 310 314 321 321 324 327 322 321 319 319 319 318 318 317 317 317 316 315 317 320 322 322 321 320 319 322 321 320 321 324 325 325
298 298 299 297 296 298 300 300 302 304 303 312 318 317 315 310 313 321 323 325 321 323 318 320 318 318 317 318 317 317 316 317 316 315 320 322 324 322 322 322 320 320 321 321 324 324 326
298 299 299 298 297 296 299 301 301 304 304 312 314 315 315 312 312 318 322 322 323 321 322 320 320 317 317 318 318 317 316 317 317 316 320 323 323 322 322 322 320 320 319 321 320 322 321
296 299 298 297 296 296 300 302 301 303 304 310 313 314 315 313 312 318 319 321 322 322 321 322 320 317 317 318 318 318 318 318 319 321 321 321 322 324 322 322 319 320 319 319 319 319 320
296 296 296 297 296 296 300 302 302 303 304 309 314 315 314 310 315 316 317 319 320 322 322 322 320 318 317 320 319 317 319 325 321 321 322 320 321 319 323 320 319 320 322 322 316 318 316
294 294 294 295 295 296 300 300 303 302 304 308 314 315 314 310 314 315 315 320 321 322 322 322 322 320 320 319 321 318 323 323 323 321 321 321 318 315 317 319 321 321 320 318 321 316 317
294 294 294 294 295 296 299 300 303 303 304 309 314 316 318 316 312 314 314 318 322 321 322 322 322 322 320 320 319 321 323 322 322 319 319 322 321 317 316 319 321 322 321 319 318 314 315
294 293 294 294 295 298 299 299 302 303 304 308 314 314 318 320 318 313 315 319 322 323 321 321 321 321 320 319 320 320 324 322 322 320 320 320 319 320 321 322 321 321 322 321 319 318 316
294 294 293 293 296 297 297 299 302 302 303 307 314 315 319 318 318 317 316 320 322 321 321 321 322 320 319 320 322 321 324 324 322 321 320 320 322 322 322 321 319 319 319 319 319 319 318
294 294 294 295 296 296 296 299 302 302 303 307 310 315 318 319 318 317 316 321 322 321 321 320 322 322 321 324 323 325 324 324 323 321 320 320 316 315 320 315 315 312 315 318 318 318 318
295 295 295 295 295 296 297 299 302 302 303 306 308 315 319 318 319 316 318 321 321 321 323 321 322 321 324 323 322 322 321 323 323 323 323 318 318 312 314 312 310 314 316 315 317 316 314
296 295 295 295 296 297 298 301 302 302 304 304 309 312 319 312 318 316 319 321 323 323 321 325 325 324 323 322 320 319 314 313 319 319 321 321 313 315 312 313 314 314 316 316 315 314 313
296 296 297 296 297 297 298 301 302 303 306 304 309 314 314 320 319 318 318 322 322 321 323 324 324 323 324 320 313 320 318 318 319 318 317 316 313 310 312 314 310 314 315 316 315 313 315
294 295 296 298 298 298 299 301 301 301 303 305 306 308 310 322 320 319 319 322 323 323 321 323 322 323 325 310 316 313 316 320 320 318 314 311 310 310 308 309 313 318 315 315 311 312 316
295 298 298 299 300 301 301 300 300 301 303 303 306 308 313 319 321 322 320 322 324 323 319 323 321 320 316 317 315 314 312 314 315 319 316 314 313 310 312 315 317 316 314 312 316 315 315
295 298 298 299 299 299 299 300 301 301 304 305 305 308 311 312 319 323 321 321 324 323 324 321 321 322 323 318 315 313 312 311 314 314 318 317 317 314 315 313 315 314 315 317 315 315 315

GFSGBSN_850_thetae_024.txt.gz
Theta_e
300 300 300 300 305 314 317 315 317 321 323 323 322 319 311 307 307 308 309 311 312 312 311 310 309 308 307 310 316 320 315 314 311 313 315 314 317 317 315 314 314 313 318 322 326 326 326
300 300 300 300 300 301 308 314 315 316 320 322 322 322 314 308 307 308 309 311 313 312 310 310 309 308 308 314 321 320 319 314 312 315 315 316 317 317 315 315 314 318 322 322 323 324 324
300 300 300 300 300 300 300 303 314 315 318 316 321 322 318 309 307 308 309 312 313 312 310 309 308 307 308 312 320 318 319 314 314 314 315 316 317 318 318 317 318 318 320 323 324 324 323
300 300 300 300 300 300 300 300 302 307 315 317 316 322 321 311 307 308 309 312 313 311 309 308 307 309 309 314 319 318 319 319 317 316 316 317 317 318 317 318 318 317 317 320 323 324 324
300 300 300 300 300 300 300 300 300 301 307 317 317 320 322 314 308 308 309 313 313 310 308 308 308 315 314 319 318 317 318 319 320 319 318 317 318 318 317 316 314 314 314 317 322 323 323
300 300 300 300 300 300 300 300 300 300 302 309 318 317 321 317 309 307 309 313 312 310 309 308 308 312 312 319 318 318 319 319 320 319 317 318 318 315 314 314 316 317 316 317 318 318 321
305 303 301 299 299 300 300 300 300 300 300 303 316 318 320 319 310 307 310 313 315 322 316 309 311 310 315 318 318 318 318 318 319 319 317 318 315 316 316 316 318 319 318 315 314 316 317
304 304 305 304 300 299 299 299 299 299 299 301 312 317 319 320 311 307 311 313 318 315 317 319 320 322 316 318 315 318 318 318 319 318 319 316 317 317 319 319 319 319 318 317 316 315 315
303 302 303 304 305 301 299 299 299 299 298 302 311 316 318 321 312 307 313 315 316 315 317 318 317 319 316 317 317 318 318 318 319 318 318 316 318 319 320 320 320 319 319 319 318 314 314
304 302 302 303 304 304 302 299 299 299 298 304 309 315 318 321 311 309 320 320 311 310 318 320 320 319 318 316 317 318 318 317 318 319 318 318 319 320 321 320 320 318 318 320 319 316 315
305 304 302 302 302 303 303 301 304 300 298 299 311 317 315 320 309 316 321 322 315 319 314 317 321 318 315 317 318 317 317 317 318 319 317 318 320 320 321 320 318 319 318 319 320 318 319
301 303 303 302 301 301 303 303 304 305 299 298 313 317 317 319 313 314 322 321 319 320 319 322 319 316 316 317 318 318 316 317 319 319 318 317 319 319 319 320 319 319 320 319 318 318 318
299 300 302 303 302 300 301 303 303 304 305 299 313 314 317 319 316 308 317 321 321 322 318 321 318 317 316 317 317 317 316 316 317 318 318 318 319 319 320 320 318 320 317 318 318 318 318
298 303 303 303 303 301 299 300 302 303 305 302 313 313 317 318 314 312 318 323 322 319 321 319 318 317 317 317 317 316 315 315 314 316 317 319 320 321 320 320 319 319 317 317 320 321 321
297 300 302 302 302 301 299 299 301 301 303 303 309 312 315 317 314 316 321 324 318 321 318 318 318 317 317 317 316 315 315 315 314 313 317 321 322 320 320 321 320 320 318 318 321 321 323
297 298 301 301 301 301 300 298 300 301 302 303 307 311 313 315 315 313 320 320 320 320 320 318 318 317 316 316 316 314 314 315 316 314 317 320 321 320 321 321 320 320 318 320 318 324 325
299 297 298 300 299 299 299 299 297 300 301 303 307 311 313 314 315 311 318 317 318 319 320 322 321 319 316 316 316 315 315 315 315 319 319 319 318 320 321 321 321 319 318 317 318 315 318
300 298 296 297 298 298 298 298 296 299 301 303 308 311 313 315 311 313 318 317 315 318 319 322 321 320 315 316 317 316 317 317 318 319 320 319 320 318 322 320 319 319 318 317 314 316 313
300 299 296 296 297 299 299 297 296 300 301 303 309 312 313 313 312 312 314 317 316 317 320 322 321 320 318 317 317 317 319 322 321 320 320 318 317 314 317 316 319 319 318 319 317 312 316
301 299 296 296 297 299 298 297 296 300 301 304 309 312 314 313 313 310 313 316 317 315 317 319 321 320 320 318 319 320 322 321 321 320 320 319 316 314 314 315 317 321 321 318 317 313 315
300 299 296 296 297 297 297 296 296 301 302 303 309 312 312 313 313 311 312 314 316 316 318 320 320 321 320 318 319 319 322 321 321 318 319 317 318 317 317 320 320 319 319 320 318 316 315
300 298 296 296 296 296 295 296 296 300 303 304 309 313 313 314 313 311 312 313 314 315 317 319 321 320 318 317 318 319 322 321 320 320 318 318 318 320 320 317 318 319 317 317 317 318 317
299 297 295 295 295 294 295 295 296 300 302 305 306 312 314 313 314 313 312 313 313 313 317 316 318 319 318 318 320 320 322 321 320 318 318 317 314 313 318 313 313 314 314 315 317 316 317
298 296 294 295 294 294 295 296 298 299 300 305 305 309 314 315 317 315 313 313 313 315 316 318 317 319 321 322 322 322 321 321 322 321 320 315 313 309 312 309 313 316 314 314 314 312 313
296 294 294 294 294 294 295 297 299 299 300 303 307 307 314 310 317 317 316 313 314 315 319 318 321 320 322 320 316 316 312 314 318 317 319 319 312 313 311 311 313 314 314 313 313 314 313
294 294 295 294 293 294 296 296 298 299 300 302 304 307 309 312 316 317 316 314 314 317 317 323 323 322 322 314 310 316 315 315 317 317 314 314 309 312 310 312 310 311 314 314 312 313 314
295 295 294 294 295 296 296 296 297 299 301 302 303 304 306 310 318 318 316 315 315 319 318 322 323 323 323 309 311 312 315 316 317 315 312 308 307 308 303 306 309 311 314 313 310 309 315
296 296 296 296 295 295 296 297 298 301 302 303 303 304 305 310 314 319 316 315 317 320 319 321 320 320 313 315 314 311 309 313 314 316 314 312 311 307 312 310 313 315 313 311 310 314 314
296 296 296 296 296 296 297 298 301 303 302 303 305 304 306 306 311 315 317 318 317 320 322 322 320 321 321 317 312 311 312 306 311 315 316 314 312 311 311 311 313 313 315 316 315 314 314

GFSGBSN_850_thetae_027.txt.gz
Theta_e
300 300 299 299 300 303 313 317 318 314 314 320 323 322 322 319 309 307 308 308 310 312 312 310 309 309 308 308 314 320 317 313 310 311 312 315 316 317 314 313 313 312 313 315 319 325 325
299 300 300 300 299 299 300 307 315 316 316 315 319 319 322 322 312 307 307 308 310 312 312 310 309 308 307 308 321 320 318 313 311 313 314 315 317 317 316 314 313 314 319 322 324 325 325
299 299 299 300 300 300 299 299 301 310 315 315 315 316 318 322 317 308 307 308 311 312 311 309 308 308 308 308 320 320 318 314 313 314 315 316 317 317 317 315 318 318 322 323 323 323 322
301 300 299 299 299 300 300 300 299 299 305 311 313 315 313 321 321 310 307 308 311 313 311 309 308 307 308 310 317 318 318 317 316 316 316 316 316 317 317 317 316 315 316 319 321 323 323
304 300 300 300 299 300 300 300 300 299 299 302 308 314 315 317 321 314 307 308 311 313 311 308 307 308 309 313 316 318 318 319 319 318 318 317 317 317 316 315 313 312 315 316 322 323 322
305 306 303 300 300 300 300 300 299 299 299 302 303 308 314 314 320 317 307 308 312 312 313 312 308 309 309 317 319 319 317 318 319 319 318 318 317 314 312 313 315 317 316 315 318 321 322
304 305 305 306 304 300 300 300 300 300 299 299 312 305 310 316 318 318 307 310 312 320 318 313 309 308 309 315 317 318 319 318 318 318 316 317 314 315 315 315 317 318 317 316 315 314 320
305 304 304 305 304 306 302 300 300 300 300 299 310 303 312 318 317 318 308 311 315 314 314 316 317 318 319 320 318 318 317 318 318 317 318 315 317 316 317 318 319 319 318 317 316 314 316
302 305 305 303 304 305 305 305 303 301 300 299 301 305 311 317 319 319 308 314 319 316 313 313 315 315 316 317 318 318 317 318 317 317 317 315 317 317 319 319 319 318 318 317 318 313 314
299 302 306 305 303 304 304 304 303 306 301 299 299 309 315 317 317 317 314 320 314 314 315 317 320 317 317 317 316 318 318 318 317 317 316 316 317 319 319 319 319 319 317 317 318 314 314
298 299 301 304 306 303 303 303 305 304 306 300 298 305 316 318 316 310 319 317 311 317 310 312 320 318 316 316 317 318 318 317 316 318 316 317 318 319 319 319 318 317 317 318 318 317 316
299 297 299 301 304 305 303 302 304 304 305 305 298 304 315 319 319 313 320 318 319 315 313 316 320 315 314 316 317 316 317 317 317 317 317 316 318 318 318 319 318 317 319 316 316 316 317
300 299 297 298 301 305 304 302 302 303 304 306 303 310 314 316 317 317 314 319 322 316 313 320 318 315 314 315 315 316 315 316 316 317 318 317 318 318 319 319 317 316 315 315 316 317 317
302 300 299 297 299 302 305 303 301 302 302 304 304 308 313 315 316 317 312 321 322 318 319 320 317 315 315 315 315 315 314 314 314 315 315 317 318 319 319 319 320 319 316 315 317 318 319
302 302 300 298 296 300 303 304 302 300 302 303 305 307 310 314 316 311 319 322 318 317 319 314 316 316 316 316 315 315 313 313 313 314 316 319 319 320 320 320 319 320 318 316 319 317 320
302 303 301 300 297 298 301 303 303 300 301 303 305 305 309 311 315 315 318 319 320 318 320 319 317 316 316 315 315 314 313 314 314 313 315 317 318 320 320 320 319 319 317 319 317 322 323
302 302 302 300 298 298 302 302 303 300 300 302 304 306 309 311 315 312 315 317 318 318 318 321 320 317 316 315 314 313 314 314 314 314 315 317 315 316 320 319 318 318 317 316 316 314 317
302 302 302 301 298 301 302 302 302 299 300 301 304 308 309 309 314 312 312 315 316 317 317 320 321 321 317 314 314 314 315 315 315 317 317 317 315 315 318 318 317 318 318 315 314 316 312
303 302 303 301 299 299 301 302 301 299 300 301 304 308 310 309 314 313 312 314 315 316 316 318 320 320 317 314 315 314 315 317 317 316 317 317 316 315 317 317 316 319 316 317 314 310 314
301 302 302 302 300 298 300 300 300 299 298 300 304 309 311 311 312 313 312 314 316 315 315 316 318 320 320 318 316 316 318 320 319 318 318 317 314 316 317 317 316 319 319 316 316 313 314
301 303 302 301 300 299 298 300 299 299 298 299 304 308 310 312 311 313 311 312 315 317 315 314 315 318 320 319 318 319 321 321 319 318 317 317 317 314 314 314 318 318 318 317 316 315 315
304 303 302 301 300 299 298 299 298 298 298 299 304 309 311 311 311 311 312 312 314 316 316 315 314 317 316 318 316 316 319 319 319 318 317 315 315 317 318 316 316 318 316 316 315 316 314
302 303 301 301 300 298 298 298 298 298 297 300 303 307 311 311 311 311 312 311 312 315 315 315 316 317 318 318 318 317 319 318 318 317 316 315 312 313 316 313 313 313 313 314 315 314 315
302 303 301 300 299 298 297 297 298 296 297 302 303 305 310 310 312 311 310 312 311 313 313 314 313 316 317 319 319 320 319 317 320 318 315 311 311 308 311 309 313 315 313 313 313 312 311
303 302 300 300 298 297 297 298 298 296 297 300 304 304 308 307 311 313 311 311 311 312 312 312 316 313 314 320 315 317 311 316 316 315 318 314 309 310 312 312 313 315 312 312 312 314 312
302 300 300 299 297 297 297 297 297 296 296 299 301 305 305 310 311 313 312 312 312 311 311 315 312 317 318 311 309 316 318 317 316 317 313 310 309 313 307 312 313 313 312 313 311 312 312
300 299 299 298 297 297 296 295 295 295 296 297 300 303 305 307 312 314 314 313 312 311 311 315 321 320 320 306 308 311 312 315 316 315 312 309 306 310 304 307 308 308 312 311 312 311 313
299 299 298 296 295 295 295 294 295 297 298 298 301 302 304 304 308 313 316 316 314 312 312 315 320 319 308 315 313 309 309 312 311 313 312 314 311 306 305 306 312 311 312 310 309 312 314
297 296 295 295 295 294 294 294 297 297 298 299 300 302 303 304 307 311 314 315 314 314 313 319 318 319 318 315 311 308 308 304 311 314 314 314 311 311 311 311 310 313 312 313 315 315 314

GFSGBSN_850_thetae_030.txt.gz
Theta_e
299 299 299 299 299 299 302 307 313 315 317 316 315 319 321 322 322 319 308 307 308 309 311 312 310 309 308 308 312 320 316 313 310 310 314 315 316 316 314 312 312 311 312 315 316 324 325
300 299 299 299 299 299 299 299 300 308 313 315 316 316 318 318 320 321 312 307 308 309 311 312 310 308 308 307 320 319 316 312 310 313 314 315 316 316 316 315 312 314 314 320 323 324 325
302 300 300 299 299 299 299 299 299 299 302 310 314 315 315 317 315 321 318 308 307 309 311 312 309 308 308 309 315 320 317 315 312 314 315 315 316 316 316 314 316 317 321 321 322 322 322
306 303 301 301 300 299 299 299 299 299 299 299 308 313 313 315 315 319 321 310 307 308 311 312 309 308 308 309 314 319 318 318 314 314 314 315 316 316 316 316 315 315 316 317 322 323 322
307 306 305 302 305 303 300 299 300 299 299 299 300 309 310 316 316 316 321 312 307 308 311 312 309 308 309 311 312 316 317 318 318 317 317 316 316 316 315 314 312 311 314 315 322 322 321
304 307 306 306 305 304 306 303 299 300 299 299 299 301 311 314 316 315 320 313 308 310 312 312 312 309 308 314 317 318 319 318 318 319 317 317 316 312 311 311 315 316 316 315 317 322 322
301 302 306 307 305 306 306 306 306 303 300 299 299 299 306 315 318 315 319 310 311 315 317 317 309 309 308 313 316 317 318 317 318 318 315 316 313 314 313 314 315 317 317 316 314 315 322
298 300 302 306 307 305 306 306 306 306 305 300 300 299 307 313 319 316 319 308 312 313 315 314 315 315 317 317 318 317 317 317 317 316 316 314 316 314 314 315 317 318 318 317 316 312 318
300 299 298 302 305 306 304 305 306 306 306 306 300 299 307 314 317 314 318 310 312 319 314 313 314 315 315 316 316 317 316 317 316 316 316 315 315 316 318 317 318 317 318 317 317 313 312
301 301 299 298 300 303 306 304 304 305 306 306 304 299 310 314 316 314 315 318 319 317 313 314 317 316 316 316 316 316 317 317 317 316 315 316 315 318 319 318 318 318 317 315 317 313 313
300 301 301 299 298 300 303 305 303 304 305 305 305 299 310 314 316 312 316 316 312 315 309 312 319 317 317 316 316 317 317 317 315 316 315 317 318 318 318 318 317 317 316 317 317 315 316
301 301 301 301 299 298 301 304 304 303 304 305 305 302 309 313 315 312 318 316 317 316 310 311 318 317 314 315 316 315 317 316 316 316 316 315 316 316 316 317 317 317 317 314 314 314 316
302 302 302 301 301 298 298 302 305 304 302 304 303 305 308 312 314 314 315 315 322 317 312 314 319 314 313 313 314 314 313 315 315 316 317 316 317 316 318 318 316 316 314 314 315 317 317
302 302 302 302 301 300 298 299 301 305 302 303 303 305 305 309 312 314 317 318 319 316 314 316 316 313 313 313 314 314 313 314 313 313 313 316 315 318 318 317 316 317 315 314 316 316 316
302 302 302 302 302 302 299 297 301 305 303 302 302 304 304 309 312 315 315 318 316 316 317 315 315 314 314 314 314 314 313 312 312 313 315 315 316 318 319 319 317 318 317 314 317 315 318
302 302 302 302 302 302 300 298 298 301 303 301 302 303 303 308 311 314 315 316 317 315 319 319 315 315 314 313 314 314 312 312 313 313 314 316 317 318 319 319 318 318 315 318 315 321 322
303 303 302 302 302 302 301 299 297 300 303 301 302 304 304 306 312 313 314 314 315 317 318 319 321 319 314 314 313 313 313 314 312 311 313 314 313 314 319 317 316 316 317 314 315 313 316
301 303 303 303 303 302 302 300 297 299 303 301 303 304 305 307 312 311 313 312 313 317 317 317 319 320 319 314 314 313 314 314 313 314 314 315 313 311 316 316 316 315 316 314 315 316 311
299 300 302 303 303 303 302 300 298 300 302 300 302 304 306 307 310 312 312 313 312 315 316 317 318 319 317 315 315 313 313 314 314 314 315 315 314 313 314 314 315 318 315 314 312 309 313
297 298 299 302 303 303 302 300 299 300 301 300 302 304 307 308 309 310 311 313 312 314 315 316 316 318 319 318 313 314 313 318 316 315 316 316 314 314 315 314 314 318 316 315 315 312 313
298 298 297 300 303 303 301 300 299 301 301 301 302 304 308 310 308 309 310 312 312 313 315 315 314 317 318 319 316 317 318 319 317 317 315 313 314 313 313 314 315 316 318 314 315 314 315
298 298 298 298 302 303 301 300 301 301 300 301 301 305 307 310 308 309 311 312 312 312 314 315 315 315 316 318 316 316 319 317 317 316 315 313 315 313 317 316 316 317 315 314 314 314 313
300 299 298 298 301 302 301 299 302 301 300 300 301 304 307 308 309 308 310 311 311 313 313 314 314 314 315 315 316 315 316 316 316 316 315 313 311 312 316 313 314 314 313 314 314 313 314
300 299 299 299 302 302 301 300 300 300 299 299 300 302 306 309 310 309 308 310 311 312 314 314 314 313 312 315 317 317 316 316 317 315 313 309 310 309 310 309 313 315 313 313 312 311 311
300 300 301 301 303 301 300 300 299 299 298 298 299 301 305 307 308 310 309 308 311 311 313 314 313 313 315 316 316 318 312 316 315 313 313 311 308 310 313 312 312 314 311 311 312 312 310
300 301 300 300 302 300 300 300 300 299 299 299 299 300 304 306 308 309 310 308 309 310 310 312 312 312 313 313 310 317 319 317 316 316 311 309 307 311 306 312 314 313 312 311 310 311 309
301 301 302 301 300 300 300 300 299 299 298 298 299 301 302 302 306 310 310 310 309 309 309 310 312 315 314 304 309 312 315 315 317 317 313 310 306 310 302 307 310 310 310 311 312 312 311
300 303 301 300 300 300 300 299 298 298 298 298 299 302 300 304 305 308 311 310 310 310 309 311 315 315 307 313 312 311 308 312 311 313 314 316 313 308 305 306 316 309 311 311 310 310 312
302 301 301 300 300 299 299 298 297 299 298 298 297 298 301 302 306 308 309 312 310 311 310 312 312 316 316 314 309 307 308 303 311 314 311 315 313 313 312 312 311 311 311 312 312 312 313

GFSGBSN_850_thetae_033.txt.gz
Theta_e
301 300 300 299 299 299 299 299 300 305 311 314 316 318 316 315 319 319 320 320 309 307 308 310 311 310 309 309 309 319 316 312 311 310 315 315 315 315 315 313 312 313 314 313 314 321 324
305 304 301 300 300 299 299 299 299 299 299 303 311 316 317 316 318 316 317 321 314 307 308 309 311 310 308 308 313 319 314 311 310 312 314 315 316 316 315 315 313 313 314 320 321 324 324
308 307 306 303 301 301 299 299 299 299 299 298 301 307 314 317 315 315 315 320 318 308 307 309 311 311 308 309 309 320 316 312 311 313 314 314 315 315 315 316 315 317 321 322 323 323 323
305 307 308 307 306 304 303 300 299 299 299 299 299 299 305 312 315 315 316 317 320 310 307 308 311 311 308 309 308 318 318 317 312 313 313 314 315 315 315 315 314 316 317 319 321 323 322
303 304 305 307 307 306 306 306 303 300 300 299 299 299 299 306 311 315 317 315 319 313 307 310 311 309 309 309 309 314 317 318 315 314 315 315 316 315 315 316 316 315 317 317 322 323 322
302 302 303 303 306 307 306 306 306 305 300 300 300 299 299 303 305 315 315 315 318 310 310 312 312 310 310 311 315 316 316 317 318 317 316 316 315 316 315 316 318 318 318 318 320 323 323
301 300 301 302 303 304 307 306 306 306 306 301 300 301 299 300 309 313 315 317 309 311 315 315 311 310 309 311 316 316 318 319 318 317 318 315 317 317 315 315 316 317 318 318 318 316 323
302 302 301 301 300 302 304 308 305 306 306 306 301 300 299 299 311 314 316 316 311 313 314 313 313 315 314 314 315 316 316 318 317 319 316 317 319 316 314 315 317 318 319 319 317 314 320
299 300 302 302 301 300 301 304 307 305 305 306 305 302 300 301 311 313 315 314 314 312 316 316 313 312 313 314 315 316 316 317 316 317 317 318 317 315 316 317 318 318 319 318 318 314 314
301 301 299 300 301 301 299 300 304 306 304 305 305 305 301 307 308 310 313 313 316 317 313 312 313 315 314 315 316 315 316 317 316 318 316 318 316 316 318 318 318 320 317 316 317 316 317
301 301 301 301 300 300 301 299 299 303 306 304 304 305 303 308 312 313 313 315 314 315 313 312 318 316 316 316 315 315 316 316 318 317 317 319 317 318 319 319 317 320 317 318 317 316 319
301 301 301 301 301 301 301 301 298 299 305 304 304 304 305 307 311 312 315 315 316 315 315 310 317 318 317 315 315 314 315 315 316 316 315 317 315 317 318 316 316 316 318 315 316 318 321
301 301 302 301 302 302 301 301 300 298 302 305 303 303 305 305 310 311 316 316 319 319 312 312 318 315 316 314 314 314 316 316 317 318 318 316 317 316 317 319 317 317 318 321 318 322 322
302 302 302 302 302 302 302 301 301 298 300 305 303 303 303 304 309 309 315 316 317 315 315 314 315 314 317 313 314 314 315 316 313 314 315 318 318 318 317 319 320 319 319 322 319 320 318
303 302 302 302 302 302 302 302 301 300 298 301 304 302 302 303 307 311 315 317 316 316 315 314 314 315 314 313 314 315 315 317 315 314 318 317 317 317 318 318 318 318 320 316 320 318 323
303 303 302 303 302 302 302 302 302 301 298 300 303 302 302 303 307 312 314 314 315 314 317 319 313 315 316 314 315 315 315 314 314 314 315 318 318 318 319 319 318 318 317 322 320 322 323
304 303 303 303 303 303 303 303 302 301 298 299 302 302 302 302 305 310 311 313 313 315 316 319 321 319 315 315 314 315 315 313 313 312 313 316 317 316 319 320 320 319 320 317 318 319 322
304 304 303 303 303 303 303 303 302 302 299 299 301 302 302 303 306 309 311 311 312 313 316 318 318 320 321 314 314 315 316 316 313 313 316 317 318 318 318 316 315 316 319 319 323 319 316
302 302 303 302 303 303 303 303 303 301 299 301 300 302 303 303 307 308 309 311 312 314 314 317 318 318 318 316 314 314 314 313 312 314 317 316 316 318 317 316 316 319 317 315 314 315 318
296 299 301 303 302 303 303 303 302 301 299 300 301 303 305 304 305 308 311 310 311 311 313 316 317 317 318 318 315 314 314 315 313 314 314 315 316 318 318 318 317 319 317 316 318 320 320
299 298 297 299 302 303 304 303 302 301 300 301 301 304 305 306 305 308 309 309 311 313 312 314 316 317 318 317 316 315 315 318 316 315 314 317 318 315 314 314 316 318 318 317 318 319 322
300 299 298 297 301 301 304 303 303 301 300 299 301 303 305 307 304 306 308 310 310 311 312 314 314 315 316 318 317 317 319 318 318 316 316 314 317 314 315 315 315 317 316 317 317 315 316
299 300 300 297 297 299 302 303 303 300 300 300 300 302 303 306 307 306 305 309 310 311 311 312 315 315 315 315 317 316 315 316 317 318 316 316 316 316 318 314 316 318 316 316 316 315 317
300 300 300 297 297 298 301 303 302 300 300 300 301 302 304 305 308 307 306 306 309 311 312 311 313 314 313 315 316 316 315 316 315 315 315 313 315 314 317 313 321 319 313 314 317 315 314
300 300 299 299 298 298 299 303 302 300 300 300 300 302 304 305 307 308 307 306 308 310 311 312 313 313 314 313 314 315 316 317 315 313 314 312 313 314 319 318 316 314 313 315 316 317 313
301 300 299 299 298 299 299 301 301 300 301 300 300 302 303 305 306 308 308 307 307 310 310 312 313 313 313 312 312 316 320 319 319 316 311 309 310 319 311 319 321 318 314 311 312 317 313
300 299 300 299 300 299 300 301 301 301 300 300 300 301 303 302 304 307 309 309 308 309 310 310 312 313 312 309 313 316 318 318 321 319 317 314 313 317 312 320 318 313 311 311 318 320 312
300 300 299 301 298 299 302 301 301 301 300 300 299 300 301 302 303 304 308 309 308 308 309 309 312 312 310 312 314 315 314 316 317 316 317 319 318 317 312 317 321 310 309 316 317 312 312
301 300 300 299 300 301 302 301 301 301 300 299 299 299 299 300 302 303 305 308 308 308 308 311 310 310 312 314 311 309 313 310 315 320 311 321 318 319 319 321 316 310 314 313 313 312 311

GFSGBSN_850_thetae_036.txt.gz
Theta_e
309 307 305 305 304 302 300 299 299 299 299 301 305 308 312 314 314 312 318 316 317 320 311 307 308 311 310 312 311 316 317 312 310 312 314 316 317 318 318 318 317 318 319 318 319 319 325
306 308 308 307 307 305 304 300 299 299 299 299 299 299 304 311 314 314 312 314 314 320 316 308 308 309 312 312 309 319 314 310 310 313 314 315 318 318 319 319 319 318 319 324 321 325 327
304 305 306 308 308 307 306 305 302 299 299 299 299 298 299 303 309 313 314 312 311 318 320 311 307 309 311 312 309 319 313 311 310 313 315 314 316 318 318 320 318 318 324 323 325 326 327
303 303 304 304 306 308 307 306 305 304 300 299 299 299 298 298 300 307 309 309 312 316 320 314 308 310 313 310 309 316 316 313 312 313 314 314 315 317 318 318 319 320 322 323 323 324 325
301 302 302 303 304 305 307 307 306 306 305 301 299 300 299 299 299 303 306 306 312 313 318 312 309 311 313 309 308 311 319 317 314 312 313 315 316 318 318 319 320 320 320 321 324 324 326
301 302 302 301 302 303 304 306 307 306 306 304 301 300 300 299 299 301 303 307 311 313 313 311 312 312 311 311 312 310 317 316 316 315 315 316 319 320 319 319 320 320 320 322 325 326 326
301 300 302 302 302 301 302 303 305 307 306 306 305 302 301 300 299 301 303 312 316 314 313 316 315 314 309 312 315 316 315 315 318 319 321 319 320 319 318 318 320 320 320 320 321 322 324
301 301 300 299 302 303 302 300 302 305 307 306 306 305 303 301 299 301 303 315 316 313 315 314 311 314 313 311 316 317 317 319 319 321 321 321 320 319 318 319 320 321 320 321 321 319 321
301 302 302 301 300 300 303 302 300 302 307 306 305 306 305 303 301 306 306 313 313 314 318 316 316 315 314 314 315 317 317 319 320 321 321 321 321 319 319 321 321 322 321 321 321 320 320
301 301 302 303 302 301 300 302 302 300 304 307 305 305 305 303 304 310 311 308 311 316 319 314 314 315 315 315 317 316 317 318 319 321 321 321 320 320 321 321 321 321 321 321 321 321 320
301 301 301 301 301 302 302 301 300 301 299 304 306 304 304 304 311 312 313 312 314 315 313 314 317 316 317 315 315 316 316 318 320 320 321 321 321 321 321 321 321 321 321 321 322 322 322
302 302 301 301 301 301 301 302 301 300 301 300 304 305 304 305 307 311 314 315 316 321 313 313 318 319 318 317 316 316 317 317 318 320 320 320 319 321 321 320 321 321 322 321 322 322 323
302 302 302 302 302 302 302 301 302 301 301 300 301 305 304 304 306 312 313 316 320 318 313 313 319 319 318 317 316 317 318 319 319 320 321 320 320 320 320 321 321 321 322 323 322 323 323
303 303 302 302 302 303 302 302 301 302 301 301 298 301 304 303 306 309 311 318 314 311 313 315 318 319 318 316 316 317 318 319 319 319 320 320 320 320 320 321 321 321 322 323 322 321 320
304 304 303 303 303 303 302 302 302 302 302 301 299 300 304 303 303 308 312 315 310 310 314 313 315 319 319 316 316 318 318 318 319 319 320 320 319 319 320 320 321 322 322 321 324 324 323
304 304 304 303 303 303 303 303 302 302 302 301 299 301 303 303 303 305 310 314 311 311 314 316 315 316 320 318 315 317 318 318 319 319 319 319 319 320 322 321 321 322 321 323 323 323 322
304 304 305 304 304 303 303 303 303 302 302 301 299 301 303 303 303 305 310 313 311 311 315 317 318 315 317 319 316 317 318 316 319 318 319 319 319 322 322 323 322 323 323 322 322 323 322
305 304 303 302 304 304 303 303 303 303 303 301 300 303 303 303 305 305 309 311 310 311 314 317 319 319 317 317 318 317 318 318 317 319 319 319 320 321 320 320 320 321 321 322 323 322 322
303 301 301 300 305 304 304 303 303 303 302 302 301 302 303 302 305 308 309 310 311 311 312 317 318 320 321 320 319 317 316 317 317 319 319 319 320 320 320 319 320 320 320 320 321 321 322
299 298 298 298 300 303 304 304 303 303 302 301 300 303 304 303 304 307 310 309 310 310 312 314 317 318 321 322 319 318 317 316 316 318 318 319 319 320 320 319 319 321 320 320 320 323 322
299 299 299 299 298 300 302 303 304 303 302 301 301 304 305 305 306 307 309 308 309 311 310 313 317 319 320 321 320 320 316 319 316 315 317 320 319 319 318 318 317 318 318 320 320 321 322
298 298 299 300 299 298 302 303 304 303 302 300 301 305 305 306 305 305 306 310 310 309 311 312 316 317 318 319 319 320 320 321 320 319 319 319 319 319 319 318 318 318 318 319 320 320 321
300 300 299 300 300 299 297 302 302 303 301 300 301 303 305 306 307 307 306 309 309 310 310 310 312 315 317 318 317 317 316 316 317 321 320 320 321 320 320 320 319 321 320 319 320 320 321
300 299 301 299 300 299 297 300 304 303 301 300 300 303 305 308 308 307 305 308 309 310 311 310 312 313 314 314 314 314 317 317 317 319 320 321 321 322 321 319 327 320 320 320 320 321 321
300 301 300 300 300 300 298 300 304 303 301 300 301 303 304 308 307 307 306 306 307 308 311 311 310 313 313 314 315 315 318 319 320 320 320 320 321 322 327 322 321 319 318 319 321 321 321
301 301 301 301 300 300 298 298 303 302 300 300 300 303 304 307 307 306 308 306 307 310 311 310 311 314 314 316 316 315 312 315 320 321 315 317 318 325 319 323 326 321 320 318 319 322 320
300 300 300 300 300 299 297 300 303 301 301 300 301 301 303 304 304 305 307 309 306 307 311 311 313 314 314 316 321 319 316 315 316 323 320 319 319 324 324 326 322 320 318 316 321 323 320
301 301 301 300 299 298 298 299 302 301 300 300 300 301 302 304 305 305 307 307 307 307 312 311 314 315 315 316 318 319 322 320 318 318 321 321 324 324 323 327 327 317 315 321 322 320 319
300 300 300 300 298 298 299 299 302 300 300 300 300 301 302 303 305 304 304 306 307 308 309 311 311 312 312 314 317 318 322 317 321 321 318 323 322 324 323 323 322 316 319 318 319 319 317

GFSGBSN_850_thetae_039.txt.gz
Theta_e
304 305 308 309 307 306 305 303 300 300 300 299 299 300 302 304 309 311 313 312 311 313 313 318 316 308 309 317 316 315 317 314 311 312 315 314 316 318 320 319 319 320 321 320 321 322 323
305 305 304 308 309 309 307 307 304 303 300 300 299 299 299 299 302 307 310 310 310 312 311 317 319 309 314 317 315 312 318 312 315 315 317 318 319 319 320 320 320 320 320 323 323 325 327
303 302 303 305 306 307 308 308 307 306 304 300 299 299 299 298 298 300 304 305 308 310 311 315 319 312 313 315 314 318 317 315 316 316 317 317 318 319 320 320 320 320 322 323 324 325 327
303 303 302 302 304 304 305 307 308 307 306 305 301 299 300 299 299 299 299 303 305 307 310 312 318 310 315 314 312 316 318 315 315 316 316 317 317 318 319 320 319 320 323 325 323 324 325
302 303 303 302 303 303 304 304 306 308 307 306 306 302 299 299 299 299 299 301 302 304 309 310 315 311 316 315 312 313 319 317 315 316 316 316 317 319 320 320 321 321 322 325 324 323 326
301 302 303 302 303 303 302 302 304 306 307 307 306 306 302 299 299 299 299 301 304 306 311 311 314 316 315 314 313 312 319 318 318 317 316 317 318 321 320 321 320 322 321 323 328 325 325
301 301 302 301 301 303 303 303 301 302 304 307 306 306 306 302 300 299 299 315 316 319 316 316 317 314 313 313 315 315 316 319 318 317 319 320 322 321 320 320 320 322 321 322 323 325 325
301 301 301 302 302 301 300 303 303 302 301 305 308 306 306 305 301 300 302 313 315 316 314 314 314 315 316 314 317 315 317 318 318 321 320 322 323 321 321 319 319 321 321 321 321 321 322
302 302 302 302 302 302 302 301 300 302 302 302 306 307 306 306 304 300 305 313 316 316 315 313 315 315 314 315 315 316 319 318 320 321 322 323 322 321 320 319 320 321 321 321 321 323 322
302 302 302 302 302 302 302 303 302 300 302 302 304 307 305 305 303 307 312 313 314 317 318 315 318 317 316 315 317 315 317 319 321 321 322 322 322 320 319 320 320 321 321 321 322 322 323
302 302 302 302 302 302 302 301 302 302 302 301 300 304 306 304 309 313 316 316 316 319 314 316 317 317 316 316 316 316 318 318 321 321 322 322 322 321 320 321 321 322 322 322 322 323 323
302 303 303 303 303 302 302 302 301 301 302 300 301 301 304 305 305 310 316 317 318 318 314 315 318 318 319 316 315 317 316 318 319 321 321 322 321 321 321 321 321 321 323 322 323 323 324
303 303 303 303 303 303 303 302 302 302 301 301 300 301 301 305 306 308 311 315 316 313 313 314 316 319 319 319 317 318 318 320 320 321 322 321 322 321 321 322 322 322 322 324 324 325 325
303 303 304 303 303 303 303 303 303 302 301 302 301 301 301 304 306 309 312 315 312 310 312 316 316 319 320 318 318 318 319 319 319 320 322 322 322 321 321 321 322 322 323 325 330 327 324
304 304 304 304 304 304 304 303 303 303 302 302 301 302 303 302 305 308 307 314 314 311 312 313 317 320 320 318 318 318 318 319 319 319 320 322 322 321 321 321 321 323 323 323 324 325 325
303 303 303 304 304 304 304 303 303 303 302 302 302 303 303 303 304 306 308 311 313 310 311 313 315 317 320 320 318 319 319 318 319 319 320 321 322 320 321 321 321 322 324 324 324 325 326
302 302 303 303 304 304 304 304 303 303 303 302 302 304 303 303 305 306 307 311 312 310 310 311 314 315 317 320 319 318 319 319 319 319 319 320 321 321 322 322 322 323 324 323 324 324 325
302 302 302 303 303 304 304 305 304 303 303 302 302 306 303 303 305 306 307 310 309 312 311 312 315 317 316 317 320 318 318 319 318 319 319 320 321 322 323 321 321 322 322 323 327 324 324
302 303 302 302 304 304 305 305 304 304 303 302 302 303 303 304 306 309 307 308 309 310 312 312 314 317 320 318 319 320 318 318 318 319 320 321 322 323 321 322 322 323 324 323 323 324 324
300 299 299 302 305 305 305 303 303 304 303 303 302 304 305 305 305 308 308 310 308 307 310 312 313 315 317 319 320 319 320 319 318 319 319 321 320 321 323 321 321 321 321 321 321 326 324
299 299 299 299 299 300 302 301 301 305 303 303 302 305 304 305 307 309 308 308 308 308 310 311 313 313 315 316 317 320 319 320 318 317 318 321 323 320 320 319 320 320 321 321 321 321 323
298 297 298 298 299 299 299 299 299 305 304 303 301 305 305 306 305 307 308 308 308 308 309 312 312 313 316 317 318 322 320 320 319 318 319 320 322 321 320 319 319 319 319 318 319 319 320
298 298 298 298 299 299 299 300 298 305 303 303 300 304 305 307 307 308 310 309 308 309 309 310 311 313 315 317 318 318 318 318 319 321 320 320 323 322 322 319 320 322 319 319 319 319 320
300 300 300 300 300 299 299 300 299 299 302 302 301 303 306 308 309 309 308 308 308 308 309 309 310 313 314 315 315 315 314 316 317 318 318 322 322 323 324 324 326 320 320 320 320 320 320
301 301 301 301 301 300 300 299 300 299 304 301 302 304 306 310 308 308 307 308 307 306 309 310 309 310 311 315 315 314 314 316 318 318 319 320 323 324 326 325 321 319 319 321 321 320 320
301 301 301 300 301 300 301 300 300 299 304 301 303 303 305 309 309 307 308 308 308 309 310 310 309 311 312 316 315 313 312 313 313 316 315 319 324 327 324 324 325 320 320 320 321 323 320
300 301 301 300 300 300 300 300 300 299 303 302 303 302 305 306 306 307 309 309 306 308 311 311 310 312 314 318 318 313 312 313 313 322 320 321 323 327 326 325 322 320 320 320 323 321 321
300 301 301 302 301 299 300 300 299 300 303 302 302 302 304 306 306 306 307 308 306 308 311 311 313 313 316 318 318 313 318 316 315 314 321 321 323 326 325 327 328 321 321 321 322 321 322
300 302 301 301 300 300 300 300 299 299 300 301 302 303 304 306 306 307 308 308 308 306 308 310 312 313 314 315 316 314 321 322 317 319 316 319 321 325 323 324 322 320 321 320 320 320 322

GFSGBSN_850_thetae_042.txt.gz
Theta_e
305 305 305 305 308 308 309 308 305 303 301 300 299 299 299 299 299 299 301 305 309 309 310 310 310 316 316 318 319 320 316 314 313 310 316 315 316 317 319 320 320 320 320 320 321 322 321
303 303 304 304 304 306 309 309 308 306 304 303 300 299 299 299 299 299 299 301 304 305 308 309 309 313 318 317 317 317 316 314 313 313 316 316 318 320 320 321 320 321 321 320 322 322 323
303 303 303 302 303 304 305 307 308 308 307 306 304 302 299 299 299 299 299 299 300 302 305 306 309 313 317 316 316 316 319 318 315 316 317 318 318 319 319 322 320 319 320 321 323 324 325
304 304 304 304 304 304 303 304 304 306 308 308 307 306 304 299 299 299 299 299 300 301 302 305 309 312 316 314 316 316 318 318 316 316 317 318 318 318 319 320 321 320 320 321 325 325 325
303 303 303 303 304 304 303 303 303 304 305 307 307 306 306 302 300 299 300 300 300 302 303 307 310 316 315 314 316 314 317 318 316 316 317 318 317 318 319 320 320 320 321 322 325 323 326
301 302 303 303 303 303 304 303 303 302 302 305 306 307 306 305 303 300 300 300 302 311 316 315 315 316 315 314 315 315 315 319 317 316 318 318 317 318 320 320 321 321 322 323 326 326 324
303 303 303 303 303 303 302 302 304 304 303 302 304 305 306 306 306 301 300 300 314 320 319 319 318 314 317 316 315 314 314 319 319 318 319 318 318 318 320 321 320 320 322 323 326 326 325
301 302 302 302 303 303 303 302 301 302 303 303 302 303 306 306 306 304 301 310 312 317 317 313 312 313 315 317 316 316 314 320 319 320 319 319 321 321 321 322 321 320 320 322 322 324 322
302 303 303 303 303 303 303 303 302 302 301 302 302 302 305 306 305 304 302 306 314 316 316 311 311 312 313 315 316 317 316 318 320 320 320 320 321 323 322 321 320 319 320 321 323 323 323
303 303 303 302 303 303 303 303 303 303 303 302 300 302 303 306 304 308 308 311 312 314 316 310 311 316 314 315 316 315 317 318 319 319 320 321 322 322 322 321 320 319 320 321 322 323 322
302 303 302 303 302 303 303 303 302 302 302 304 302 301 301 305 308 312 316 316 316 320 308 312 316 317 318 317 317 316 316 319 320 319 321 322 322 322 322 319 319 320 323 323 322 321 324
302 303 302 303 303 303 303 303 303 302 302 302 302 301 300 302 306 307 313 314 316 315 311 313 318 318 318 318 317 317 316 317 319 320 321 321 322 322 322 320 320 322 323 324 323 322 325
302 302 302 303 303 303 303 303 303 303 302 302 302 302 301 303 305 306 308 314 315 311 310 310 317 319 318 319 318 318 318 318 320 320 322 321 321 322 321 321 321 321 322 324 324 326 327
301 301 302 303 303 304 304 303 303 303 303 302 302 302 300 302 304 309 309 314 309 307 310 315 315 316 320 319 319 318 318 318 320 319 320 322 323 321 321 321 322 322 322 325 331 331 328
300 301 302 303 303 304 304 304 304 304 303 303 302 302 302 303 304 306 307 312 310 308 310 311 314 316 318 320 319 318 319 319 319 319 320 322 322 321 321 321 322 323 323 323 328 327 328
301 301 302 303 303 303 304 304 304 304 303 303 303 302 302 303 303 305 308 309 310 308 309 311 312 313 318 321 319 319 319 319 319 320 320 321 323 322 321 321 321 321 323 326 326 329 331
301 301 302 302 303 303 303 304 304 304 304 303 303 303 303 303 304 305 306 309 309 308 308 309 311 312 313 318 321 319 319 319 319 319 319 321 322 323 322 321 321 321 322 325 326 326 329
300 301 301 302 302 303 303 304 304 305 304 303 303 304 304 304 305 305 307 307 308 309 308 311 312 312 312 316 318 321 320 320 319 320 320 320 322 323 322 321 321 321 322 323 328 326 328
300 300 301 301 302 302 303 303 304 304 304 303 303 303 304 304 305 305 307 308 306 309 309 310 311 313 314 316 319 319 320 322 319 321 320 321 321 323 323 323 322 322 321 323 324 326 328
299 300 301 301 303 303 303 303 304 304 305 304 303 304 305 305 304 306 307 309 308 307 309 309 311 312 313 315 318 321 321 321 320 320 318 322 322 322 324 322 323 323 322 324 325 327 326
300 300 301 303 300 301 301 302 303 304 304 304 302 304 305 306 306 308 308 307 308 308 307 309 311 312 313 315 317 318 319 321 320 319 319 322 323 321 322 321 321 323 321 321 323 325 325
299 300 300 300 300 300 299 300 305 304 304 304 300 305 305 306 306 308 308 309 308 309 308 308 311 311 313 314 317 317 320 319 321 321 320 321 322 323 323 322 320 320 321 322 321 321 321
298 298 298 298 299 299 299 299 301 305 304 305 302 303 306 306 308 307 309 310 310 309 309 308 310 311 312 313 314 319 318 317 317 319 321 321 323 323 324 323 321 321 320 320 321 321 320
298 299 299 298 298 299 299 299 299 300 301 305 301 303 305 308 309 308 308 308 309 309 310 309 308 311 312 314 317 317 316 315 316 317 320 321 322 322 324 323 323 320 320 320 320 319 320
300 300 301 300 300 300 299 299 299 299 300 301 300 303 305 308 308 308 307 308 308 308 310 309 309 308 310 315 319 317 316 313 314 315 319 319 323 325 325 323 321 319 320 320 320 320 321
301 301 300 300 301 301 300 300 299 299 299 300 300 302 304 307 309 307 308 307 309 310 310 310 308 309 311 313 313 317 316 315 315 314 316 315 317 321 326 324 324 322 320 319 320 320 321
300 300 301 301 301 301 301 301 300 299 300 300 300 301 305 306 306 308 309 309 308 309 311 310 310 310 312 313 316 316 316 312 313 315 319 318 319 321 325 325 324 321 320 319 321 323 322
301 301 300 300 301 301 301 300 301 300 299 301 299 301 304 306 307 306 308 308 308 309 311 310 311 312 315 313 315 316 317 314 312 313 319 320 320 322 324 325 325 321 321 321 323 321 322
301 300 301 301 301 301 301 301 301 300 300 301 301 302 304 306 306 307 307 307 308 308 309 309 311 311 312 315 314 316 319 319 315 315 314 321 318 320 322 324 317 318 320 321 320 321 322

GFSGBSN_850_thetae_045.txt.gz
Theta_e
300 300 300 300 301 303 305 307 308 308 308 307 303 301 300 299 299 299 299 299 300 301 303 304 306 307 307 316 316 316 319 316 314 314 311 313 314 315 314 315 318 318 317 319 320 320 321
300 299 302 300 301 302 302 302 304 308 308 307 307 304 301 300 299 299 299 299 300 300 300 303 305 306 310 317 313 317 318 316 313 314 310 316 316 315 318 319 317 319 319 319 319 319 322
304 304 303 301 299 300 301 301 302 304 305 306 306 307 305 302 300 299 300 300 300 300 300 302 304 308 310 307 312 317 318 319 315 313 314 316 317 318 319 318 320 320 317 317 317 323 324
301 301 300 302 302 302 303 303 301 302 304 304 306 306 307 306 301 300 299 300 300 300 301 302 304 310 312 306 315 312 316 318 318 315 316 317 318 318 318 318 318 317 317 317 317 322 323
303 302 301 303 303 303 303 304 304 303 302 302 304 306 306 306 305 301 300 300 300 300 303 312 310 313 315 312 312 310 315 316 319 316 316 316 318 317 317 316 316 316 316 316 320 323 323
303 303 303 303 303 302 303 303 303 304 303 302 302 303 305 305 306 305 301 300 301 300 305 317 314 315 312 312 313 315 314 315 319 316 316 317 317 315 313 314 317 318 318 319 322 322 324
302 302 302 302 303 303 303 303 303 302 301 304 303 302 302 304 304 305 302 300 309 317 319 319 317 310 313 314 317 315 314 316 318 317 315 317 315 315 313 315 318 318 318 318 321 322 324
301 302 302 302 302 303 303 303 303 303 302 301 302 302 302 302 305 305 303 302 306 312 314 316 317 319 318 315 316 316 314 315 319 318 316 316 317 316 317 317 318 320 318 317 320 324 323
301 301 302 302 303 303 303 303 304 304 304 303 303 301 302 302 305 305 304 303 301 308 313 312 311 312 309 308 311 313 316 314 319 319 318 317 318 318 318 320 320 319 318 317 319 321 321
300 301 302 302 303 303 303 303 304 304 304 304 304 302 300 302 303 309 308 313 311 313 315 311 309 311 310 311 313 313 316 315 318 319 318 318 318 319 319 321 319 318 317 320 321 321 320
300 301 301 302 302 303 303 303 303 303 303 302 303 304 301 301 306 308 311 316 317 317 303 308 311 311 312 312 315 315 314 315 316 318 317 318 318 319 320 321 320 320 320 321 322 321 319
299 300 301 301 302 302 303 303 303 303 303 303 302 303 303 301 302 305 308 313 316 315 316 310 317 317 317 313 315 316 315 315 316 317 317 317 319 319 319 321 320 318 322 322 322 320 319
299 299 300 301 301 302 302 303 303 304 303 303 302 302 303 301 301 304 307 309 314 314 307 307 318 318 317 318 317 315 315 314 314 318 319 318 318 319 319 320 320 318 320 322 321 320 320
298 299 300 301 301 302 302 303 303 304 304 303 303 302 302 302 301 303 308 310 313 306 308 310 311 313 318 317 317 318 317 316 314 316 317 319 319 319 319 319 319 318 319 321 324 324 327
298 299 300 301 300 300 302 303 304 304 304 304 303 303 302 303 301 302 306 311 308 307 307 306 307 308 317 318 318 318 317 316 316 315 317 318 319 319 319 320 319 321 320 320 327 326 325
299 299 299 299 300 301 302 302 303 304 304 304 304 303 303 303 302 302 307 309 309 309 307 307 307 310 312 317 319 318 317 317 317 316 317 318 320 320 320 319 318 319 321 323 326 328 329
298 298 298 299 300 301 302 302 303 304 304 304 304 304 303 303 303 303 306 307 307 307 308 309 307 308 309 310 311 316 319 318 317 317 317 317 318 320 321 321 320 319 319 320 325 326 325
297 298 298 299 300 300 301 302 303 303 304 304 304 304 303 303 304 304 305 306 307 307 307 308 309 309 309 310 310 312 320 320 318 317 318 317 318 318 319 320 320 319 319 320 323 325 324
297 298 298 299 300 300 301 302 302 303 304 304 304 302 303 303 304 304 304 305 305 306 307 308 309 309 309 310 311 316 320 320 320 320 317 317 318 318 321 319 320 319 319 319 320 322 324
297 298 298 299 299 300 300 301 302 303 304 304 302 303 304 304 303 304 304 305 305 306 307 307 307 308 308 309 311 316 319 320 318 320 318 318 318 318 319 320 320 321 321 320 319 320 320
298 298 299 299 299 300 301 301 302 302 303 304 302 302 304 306 304 304 304 305 306 306 306 306 306 307 308 309 310 312 318 318 317 317 320 320 319 318 318 320 320 322 322 320 320 320 324
298 298 299 300 301 301 301 302 302 302 303 305 300 304 304 304 305 304 305 305 305 307 306 307 307 307 308 308 309 311 317 319 319 319 319 319 319 319 319 319 319 319 320 320 320 321 323
298 298 299 299 299 300 302 302 301 303 303 304 303 303 304 304 305 306 305 305 306 306 306 307 307 307 307 309 309 313 318 317 318 318 317 318 319 319 319 319 320 319 319 319 320 320 320
298 299 298 298 298 298 299 300 300 300 301 302 304 303 303 307 305 306 305 305 305 307 307 307 308 307 307 308 312 316 315 315 316 316 316 317 318 319 316 318 323 319 318 318 318 318 317
297 297 298 298 299 299 299 299 299 300 299 299 302 303 304 305 305 305 305 305 306 306 308 308 308 309 308 308 314 314 310 313 314 315 316 314 315 318 320 320 319 320 318 317 318 318 318
300 300 300 300 300 300 300 299 299 299 299 299 299 302 304 304 306 305 306 306 306 306 306 306 307 308 308 307 310 311 312 314 315 314 314 314 312 313 317 320 321 319 318 318 318 318 318
301 301 301 301 301 301 301 301 300 299 299 300 299 300 302 303 305 306 306 306 306 306 306 307 308 308 309 307 308 312 311 314 315 313 315 313 311 315 316 320 317 319 318 318 319 317 318
300 300 300 300 300 300 300 300 301 300 299 299 301 300 300 300 304 307 306 307 307 307 307 307 309 309 307 308 308 309 307 312 313 313 316 316 316 316 318 320 321 317 320 318 317 319 320
300 300 300 301 300 301 301 301 300 301 300 299 301 301 301 302 304 305 307 308 307 307 308 307 308 308 309 309 308 309 307 310 311 312 311 316 315 317 318 318 317 316 317 316 316 316 320

GFSGBSN_850_thetae_048.txt.gz
Theta_e
304 303 301 300 300 301 304 305 304 301 306 307 306 306 304 301 300 300 299 300 299 299 299 300 301 303 304 311 309 312 313 318 317 316 314 311 314 314 313 313 315 315 315 318 319 320 326
304 304 305 304 301 300 300 300 302 301 302 304 305 306 304 302 302 300 300 299 300 299 299 299 301 302 307 314 308 315 317 318 316 314 314 311 312 314 314 317 317 318 318 317 318 318 324
301 302 301 303 303 303 303 301 301 303 303 304 303 304 305 304 303 302 300 300 300 300 299 299 301 303 310 306 306 315 319 318 319 317 314 311 314 316 317 316 318 318 317 315 317 317 322
303 303 302 302 304 303 304 302 303 303 303 304 303 302 304 305 305 303 301 301 300 300 299 299 305 307 309 305 305 308 312 316 317 319 315 314 316 316 317 317 317 316 315 316 316 317 323
303 303 302 303 304 303 303 303 304 301 302 304 303 302 301 303 305 303 300 300 301 300 300 299 306 314 311 309 312 311 311 311 317 318 315 316 316 317 317 315 314 315 315 316 316 318 322
303 303 303 303 302 303 303 303 303 303 303 302 302 304 303 302 301 303 300 300 301 300 300 303 315 314 311 309 315 316 314 313 315 318 318 317 316 314 311 312 315 315 316 316 316 321 323
301 301 303 302 302 302 302 302 303 303 304 303 302 301 303 302 301 302 303 301 304 316 310 317 317 313 310 313 315 316 315 313 314 317 314 315 314 315 313 312 315 316 316 316 315 319 324
301 299 301 301 302 302 302 303 303 303 304 304 304 302 302 301 301 302 304 304 305 307 308 308 313 316 315 316 319 316 315 314 314 316 313 314 315 315 314 314 315 315 316 317 315 320 322
300 300 299 299 300 302 302 302 303 303 303 304 305 304 303 301 301 302 306 306 311 310 310 310 308 311 312 311 317 316 313 314 316 317 315 315 316 316 316 316 316 316 317 317 316 320 320
299 299 299 300 301 301 301 302 303 304 304 304 304 304 304 301 300 303 309 310 310 311 312 310 311 308 309 310 310 307 311 314 314 318 317 315 315 316 317 317 316 317 318 317 320 319 319
299 299 299 299 300 300 301 301 302 304 303 303 303 303 304 303 301 304 310 310 313 313 297 304 309 309 310 310 310 311 308 313 313 317 317 318 317 317 318 317 317 319 318 318 319 319 318
298 298 298 298 299 299 300 300 302 303 303 303 303 303 303 304 302 301 302 307 313 315 310 311 312 311 310 310 313 315 312 313 315 314 316 316 317 316 316 317 318 319 320 320 320 319 320
297 297 297 298 299 299 299 300 301 302 303 304 303 303 302 303 303 302 303 309 312 309 306 306 315 317 314 310 311 314 313 313 313 315 315 315 316 316 317 317 317 317 318 320 321 320 321
295 296 297 298 298 299 299 300 302 302 303 304 304 303 303 303 303 302 303 310 311 307 306 308 308 309 317 315 313 314 314 313 312 314 314 316 318 317 317 317 318 317 317 318 321 323 322
296 296 297 297 298 299 299 300 301 302 303 304 304 304 303 303 303 301 303 310 311 308 307 306 306 306 306 317 316 316 315 315 313 312 316 317 317 317 317 317 317 318 318 317 323 324 323
296 295 296 297 298 299 299 298 300 301 303 304 304 304 303 303 303 301 304 307 308 307 308 308 306 307 309 308 313 315 316 315 316 314 313 316 318 317 317 317 316 318 318 321 322 325 324
294 295 296 297 298 299 298 299 301 301 302 304 305 304 303 303 302 302 304 304 306 306 307 309 309 307 307 308 310 311 312 315 315 315 314 314 316 317 317 318 318 318 318 320 322 322 323
294 295 296 297 297 298 298 298 300 301 302 303 305 304 303 303 303 303 302 304 305 305 306 306 308 309 309 309 309 310 312 314 319 319 315 314 315 316 316 317 318 317 318 319 322 324 321
294 295 297 297 297 298 299 299 300 301 302 303 304 302 303 303 304 304 303 303 304 305 306 307 308 307 307 308 309 311 313 315 317 319 318 319 316 316 317 317 317 318 318 318 319 319 321
294 295 297 297 297 298 298 299 300 300 301 302 300 303 302 303 303 302 303 303 303 304 304 304 305 306 306 308 308 308 309 313 317 318 319 319 318 316 318 318 318 319 320 318 318 317 318
295 296 297 297 297 298 299 299 300 300 301 302 300 302 304 305 303 303 303 304 304 303 305 305 306 305 306 306 308 307 309 315 317 318 319 321 321 318 317 317 318 318 319 319 319 318 319
296 296 297 297 297 298 298 299 300 300 300 301 300 302 303 303 304 304 303 304 304 304 305 305 305 306 305 306 306 307 307 309 317 319 318 318 321 318 317 317 317 318 319 319 319 319 318
296 297 297 297 298 298 299 299 300 300 300 301 302 302 304 304 304 305 304 303 304 304 304 305 305 305 306 306 307 309 311 311 316 318 318 318 318 318 317 317 318 317 318 318 318 318 320
297 298 298 298 298 298 299 300 301 301 300 302 302 302 303 305 303 304 305 304 304 305 304 305 305 305 306 307 307 313 315 315 316 316 316 316 315 317 316 315 321 318 317 317 317 317 316
298 298 298 298 299 299 300 299 299 301 301 301 303 303 303 305 304 304 304 305 304 304 305 305 305 305 306 307 307 311 307 311 312 314 316 315 313 314 317 319 318 317 318 317 317 318 316
297 297 298 298 297 297 298 298 298 299 301 301 302 301 302 304 305 304 304 304 304 304 304 304 305 307 307 305 307 308 310 311 313 314 315 312 312 314 315 317 321 317 316 317 316 316 316
300 301 301 300 301 300 299 299 299 299 299 300 300 300 300 301 303 304 304 305 304 304 304 304 305 305 306 303 305 305 307 312 312 312 314 311 310 314 314 316 317 316 316 317 319 316 316
301 301 301 302 301 301 301 300 300 299 299 299 301 300 300 300 302 304 305 305 305 305 305 305 305 305 304 305 305 305 303 310 310 312 312 312 313 313 314 317 317 317 316 318 317 316 317
300 301 300 300 300 300 301 301 301 301 300 299 300 300 299 299 301 304 306 306 305 305 305 306 306 306 307 306 304 305 305 301 307 310 310 313 313 313 316 314 316 316 314 316 317 317 318

GFSGBSN_850_thetae_051.txt.gz
Theta_e
305 305 305 306 305 304 301 302 303 302 303 304 308 307 301 303 303 301 301 301 300 299 299 299 299 300 302 307 305 313 317 314 316 317 317 314 313 313 312 312 314 312 315 317 318 317 321
302 303 303 303 303 304 304 303 303 303 304 302 301 301 301 301 301 301 301 300 301 300 299 299 299 300 304 311 306 307 309 309 313 317 315 314 312 314 314 312 316 316 317 316 317 320 326
303 303 302 303 303 303 304 304 302 300 301 301 303 301 300 300 300 301 301 301 300 301 300 299 299 301 307 303 305 306 313 316 317 317 315 314 312 314 315 315 317 317 315 313 314 316 322
303 303 303 302 303 303 303 303 303 302 301 299 300 303 304 303 300 301 301 300 299 300 301 300 299 304 307 304 305 305 307 317 318 317 316 315 312 315 315 317 315 315 314 315 315 316 320
302 302 303 303 302 302 303 303 303 303 303 302 301 300 300 304 303 300 299 300 300 300 300 300 300 306 309 307 308 313 312 307 317 314 317 317 315 315 315 313 313 312 312 315 315 315 320
301 302 302 303 303 302 302 301 301 302 302 302 304 303 302 300 301 301 299 300 301 302 302 301 309 309 305 308 311 315 315 315 310 314 316 317 316 312 310 312 314 313 314 315 315 315 321
300 301 301 301 302 302 302 302 302 303 304 303 303 304 304 303 301 300 299 301 303 312 308 309 312 308 310 314 313 316 316 315 313 315 315 314 312 313 313 312 313 314 315 314 313 314 319
299 300 300 300 298 300 299 301 302 302 302 303 303 304 304 304 304 302 300 304 305 306 307 307 307 310 310 311 315 314 316 314 313 313 313 313 314 313 313 313 313 314 314 314 314 314 319
298 299 300 299 300 301 300 301 301 301 302 303 304 304 304 304 304 303 301 307 307 306 309 311 305 304 305 309 314 311 314 313 312 313 313 315 315 315 314 314 315 314 314 314 315 315 319
298 299 298 299 299 299 299 300 300 301 302 303 303 304 304 304 304 302 304 308 308 307 308 307 310 306 307 310 313 308 311 314 312 314 315 314 315 314 315 315 314 315 314 316 316 316 317
297 298 298 298 298 298 298 299 299 300 301 302 303 303 303 303 304 303 303 305 305 310 300 304 309 308 308 309 309 309 307 312 311 316 316 317 315 314 315 316 315 315 316 316 317 316 317
297 297 297 298 297 297 298 298 299 300 300 302 303 303 303 303 303 303 303 302 308 313 309 307 309 311 310 309 309 310 310 309 312 313 315 316 316 314 315 315 315 316 317 317 317 316 319
297 297 297 297 296 297 297 298 298 299 300 302 303 304 303 303 302 303 302 304 315 311 305 305 308 311 311 310 309 312 310 312 312 314 314 314 315 315 315 316 316 316 317 317 318 319 321
296 296 297 295 296 296 297 298 298 299 300 302 303 304 304 303 303 302 302 307 314 308 306 306 306 306 315 310 310 312 312 309 310 313 312 314 315 314 314 315 316 315 316 317 320 320 319
296 296 297 296 296 296 296 298 298 299 300 301 303 304 304 304 303 302 302 307 311 309 307 308 307 307 307 311 315 313 313 312 310 310 315 314 314 315 315 315 315 316 316 315 320 321 322
296 297 296 295 295 296 296 297 298 299 299 301 302 304 304 303 303 302 302 304 308 308 307 308 306 307 308 307 311 311 315 315 314 311 312 314 317 316 315 315 315 316 316 319 319 323 325
296 295 295 294 295 295 296 297 298 299 299 301 302 304 304 304 303 302 303 302 304 305 305 307 309 308 308 308 308 309 310 315 315 316 311 312 314 314 315 316 316 315 316 319 319 318 319
295 294 294 294 294 295 296 297 298 299 299 301 302 304 304 304 303 303 302 302 303 304 305 306 306 308 308 307 308 309 310 313 317 318 317 313 313 315 315 314 316 315 316 317 319 322 319
294 294 294 293 294 295 296 297 298 298 298 301 302 301 303 304 304 303 303 302 302 305 305 306 307 306 306 306 306 308 310 312 312 318 318 318 316 314 316 314 314 313 315 316 318 318 320
293 294 294 293 294 295 296 297 298 298 299 300 300 302 301 303 303 303 303 304 303 302 303 304 305 304 306 306 307 307 308 309 308 318 318 317 319 317 317 316 315 318 316 316 317 317 317
293 293 294 293 294 295 297 297 298 299 299 300 300 300 302 303 303 303 303 304 304 303 303 304 304 304 304 305 305 307 308 309 312 318 319 318 320 319 319 319 318 315 316 317 317 317 318
296 296 295 294 295 296 297 297 298 299 299 300 299 301 303 303 303 303 304 304 303 304 304 304 304 305 305 304 305 305 305 306 309 314 317 317 319 318 318 318 317 316 316 316 316 317 316
298 298 297 295 295 296 297 297 298 299 299 300 300 301 303 304 304 303 303 303 304 304 304 303 304 304 304 304 305 305 306 307 307 310 314 317 315 314 317 316 317 316 316 316 316 317 318
298 298 298 296 296 297 297 298 298 299 299 299 300 301 303 304 304 304 304 303 303 304 304 304 304 303 304 305 305 306 308 310 313 314 314 315 314 313 315 313 321 316 312 315 316 317 316
297 297 297 297 297 298 298 298 298 298 299 299 300 302 302 303 304 304 304 304 303 303 304 303 304 305 304 305 305 306 305 310 310 313 314 312 311 311 311 315 314 312 316 314 317 317 315
297 297 298 298 298 298 299 299 299 299 299 300 300 301 302 304 304 304 304 304 303 303 302 303 304 305 305 304 306 308 308 309 312 314 313 311 311 308 313 315 314 309 312 314 316 319 316
299 298 299 299 298 298 297 298 299 300 300 300 302 301 302 303 303 304 304 303 304 303 302 303 303 303 304 302 304 306 307 308 310 312 313 310 311 314 312 315 313 312 313 316 318 316 316
300 300 300 300 300 300 300 299 298 298 299 299 299 301 301 300 302 303 304 304 304 303 302 303 305 304 302 302 304 304 301 306 309 310 311 310 312 313 314 314 313 315 315 315 314 313 314
300 300 300 300 301 301 301 301 300 298 298 298 299 299 299 300 302 302 303 304 304 304 304 304 305 305 304 304 302 302 301 298 306 308 310 311 309 310 311 312 311 316 313 313 313 313 314

GFSGBSN_850_thetae_054.txt.gz
Theta_e
302 302 303 304 304 303 303 304 305 303 302 303 302 302 302 301 302 302 303 304 303 300 300 300 299 299 299 304 304 310 317 316 316 316 316 316 312 314 310 310 311 310 312 314 316 317 317
304 303 302 301 302 303 303 303 303 303 302 301 301 301 301 301 300 300 301 302 305 302 300 300 300 299 300 308 304 305 305 310 309 312 317 316 312 313 312 312 312 315 315 315 315 316 319
303 303 303 302 303 303 302 302 302 302 301 302 302 301 302 301 301 299 299 301 303 306 300 299 301 300 301 301 303 303 307 312 312 313 317 315 313 314 314 314 316 316 315 312 313 314 322
302 302 303 302 302 302 302 302 303 303 302 302 302 301 302 302 299 298 299 299 301 302 301 300 300 301 304 302 303 303 304 310 316 316 317 315 313 311 314 315 314 314 312 314 314 317 318
301 302 302 302 302 302 301 302 301 300 301 303 303 302 303 303 303 300 299 298 299 301 301 301 300 302 304 303 305 310 310 305 317 317 315 316 314 314 314 313 313 310 312 312 313 313 318
301 301 301 301 302 302 302 302 303 303 303 303 303 303 303 304 304 304 303 300 302 310 305 301 307 307 302 302 309 315 315 316 310 313 313 315 315 310 309 311 314 313 313 312 313 315 319
300 300 300 300 301 300 301 301 300 300 302 302 302 303 303 304 304 304 304 300 303 306 306 309 309 304 306 310 314 315 316 315 312 314 313 314 312 314 312 312 311 311 313 314 311 312 314
299 299 299 299 300 300 301 300 300 300 302 301 302 303 304 304 304 304 303 305 305 304 306 305 305 307 309 313 312 309 310 314 312 312 313 312 314 313 313 312 313 313 313 312 311 312 313
298 299 298 299 299 299 299 299 299 300 300 300 301 303 303 304 303 303 302 303 306 303 307 308 307 305 305 308 309 307 312 313 312 312 314 315 314 313 314 313 313 312 312 313 313 312 314
297 298 297 298 298 298 299 299 298 298 299 300 301 302 303 303 302 303 305 306 304 303 309 307 310 308 306 306 311 306 309 313 312 312 312 314 314 313 313 314 313 314 312 313 314 314 316
298 298 297 297 298 297 298 298 297 297 298 299 300 302 303 303 303 303 303 303 302 308 302 303 309 307 307 307 307 309 308 312 311 313 314 315 314 314 314 314 313 314 313 314 314 314 315
297 297 297 297 297 297 297 297 296 297 298 299 299 302 303 303 303 303 302 302 304 313 312 306 308 310 311 310 309 310 311 311 313 313 314 314 315 313 315 314 313 314 315 315 315 314 316
296 296 297 296 297 297 296 296 296 297 298 298 299 301 303 303 303 303 302 302 310 311 307 304 305 308 310 310 309 309 309 309 309 312 312 313 314 314 314 315 314 314 314 316 317 319 319
296 296 296 296 296 296 296 296 296 297 298 298 299 301 302 304 304 303 302 304 308 309 308 307 306 306 308 309 309 309 307 306 308 312 312 313 313 314 313 315 315 314 314 316 320 319 317
296 296 295 296 296 296 296 296 296 297 297 298 299 301 302 303 304 303 302 303 306 308 307 307 306 306 308 308 311 312 309 307 308 312 314 314 314 313 313 314 315 315 315 314 317 319 320
295 295 295 296 296 296 295 295 296 296 296 298 299 299 301 303 304 303 303 303 305 308 305 306 307 308 308 308 309 309 314 314 312 309 312 314 315 315 315 314 313 314 314 318 316 321 323
294 294 295 296 295 295 294 294 295 296 297 299 299 300 301 303 303 302 304 303 302 302 302 306 307 308 308 307 308 308 309 314 313 317 311 311 313 314 314 315 314 314 315 317 316 315 318
294 294 294 295 295 295 294 294 295 296 297 299 299 301 302 304 303 300 303 303 302 302 302 306 306 306 307 306 306 308 310 313 307 315 316 315 312 312 312 312 314 314 314 316 317 318 316
294 294 294 295 294 294 294 293 295 296 297 299 300 301 302 304 304 304 304 303 302 302 304 305 306 305 305 305 304 307 309 310 308 315 318 317 317 314 315 314 313 313 312 314 316 314 316
294 294 294 295 294 294 294 293 295 296 297 298 299 301 301 303 303 303 304 303 303 302 301 303 304 304 305 305 306 307 307 308 308 314 318 316 318 318 318 318 318 318 316 313 314 315 315
294 293 293 293 293 292 293 293 294 295 297 298 299 299 301 303 302 303 303 304 303 303 302 303 303 304 304 304 304 305 306 307 306 310 316 316 316 319 319 318 318 316 316 315 315 314 316
293 294 295 295 295 295 295 292 294 295 297 298 298 300 302 302 303 304 303 303 304 303 303 303 303 304 303 304 304 304 304 304 306 309 313 315 316 315 316 317 313 315 316 314 314 314 315
295 296 296 297 298 298 297 295 294 295 297 299 299 299 302 303 304 304 304 304 303 303 303 303 303 303 303 303 303 304 304 304 304 306 307 314 314 312 314 313 314 315 313 311 313 314 315
296 296 297 298 298 298 298 297 295 295 297 298 299 299 301 303 303 304 304 303 304 303 303 304 303 302 303 304 304 304 304 304 304 306 309 314 313 310 313 311 314 312 311 314 313 313 310
297 297 297 298 298 298 298 298 296 296 297 298 298 300 301 302 303 304 304 303 303 303 304 303 303 303 303 304 305 305 303 309 308 308 310 312 311 309 309 311 312 311 314 315 313 312 309
297 297 298 298 298 298 298 297 297 297 298 298 298 299 301 302 302 304 304 303 303 303 303 303 303 303 303 303 306 308 307 308 310 311 310 309 309 310 311 310 310 307 309 313 313 312 314
298 298 298 298 299 298 298 298 298 298 298 298 299 298 301 300 302 303 304 304 303 303 302 302 303 303 304 303 307 308 309 306 308 311 312 310 312 314 312 313 309 309 312 314 315 308 312
298 299 300 299 299 299 298 298 298 299 299 299 298 299 299 300 302 302 303 304 303 303 302 302 304 302 300 303 304 304 301 305 306 308 310 310 310 308 312 314 310 312 314 314 312 313 313
300 300 300 301 299 300 300 299 298 298 299 299 299 299 300 300 301 302 304 303 304 303 303 304 304 302 302 301 299 301 301 298 305 307 308 309 307 308 309 309 309 315 314 313 313 313 313

GFSGBSN_850_thetae_057.txt.gz
Theta_e
303 302 302 301 301 302 303 303 303 303 302 301 300 300 299 299 299 300 300 300 300 301 302 304 304 300 300 301 301 304 311 317 318 314 316 313 314 313 314 312 310 312 313 312 314 315 314
301 302 302 303 303 303 303 303 303 303 304 302 301 299 299 299 299 298 299 299 299 299 300 302 305 303 300 306 303 304 305 308 314 316 316 314 312 313 312 312 313 313 312 315 316 315 316
302 301 301 302 302 302 302 302 302 302 303 302 300 300 300 301 302 301 299 298 298 299 299 301 303 302 301 301 302 302 302 304 308 308 309 315 312 313 312 314 313 315 316 315 315 315 318
301 301 301 301 301 301 302 302 301 302 299 301 302 303 302 302 302 303 303 300 299 299 299 300 301 302 300 302 302 303 302 303 310 314 312 314 313 312 312 314 314 316 314 316 315 318 318
301 301 301 301 301 301 301 302 302 303 303 303 302 302 302 302 302 303 303 303 301 299 301 304 303 301 301 301 302 307 308 304 304 314 314 314 312 312 313 315 316 314 316 315 315 315 320
300 300 300 301 300 300 301 299 301 301 300 301 301 302 301 302 303 303 303 303 301 308 307 303 305 305 303 302 306 314 314 315 306 314 314 313 313 314 313 315 315 316 315 314 316 318 320
300 300 300 300 299 300 301 300 300 300 301 300 302 301 302 303 303 303 303 303 302 304 303 307 308 306 304 308 307 314 316 315 311 310 315 314 316 316 314 316 314 314 314 315 314 314 315
300 299 299 299 299 299 300 299 300 300 300 300 300 299 301 303 303 303 303 305 304 303 304 304 304 305 305 311 310 314 313 313 312 311 313 314 317 316 314 314 315 314 315 316 315 313 314
298 298 298 298 298 299 299 299 299 299 298 299 299 299 301 303 303 303 304 302 304 302 305 307 307 306 306 306 307 307 309 314 312 313 314 316 315 315 314 314 315 316 316 316 316 314 315
298 297 298 298 298 297 298 298 298 298 297 297 298 298 300 303 303 303 303 303 303 302 309 307 309 308 307 306 308 306 306 310 312 313 314 315 314 314 314 315 315 316 314 315 314 315 316
298 298 297 298 297 298 297 297 298 298 296 297 298 298 300 302 303 303 303 302 302 305 305 305 308 306 307 306 306 309 307 308 313 312 314 315 315 314 314 315 314 316 315 315 315 316 317
297 297 296 297 297 297 296 297 297 296 296 297 297 298 299 302 303 303 303 303 303 310 309 307 308 310 309 309 308 310 309 310 310 314 315 313 314 315 315 314 314 315 315 316 316 317 320
296 296 296 296 296 297 296 297 295 296 296 297 298 298 299 301 303 302 303 302 308 308 307 307 307 307 306 307 310 309 310 311 312 314 316 315 315 314 314 315 314 315 317 318 320 322 322
296 295 296 296 296 296 296 296 295 297 296 297 297 298 299 301 302 302 303 304 306 306 309 307 307 307 306 309 310 309 309 310 310 311 313 315 315 316 315 316 316 316 317 320 322 322 321
295 295 295 296 296 295 296 296 296 296 295 297 297 298 299 300 302 303 302 304 305 305 306 306 307 307 308 308 308 311 309 308 308 310 314 314 314 313 314 315 317 316 317 317 319 320 322
295 294 295 295 295 295 296 296 296 295 295 296 297 298 298 299 301 303 303 304 303 305 304 305 307 308 308 308 308 309 313 308 311 309 312 315 316 315 314 314 315 317 316 319 318 320 322
294 294 294 294 294 296 296 295 295 294 295 295 297 298 298 300 301 302 304 304 303 302 302 304 306 307 307 307 306 307 312 309 308 313 311 313 314 314 315 315 316 316 317 318 318 319 322
293 293 293 294 294 295 295 295 295 293 295 296 297 299 299 301 303 302 304 303 302 302 302 304 305 306 306 306 306 305 308 311 308 313 317 316 313 314 314 313 314 315 316 318 320 319 319
294 294 293 293 294 294 295 295 294 294 295 297 298 298 299 301 302 302 304 303 302 302 303 304 306 305 305 306 305 306 308 308 307 309 319 318 318 317 316 315 314 315 314 316 317 316 319
292 292 293 293 293 293 294 295 294 294 295 296 298 300 299 301 301 302 304 304 303 301 302 303 304 304 305 305 306 306 307 307 307 307 316 316 318 318 319 318 319 320 319 318 316 318 317
293 294 293 293 293 293 294 294 293 294 294 296 298 299 300 301 301 302 303 303 303 303 302 302 302 303 304 305 305 305 306 307 305 308 314 317 317 317 319 318 318 316 317 317 317 316 317
292 293 292 292 292 293 293 294 295 292 293 295 298 299 299 301 301 303 304 304 304 303 303 302 303 304 304 304 304 304 305 304 304 307 308 308 318 316 315 315 315 314 315 312 315 315 315
291 292 292 293 294 294 295 296 295 295 292 295 296 298 300 301 301 303 303 304 304 304 303 303 303 303 303 303 303 303 303 303 304 304 305 308 314 314 313 314 313 313 315 313 315 314 315
292 293 294 294 295 296 297 297 298 296 293 294 297 298 299 300 302 302 303 303 303 304 304 303 303 303 303 303 304 304 303 303 303 304 305 307 312 311 314 312 311 311 313 313 316 315 312
294 295 295 296 296 297 297 297 298 298 297 293 295 298 299 300 300 303 303 303 303 303 303 303 303 303 303 303 305 306 306 308 307 306 307 308 311 313 314 314 312 311 311 315 315 312 313
295 296 296 296 297 297 297 298 298 298 299 294 295 296 299 300 300 300 303 303 304 304 304 303 303 302 303 304 306 307 308 308 310 311 310 310 311 314 312 314 313 310 309 313 312 311 314
297 297 297 297 297 297 298 298 298 299 299 296 296 296 298 299 300 301 303 304 303 303 303 303 302 302 303 305 306 306 308 306 308 310 308 311 311 313 313 314 313 310 310 312 312 311 312
298 298 298 298 298 298 298 298 298 299 298 297 297 298 298 299 300 301 302 303 303 303 303 302 303 302 304 306 306 306 307 307 307 310 310 310 311 312 313 313 313 309 314 315 313 312 312
298 298 299 299 299 299 299 299 299 298 298 298 298 298 298 298 300 301 302 302 302 303 303 302 303 302 303 304 304 305 305 304 307 309 308 312 311 312 312 312 309 312 312 309 309 310 311

GFSGBSN_850_thetae_060.txt.gz
Theta_e
301 302 303 303 304 304 304 303 303 302 302 303 302 299 299 299 299 299 299 299 299 299 299 299 302 303 305 306 304 303 303 304 315 314 313 315 315 315 316 316 316 317 317 317 317 317 317
302 303 301 302 302 302 302 302 301 300 301 302 300 299 301 301 300 300 300 299 299 299 299 299 299 300 307 308 304 306 302 303 309 315 315 314 315 315 315 316 316 316 317 317 317 318 318
302 302 302 301 301 301 302 302 300 301 302 301 302 303 303 302 302 301 300 299 299 300 300 299 299 300 307 308 308 306 304 302 302 310 314 316 315 314 314 316 315 316 317 318 318 318 319
302 301 301 301 300 301 301 301 302 303 302 303 302 302 302 302 301 301 301 300 300 300 300 299 300 305 307 308 305 310 307 304 302 305 311 312 314 314 314 315 316 317 317 318 319 319 319
300 301 301 300 301 301 301 301 300 301 302 301 300 300 302 301 301 301 301 300 302 301 303 303 305 307 308 306 303 308 309 310 307 303 311 313 313 315 315 316 317 318 318 318 319 319 321
300 300 300 300 300 300 300 300 300 301 300 300 300 300 301 300 301 302 302 302 302 304 307 306 308 307 307 306 306 311 313 315 309 308 313 314 315 316 317 317 318 318 319 318 319 319 319
300 300 300 300 300 299 299 300 300 301 301 301 300 300 299 300 301 302 303 306 305 307 304 305 307 308 308 311 307 308 310 314 311 310 315 316 317 317 316 318 317 317 317 318 318 318 319
300 298 299 300 299 299 300 299 300 300 300 300 299 299 298 298 302 302 305 306 303 303 304 305 306 306 306 307 309 309 313 312 314 313 315 318 319 317 317 317 317 316 317 317 318 318 317
299 299 299 298 298 298 298 298 298 299 299 298 297 297 298 299 302 303 304 305 304 302 306 306 308 308 307 306 307 309 312 314 314 316 312 318 316 317 317 316 317 317 316 317 317 317 317
297 298 298 298 298 299 298 298 298 297 298 298 296 297 298 299 304 303 305 304 303 303 309 308 309 309 308 307 307 306 308 312 311 313 315 313 314 316 318 317 316 317 316 317 318 318 317
297 297 298 298 297 298 298 298 296 297 298 297 296 297 298 299 302 305 304 303 302 306 309 308 309 308 308 308 306 308 306 307 308 310 315 315 314 314 316 317 317 317 317 317 318 319 318
297 296 297 298 297 297 297 297 296 297 296 295 296 297 298 301 302 303 303 303 305 311 308 307 308 309 310 309 308 310 309 307 308 309 314 315 315 315 315 315 316 316 317 318 318 318 320
296 295 296 296 296 296 297 297 297 297 295 298 296 298 298 300 303 301 303 305 310 307 306 309 308 309 309 309 310 310 311 309 310 309 313 314 315 316 316 315 316 317 318 319 319 321 321
295 296 296 296 295 297 297 297 296 296 296 297 296 297 298 300 302 301 302 307 308 305 307 309 308 308 308 310 311 311 311 311 311 310 311 312 315 315 317 317 317 317 318 320 321 322 322
295 295 295 295 295 296 297 296 296 296 297 296 296 298 298 301 299 302 303 307 305 305 307 308 308 308 309 309 309 311 312 312 310 311 311 313 314 315 316 317 317 318 319 318 319 322 324
293 294 295 295 295 295 295 296 296 296 296 295 296 299 299 300 299 302 304 303 305 306 307 307 308 309 308 309 309 312 312 311 312 312 312 314 314 314 316 317 318 319 319 319 320 321 323
294 295 295 294 294 294 296 296 297 295 296 295 296 299 299 300 299 302 303 303 304 303 305 306 308 308 308 308 308 308 314 311 309 310 312 312 316 317 316 318 319 319 320 320 320 320 321
292 292 292 293 293 294 294 295 296 295 295 294 298 300 299 299 302 302 302 303 303 304 303 305 306 307 308 308 308 308 308 311 308 311 314 311 314 316 317 316 316 318 318 319 320 321 321
292 292 293 294 295 294 294 294 294 295 294 295 298 298 299 301 302 302 303 303 304 304 304 304 305 307 307 307 308 307 308 308 307 309 316 318 314 313 312 314 315 317 317 317 319 320 322
292 293 293 293 293 292 293 294 294 296 294 295 297 300 299 300 301 303 303 304 304 304 304 304 305 306 306 307 307 308 308 307 306 309 311 317 319 314 315 315 318 319 318 319 318 320 319
292 293 294 294 294 293 294 293 294 295 294 294 296 299 300 302 301 301 302 304 304 304 304 304 304 305 305 306 307 307 307 307 307 307 312 315 318 318 318 317 318 318 319 318 320 319 320
292 293 293 292 293 294 294 294 294 295 294 294 296 297 299 300 301 301 301 302 304 304 304 304 305 305 305 306 307 307 306 307 307 307 308 310 314 314 314 315 316 315 315 316 316 319 319
292 292 292 292 292 292 293 293 293 293 293 294 295 296 297 299 301 302 303 303 304 304 304 303 304 305 306 306 305 305 305 306 306 307 308 309 314 313 312 314 314 313 314 315 318 318 319
292 292 292 292 292 292 293 293 294 294 294 295 295 296 297 298 301 301 301 302 304 304 305 304 304 305 305 304 305 305 306 305 306 307 307 308 314 315 313 315 312 313 316 316 318 318 317
294 293 293 293 293 294 294 294 295 296 295 295 295 296 297 299 299 300 301 303 303 303 304 305 304 304 303 304 306 307 308 308 308 308 308 308 311 315 314 313 311 311 313 314 317 315 315
296 296 295 295 295 295 296 295 296 297 297 297 296 295 297 300 301 299 301 301 304 304 305 304 303 302 302 306 307 308 310 308 310 309 308 308 310 313 315 313 313 311 313 314 313 312 314
298 297 297 296 296 296 297 297 297 297 297 297 296 296 295 297 298 300 301 302 302 304 305 304 303 302 301 307 307 308 309 308 311 312 311 310 311 312 313 314 313 312 312 314 312 315 314
297 298 298 297 297 297 297 297 297 297 297 298 298 298 295 296 296 298 301 301 302 303 305 304 304 304 304 308 307 307 308 308 309 311 310 311 311 312 312 313 313 312 313 313 315 314 314
297 299 298 298 298 298 298 298 298 298 298 298 297 297 297 296 298 299 299 302 301 302 302 303 304 305 305 306 307 307 308 310 308 310 311 312 311 312 312 312 314 314 313 312 312 312 310

GFSGBSN_850_thetae_063.txt.gz
Theta_e
303 302 301 303 302 303 304 303 303 301 301 301 300 298 299 299 298 298 298 298 298 298 299 300 299 299 300 310 312 312 306 305 318 315 316 316 317 318 319 318 317 319 319 318 318 318 318
302 302 303 302 302 302 301 302 302 301 301 301 302 302 302 301 299 298 299 299 299 299 299 299 300 299 306 309 310 311 306 304 309 317 317 316 317 317 318 318 319 318 318 319 318 318 319
303 303 302 302 302 301 302 302 301 303 303 303 303 302 301 300 301 300 299 299 298 299 299 300 300 300 306 306 309 309 306 306 305 305 312 317 317 317 318 319 317 318 318 319 319 319 319
302 301 302 301 301 302 301 301 301 301 302 302 302 300 299 300 301 299 299 299 299 300 300 301 301 307 308 306 308 310 310 308 308 307 307 314 316 318 317 316 318 318 318 319 320 320 320
302 301 301 301 300 302 301 300 300 301 301 300 300 300 299 299 299 299 299 298 301 301 302 302 308 310 309 308 308 308 308 309 311 309 308 309 314 316 318 318 319 320 320 320 320 321 321
300 300 300 300 301 300 300 299 299 300 302 302 302 301 299 299 297 298 299 302 306 306 309 310 310 311 310 308 308 312 313 312 313 313 310 309 314 317 317 318 318 320 321 321 321 322 321
301 300 300 300 300 300 299 300 300 300 300 300 300 300 299 298 297 300 304 308 307 311 308 307 308 311 308 311 310 311 313 315 313 312 313 311 315 319 318 318 318 319 321 321 322 321 320
300 300 300 299 300 300 299 300 299 300 299 300 299 298 297 296 297 301 307 307 306 305 307 306 307 307 307 307 307 310 314 313 314 316 314 313 315 316 317 317 318 319 320 320 321 320 319
298 298 299 299 300 298 299 300 299 298 298 298 299 297 297 297 299 305 306 307 306 306 307 308 309 310 310 308 307 309 311 313 315 316 317 314 316 317 316 318 318 320 320 320 320 320 320
298 299 298 298 299 299 298 299 298 298 297 298 298 297 297 297 304 306 306 306 307 306 311 311 311 311 311 308 308 307 310 314 315 317 317 317 315 317 317 318 319 320 320 319 319 320 321
298 298 298 298 298 300 299 298 298 298 297 298 297 296 297 297 302 305 305 306 307 307 315 309 312 310 310 310 309 310 306 311 314 314 313 318 316 314 317 318 319 320 319 319 319 320 321
298 298 297 297 297 297 298 297 297 298 297 297 296 296 298 301 304 305 305 306 308 314 313 309 309 311 311 311 311 309 309 308 310 312 312 312 313 316 316 315 317 318 319 319 319 321 324
297 297 297 296 296 296 297 297 297 298 297 297 296 297 297 301 303 305 305 307 313 311 308 310 310 310 310 311 313 311 312 311 309 309 313 314 313 314 317 315 316 317 319 321 322 324 324
294 295 295 296 297 296 296 297 297 298 297 296 296 297 298 300 301 304 306 309 310 307 307 310 310 309 309 311 314 313 312 312 310 312 314 314 314 315 316 317 316 317 319 321 324 326 324
294 294 295 295 296 295 296 295 297 297 296 296 297 297 299 301 302 303 306 309 308 307 308 309 307 306 308 311 312 313 314 314 312 311 313 314 313 314 315 317 317 318 320 319 320 325 327
294 295 294 294 295 295 295 295 296 296 296 296 297 299 300 301 302 304 306 307 307 307 308 307 306 307 309 310 312 313 315 314 313 313 312 314 314 314 316 316 317 317 319 320 321 323 325
294 294 295 295 295 295 295 295 296 296 297 296 297 299 301 302 303 303 307 306 305 305 307 307 307 308 309 310 310 312 316 314 312 312 315 313 315 315 316 317 318 318 320 321 320 321 323
293 293 293 293 293 293 293 295 294 295 297 295 297 301 302 302 303 304 305 304 303 305 305 306 307 308 309 310 310 310 311 312 310 310 319 314 314 315 319 316 318 319 320 321 323 325 323
293 293 293 292 292 292 294 294 294 294 296 297 297 299 300 302 304 305 304 304 303 305 305 305 306 307 308 308 309 309 309 310 309 310 314 316 313 316 317 319 317 318 320 321 321 322 325
293 293 293 293 293 293 294 294 294 295 295 296 298 302 299 301 302 304 304 304 304 303 305 305 306 306 307 308 308 309 310 309 308 308 308 312 319 315 314 316 316 317 318 319 319 322 323
292 292 292 292 293 293 293 293 293 294 295 296 296 300 301 303 303 303 304 305 304 304 304 304 305 306 307 307 307 308 309 309 309 308 309 312 319 320 317 318 319 317 317 317 319 319 321
292 292 292 292 293 293 293 294 294 294 294 296 297 298 299 300 302 303 303 304 304 306 305 305 306 306 306 306 307 308 308 309 309 309 309 311 314 317 318 317 318 319 319 319 319 319 320
292 291 292 292 292 292 292 293 293 294 294 297 296 297 298 300 302 304 304 303 303 304 305 305 305 306 306 306 307 307 307 307 309 310 309 310 311 315 317 314 314 317 317 317 317 318 319
292 292 291 292 293 293 293 292 293 293 294 295 296 296 297 300 300 302 302 303 303 304 304 304 304 306 306 307 306 306 306 306 307 308 309 310 311 312 315 314 317 315 315 317 317 319 318
294 295 295 293 293 293 293 293 293 293 294 294 296 297 297 299 299 301 302 303 303 303 304 305 305 305 306 306 306 307 308 308 309 308 309 310 311 314 315 314 313 312 312 316 318 318 317
296 297 297 297 296 295 294 293 293 293 293 294 294 296 297 298 300 298 300 300 303 305 305 304 305 306 305 305 309 308 310 309 310 309 309 310 310 313 314 314 314 313 314 315 317 318 315
297 297 298 298 297 297 296 295 295 294 294 294 295 295 297 298 298 299 301 301 301 303 305 305 303 303 302 307 309 309 309 310 312 311 310 311 311 312 313 314 313 313 313 314 315 317 315
296 297 297 297 298 297 297 296 296 296 296 296 296 297 296 297 297 298 300 301 302 303 305 305 305 305 304 308 307 308 310 310 311 312 310 311 311 312 312 312 313 313 312 315 316 315 314
297 297 297 297 298 298 298 297 297 297 297 297 297 298 298 297 298 299 298 299 301 303 302 302 304 305 305 307 308 309 310 310 311 314 311 311 310 312 310 311 315 315 315 314 314 313 312

GFSGBSN_850_thetae_066.txt.gz
Theta_e
302 302 303 302 301 302 302 302 301 302 301 301 301 303 303 302 301 300 299 298 298 298 298 299 299 299 300 306 309 310 311 311 309 319 316 315 315 317 318 319 319 319 318 318 319 319 319
302 304 303 302 303 302 301 302 302 301 303 304 304 304 303 302 299 299 299 298 298 298 298 299 299 300 305 308 306 311 312 310 308 312 319 317 316 317 317 318 319 319 318 318 319 319 319
302 302 303 303 302 301 302 302 302 302 301 302 302 303 302 300 299 298 298 297 297 298 298 299 301 301 308 306 306 307 309 308 307 307 308 316 318 317 317 318 318 318 318 319 319 319 319
302 303 303 301 301 301 301 302 301 301 301 301 302 301 300 299 298 297 296 296 297 298 300 301 302 307 309 307 308 308 309 310 311 309 308 308 313 316 318 319 319 319 318 319 319 319 320
302 301 302 302 300 301 301 301 301 300 300 300 302 302 301 300 298 296 296 297 300 305 305 306 305 311 312 310 310 309 309 310 311 310 309 309 310 314 316 319 319 318 318 319 318 320 321
301 301 301 300 301 301 301 300 299 300 300 301 300 300 300 299 296 295 298 305 307 308 310 311 312 312 313 311 311 311 314 312 310 312 312 311 311 312 317 318 320 318 318 319 320 321 321
299 300 301 301 301 299 301 300 301 301 301 300 300 300 300 296 295 296 307 309 308 311 312 311 311 311 311 310 308 309 312 315 314 314 316 313 313 311 317 318 319 318 319 319 320 322 322
299 299 299 300 300 301 300 299 299 300 299 298 298 299 299 296 295 299 308 309 307 307 307 307 308 308 308 309 309 307 312 314 315 315 315 315 315 314 315 317 317 317 319 320 321 322 321
299 298 298 298 298 299 300 299 300 300 298 298 298 299 298 295 296 307 307 307 308 308 307 309 310 310 311 310 310 308 310 314 315 317 316 317 315 313 315 317 318 319 319 320 320 321 321
298 299 298 299 299 298 299 300 299 298 299 298 298 298 297 296 302 306 307 307 307 307 310 315 312 313 312 309 310 309 308 312 315 317 317 318 318 315 316 319 317 318 318 318 320 321 321
298 298 299 299 299 298 298 299 299 298 298 298 297 297 296 296 297 303 306 306 307 307 315 311 312 312 312 311 311 310 308 310 315 317 317 319 318 315 317 318 318 318 320 320 321 320 321
297 298 298 298 297 297 297 297 298 297 297 298 298 297 297 298 303 304 305 306 308 312 316 310 311 313 313 313 313 311 309 309 313 315 315 315 313 315 316 316 318 318 319 320 321 321 322
296 296 296 297 297 296 296 297 297 297 297 298 297 297 297 299 301 303 304 306 312 312 310 310 311 311 310 311 312 312 311 308 311 313 314 313 314 314 314 315 316 316 319 321 323 324 324
296 295 294 294 295 295 297 297 296 296 298 298 297 296 296 299 300 301 304 308 311 309 312 310 310 310 307 309 313 314 313 312 309 310 311 316 318 316 315 316 318 316 317 322 328 328 323
293 294 295 295 295 295 296 295 296 296 297 298 297 297 299 299 300 302 303 309 307 308 309 309 309 307 307 310 311 314 315 315 314 311 311 314 316 315 316 316 318 317 318 318 321 322 325
295 294 294 294 295 295 295 296 296 296 296 296 297 298 298 300 301 302 304 306 308 308 308 309 307 307 309 310 311 312 315 315 315 313 312 312 313 314 314 315 316 318 317 320 320 325 327
293 293 294 294 294 295 295 295 295 295 296 296 297 298 299 301 302 302 304 305 306 307 307 308 308 307 309 309 310 311 315 316 314 312 312 314 314 315 316 315 318 318 319 319 320 321 326
293 293 293 294 294 293 293 293 294 294 295 296 297 300 300 302 303 303 304 305 305 306 306 306 307 308 309 309 310 310 311 313 311 311 315 316 315 315 315 316 317 317 319 319 323 323 323
293 293 293 293 293 293 293 293 293 294 295 296 298 298 298 301 304 305 304 304 305 305 305 306 306 307 308 308 308 309 310 311 309 310 311 310 315 315 314 317 317 319 318 319 321 323 327
293 292 292 293 293 294 293 294 295 295 295 295 297 300 298 301 303 304 304 305 304 304 304 305 306 306 307 307 308 308 309 311 309 310 308 309 314 318 316 315 319 319 318 319 322 324 325
292 293 293 292 292 293 292 293 293 294 294 295 296 299 300 303 303 303 304 305 305 304 305 304 305 306 307 307 307 308 308 308 309 309 309 311 316 317 317 319 317 316 317 319 322 323 324
292 292 292 292 292 292 292 293 294 294 293 295 296 299 298 299 301 303 303 304 304 306 305 305 305 305 306 306 306 307 307 308 309 312 311 310 316 314 317 318 318 318 318 318 320 320 318
292 292 292 293 292 292 292 293 293 294 294 296 296 296 299 300 301 302 305 303 303 304 304 306 306 306 306 306 307 308 308 308 309 310 311 311 311 313 317 317 317 319 318 319 319 320 320
293 293 293 293 293 292 293 292 293 293 294 294 295 297 298 300 299 301 302 303 304 303 303 304 305 307 306 307 307 307 307 307 307 308 309 310 310 312 316 315 318 316 317 317 317 317 317
292 292 294 294 295 295 293 293 293 293 293 294 295 296 298 300 298 300 301 302 303 303 304 304 305 306 307 307 307 306 308 308 308 308 308 309 310 313 318 317 317 314 314 315 318 319 318
293 294 295 296 297 297 296 293 293 293 293 293 294 296 297 299 299 298 300 300 303 304 304 304 305 307 307 306 306 306 307 307 308 308 309 309 311 312 314 317 316 314 314 314 316 319 315
294 294 295 296 296 298 297 296 294 293 293 293 295 295 297 298 298 299 300 301 300 302 304 305 306 305 305 306 306 306 308 307 312 310 311 311 312 312 313 315 315 313 314 314 317 318 316
293 294 295 296 297 297 297 297 296 295 293 293 294 295 296 296 297 298 299 299 300 302 305 305 306 305 304 305 307 308 309 309 310 312 311 311 312 313 312 313 314 313 313 315 317 314 314
294 295 295 296 297 298 297 298 297 296 295 294 294 295 295 297 297 298 298 299 300 302 302 304 305 305 305 306 307 308 310 312 311 312 311 312 311 312 311 311 315 315 316 314 314 313 313

GFSGBSN_850_thetae_069.txt.gz
Theta_e
304 303 303 303 303 303 302 301 302 303 301 303 303 303 303 302 301 298 297 297 297 297 297 298 298 299 300 303 305 304 309 311 312 311 319 317 314 311 312 315 318 317 317 317 317 317 317
302 302 302 304 303 302 301 301 301 302 302 301 301 301 302 301 299 297 296 296 297 297 297 298 299 299 301 306 304 308 307 308 310 311 312 313 317 313 315 316 315 317 318 318 318 318 317
302 303 304 303 302 302 301 301 302 302 301 301 300 303 303 301 300 297 296 296 296 297 297 301 302 302 303 301 303 304 307 308 308 307 307 308 309 311 316 317 317 317 317 317 317 317 316
302 302 302 303 302 301 302 301 301 301 300 300 300 301 301 300 298 296 296 296 297 298 303 305 304 305 306 306 309 309 308 308 310 309 309 308 308 309 313 317 318 318 316 316 317 317 317
302 302 302 301 301 301 301 302 301 300 300 301 301 301 300 299 296 295 295 301 304 304 306 308 307 306 311 311 310 310 310 309 310 311 311 310 309 310 313 316 317 317 316 316 317 317 317
302 301 301 302 302 301 301 300 301 300 301 301 300 299 299 298 295 295 299 308 307 308 309 311 311 312 312 311 310 309 310 314 311 310 311 311 310 309 312 314 317 318 317 315 316 316 317
299 300 300 300 301 302 301 300 300 299 300 300 299 298 298 297 295 296 307 308 307 310 308 312 312 313 311 312 309 308 309 314 314 311 312 313 311 310 311 313 316 317 318 317 316 317 318
300 299 299 298 298 299 299 301 300 300 300 300 298 298 297 298 294 306 307 308 307 307 307 306 305 307 308 309 308 309 308 309 315 314 313 315 313 313 314 315 313 317 317 316 317 318 319
300 300 300 299 298 299 299 299 300 300 299 298 298 298 298 296 295 306 306 307 307 307 305 306 308 308 309 310 309 310 309 311 313 314 315 316 316 315 315 315 315 316 317 317 318 319 318
298 298 298 299 299 299 299 298 299 300 299 298 298 298 297 295 299 304 306 307 306 307 308 309 310 310 311 310 309 310 308 310 313 315 317 318 317 316 314 314 314 318 318 318 318 318 318
298 298 298 299 299 299 298 297 297 297 298 298 297 298 297 296 298 301 304 305 306 306 309 314 312 312 312 310 311 309 308 309 311 316 316 317 318 318 318 316 315 318 319 318 319 320 320
298 298 297 297 298 298 297 297 296 296 297 297 297 297 297 295 300 303 304 304 306 311 311 311 312 311 312 311 312 310 308 309 310 315 316 316 315 316 316 315 316 316 319 320 320 320 322
296 296 295 295 294 296 296 296 297 297 297 297 297 297 297 296 296 301 302 304 307 309 310 310 311 312 312 311 312 311 308 307 310 313 314 314 315 314 315 316 316 317 319 324 324 321 321
296 295 295 295 295 295 295 297 297 296 296 296 297 298 297 296 295 300 301 306 308 309 310 311 310 310 309 309 309 312 308 306 306 308 309 314 316 314 314 314 315 316 319 323 327 327 324
296 296 294 294 295 295 295 295 295 296 296 296 296 298 297 296 299 300 302 304 306 305 308 310 309 308 308 308 310 313 312 311 308 307 309 312 315 314 315 315 316 318 318 317 320 320 323
295 294 294 293 293 294 295 295 295 296 296 295 296 296 297 297 300 300 303 303 304 305 307 308 308 308 307 310 311 310 314 315 314 311 309 311 313 313 316 315 316 318 317 319 319 325 327
294 295 293 293 294 294 294 294 295 295 294 295 296 297 297 298 299 301 300 302 302 303 304 307 308 308 309 309 309 310 316 315 312 312 311 312 314 313 314 316 316 317 319 319 320 321 325
293 293 293 293 293 294 294 293 293 293 294 294 296 298 299 300 301 302 300 301 302 303 304 306 306 306 307 308 309 310 310 315 310 311 312 311 313 316 314 315 316 317 318 319 323 325 322
292 293 293 293 293 293 293 293 293 293 294 295 296 297 297 299 302 301 302 301 302 302 303 306 306 307 306 306 308 309 309 311 309 310 310 310 313 317 315 315 316 316 317 318 319 320 325
293 293 293 293 292 293 293 294 294 294 295 295 296 298 299 299 299 301 303 302 304 303 304 304 304 305 306 306 306 307 308 310 309 309 309 310 312 315 317 318 318 317 319 319 320 323 324
292 293 293 293 293 293 292 292 293 294 295 295 296 295 298 294 297 299 301 303 305 305 304 304 304 304 304 306 307 306 308 308 309 310 310 312 313 314 315 313 316 318 317 318 320 320 325
292 292 291 291 292 292 292 292 292 293 294 295 295 295 297 298 299 299 299 302 303 303 304 305 305 305 305 305 305 306 309 309 311 310 311 311 313 313 313 316 316 319 319 317 319 321 322
291 291 292 292 292 293 293 292 292 293 294 294 294 294 296 297 299 299 301 302 303 303 303 303 305 306 307 307 307 307 308 308 309 309 310 311 311 312 314 315 315 317 318 318 319 320 320
292 291 292 293 293 294 294 293 292 293 294 294 294 294 296 295 297 299 298 300 303 303 304 304 303 306 306 306 307 307 307 307 307 307 308 310 310 311 312 314 318 317 315 318 318 319 318
291 292 293 293 293 294 295 295 294 293 293 294 294 295 296 296 297 297 299 299 300 301 303 304 304 305 306 306 306 305 303 306 306 306 306 307 308 308 311 315 316 315 314 314 319 318 317
293 292 291 292 294 295 295 296 296 294 293 293 293 294 296 296 296 298 299 299 299 301 303 303 304 305 306 305 302 305 305 306 307 308 306 307 307 307 310 312 318 315 314 314 317 319 315
290 292 293 294 294 295 295 296 298 296 294 293 294 294 295 297 296 296 298 299 300 301 301 302 303 304 304 301 304 303 303 306 306 310 310 307 307 309 308 311 313 313 314 314 318 318 315
292 293 293 293 294 295 295 296 297 297 294 293 293 294 295 295 296 296 297 297 298 300 302 303 304 304 303 299 302 303 303 306 307 308 311 310 308 309 309 310 311 313 314 317 315 313 313
293 293 293 294 295 295 296 296 298 297 295 294 293 293 294 295 296 297 297 296 296 298 300 301 302 302 304 303 302 303 304 305 308 310 310 312 308 308 309 308 313 314 314 314 313 311 309

GFSGBSN_850_thetae_075.txt.gz
Theta_e
303 302 301 301 303 303 302 301 301 301 301 301 300 299 298 298 297 297 297 297 297 296 296 296 296 297 300 302 301 302 308 309 308 310 310 311 317 313 308 307 309 313 314 316 316 316 316
303 303 302 304 304 303 302 302 302 302 301 300 300 301 301 300 299 297 296 297 296 296 296 299 302 301 304 304 302 304 305 304 306 310 310 310 309 315 311 309 308 311 312 313 315 315 316
303 303 303 303 303 303 302 302 302 302 302 301 301 302 301 300 298 296 296 296 296 297 304 304 306 304 304 302 302 302 303 305 307 308 309 308 307 308 308 309 312 314 314 313 313 313 313
303 303 303 303 303 302 302 302 302 301 301 301 300 301 300 299 297 296 296 296 297 302 305 307 307 304 306 303 303 308 309 305 305 307 308 308 308 308 308 309 313 314 314 315 315 313 313
302 301 301 301 301 302 302 302 302 302 301 300 300 299 299 298 296 295 295 299 300 304 305 307 305 306 307 307 307 309 309 310 311 308 309 309 309 310 308 308 311 313 315 314 315 313 313
301 301 300 300 300 299 300 301 301 301 302 301 300 299 299 297 296 295 304 301 304 309 309 308 308 309 306 308 310 309 309 308 311 311 310 310 309 306 305 309 312 314 314 314 314 313 314
301 301 300 300 299 299 299 299 299 298 299 300 300 300 299 297 296 298 305 303 305 306 306 306 309 309 309 311 311 310 309 308 309 311 308 310 307 307 306 307 311 312 313 313 312 313 315
300 301 301 301 300 299 299 299 299 298 298 298 299 299 298 297 295 299 305 306 302 302 305 305 304 305 305 308 308 308 309 307 308 311 308 310 310 308 308 308 310 312 313 313 314 314 317
299 299 299 299 298 298 300 299 299 298 297 297 298 297 297 296 295 301 303 304 304 305 304 304 304 305 306 305 306 306 305 308 309 310 310 309 311 313 311 311 313 313 313 314 315 316 316
298 298 298 299 298 298 298 298 298 298 296 296 297 297 297 296 298 297 303 303 304 305 304 305 307 307 306 305 306 304 305 308 308 312 312 312 312 314 313 314 314 315 313 314 318 319 318
297 297 298 297 297 297 297 297 297 297 297 295 296 296 296 296 296 296 299 302 303 306 305 306 311 309 308 307 309 308 308 308 310 315 314 314 315 316 316 315 314 315 314 317 318 319 318
295 295 296 296 296 296 295 294 294 296 296 296 296 296 295 296 296 296 298 301 303 304 302 306 311 310 310 309 309 307 307 308 308 313 314 313 314 314 314 315 314 314 317 318 317 319 323
294 296 295 295 295 294 295 296 296 295 296 297 296 296 296 296 296 296 296 302 302 306 304 308 308 307 310 311 310 307 306 306 308 312 312 313 314 312 314 315 315 316 318 321 322 322 322
295 296 296 296 295 293 294 295 295 295 295 295 295 296 295 294 295 296 299 301 303 302 305 305 305 305 309 311 311 308 306 305 305 309 307 309 307 313 313 313 316 316 317 321 322 322 319
294 295 295 295 294 294 293 293 294 295 295 294 295 296 294 295 295 296 300 298 300 302 304 302 304 309 308 307 306 307 306 306 305 305 308 307 309 312 313 313 314 318 318 316 321 320 320
293 294 295 295 294 294 293 294 293 294 295 295 295 295 296 297 296 298 298 298 299 301 301 301 304 307 307 306 306 307 307 310 308 305 306 307 310 309 313 313 314 316 316 319 321 322 323
294 295 294 293 293 293 292 293 294 294 293 294 294 294 297 297 297 298 298 297 299 300 299 301 303 305 306 306 306 307 311 312 310 310 308 311 309 310 315 316 317 318 319 318 318 320 325
294 294 293 292 292 293 293 292 292 293 293 293 294 289 297 297 298 297 295 299 299 300 299 300 302 302 306 305 305 307 309 313 311 310 312 309 312 314 313 312 314 316 318 318 322 321 319
293 293 291 293 293 292 292 293 294 294 293 294 294 295 295 296 294 296 297 298 299 299 300 301 301 300 304 305 305 307 310 310 309 308 310 310 311 312 313 314 314 317 317 317 318 318 322
292 292 292 293 292 293 293 292 292 293 295 294 294 287 294 297 296 294 293 297 298 300 300 300 301 302 303 303 304 306 306 307 309 309 309 308 309 311 311 314 315 316 316 317 319 321 321
292 291 293 292 292 292 293 294 293 292 293 294 295 293 293 288 297 297 298 299 297 298 299 301 302 302 303 304 304 304 307 308 310 310 309 307 308 312 312 312 312 313 313 316 317 318 321
291 292 293 292 292 292 291 291 292 292 292 294 295 293 295 295 296 294 296 297 298 299 299 301 302 302 303 305 305 305 306 307 309 308 309 308 309 310 310 311 311 310 310 312 314 318 318
293 292 292 292 291 291 292 291 290 291 293 293 294 295 294 294 294 291 290 297 297 297 298 300 301 303 302 303 305 306 305 306 306 307 308 308 308 307 308 307 308 310 313 309 313 317 317
291 291 291 292 292 291 291 293 293 293 293 292 293 294 294 292 293 294 295 295 295 296 298 299 300 302 303 304 305 306 306 305 305 305 306 308 308 306 307 307 308 309 305 314 314 316 316
291 292 292 292 290 290 292 292 293 294 294 293 292 293 294 293 294 295 295 296 295 297 298 299 300 302 303 304 303 305 303 304 304 304 305 305 305 305 305 307 305 305 313 315 317 320 318
293 292 291 291 291 291 293 293 293 293 295 295 294 293 294 294 293 294 294 296 296 299 299 299 299 302 303 303 304 304 304 305 305 305 304 304 304 304 306 307 306 309 308 312 313 319 316
291 291 293 292 292 292 292 291 292 294 294 295 295 294 294 294 294 295 296 296 296 298 299 299 298 303 302 301 302 303 304 304 303 306 307 304 304 306 305 305 305 306 306 310 312 318 315
292 291 291 291 290 290 291 293 293 294 294 295 297 295 294 294 294 295 295 296 296 295 298 298 300 300 302 301 302 302 301 303 304 304 306 307 306 303 304 307 306 309 312 312 311 312 310
290 291 290 290 291 292 292 293 293 294 294 296 297 296 294 293 293 294 294 294 294 295 295 297 298 299 299 301 302 302 299 297 303 304 307 301 306 308 305 305 307 306 308 308 310 308 305

GFSGBSN_850_thetae_078.txt.gz
Theta_e
303 303 302 302 302 302 302 302 301 301 301 301 300 299 298 297 297 297 297 297 297 296 296 296 297 300 301 301 301 302 308 308 308 308 309 311 316 313 308 306 308 309 311 313 314 315 315
303 303 302 303 304 303 303 302 302 302 302 301 301 301 301 299 298 297 297 297 296 296 296 299 303 304 304 303 302 301 301 305 307 307 309 310 311 315 312 309 307 309 309 309 311 312 314
303 303 303 303 302 303 302 302 302 302 302 301 301 299 299 298 298 297 297 297 296 297 298 300 304 306 306 303 301 302 302 303 303 306 309 310 308 310 307 307 308 311 312 312 311 312 312
304 303 303 303 302 303 303 302 302 302 302 301 301 300 299 299 298 297 296 296 298 299 299 302 305 307 305 302 303 303 305 307 304 306 307 308 308 307 308 308 309 312 312 314 313 312 312
302 302 302 301 301 300 301 301 301 301 302 301 301 300 300 299 297 296 296 297 301 304 307 307 307 306 305 305 307 308 308 309 308 305 306 308 309 308 308 306 306 310 312 313 313 313 312
301 301 301 300 300 300 299 299 300 300 299 299 299 299 299 297 296 295 297 298 302 306 307 308 308 307 305 306 310 309 309 308 309 310 309 308 308 305 305 306 306 311 313 312 312 311 312
302 301 301 301 300 300 299 300 299 299 298 298 298 298 298 296 296 295 301 301 302 305 303 304 306 308 305 306 308 310 308 308 309 310 307 308 306 307 305 307 308 310 311 311 311 311 312
301 301 301 301 301 300 299 300 299 299 298 297 296 297 297 296 295 299 304 304 299 299 299 304 303 304 303 305 308 307 309 308 309 311 307 309 308 307 306 306 307 307 309 311 311 312 313
300 299 299 299 299 298 298 299 299 298 297 296 295 296 296 295 295 298 303 302 302 303 303 304 303 304 305 305 305 305 306 307 307 308 309 309 309 310 309 310 310 311 312 312 313 313 314
299 298 298 298 298 298 297 298 298 297 297 296 296 296 296 295 296 295 302 302 303 304 302 303 306 306 306 306 305 305 305 306 306 308 311 310 310 311 313 313 311 313 312 313 313 317 315
298 297 297 297 297 297 296 296 295 296 296 296 297 296 296 295 296 296 296 299 300 305 297 303 309 308 307 306 308 305 305 307 307 312 313 313 315 315 315 313 312 314 313 316 317 316 317
297 296 296 297 296 296 295 294 295 296 295 296 297 295 296 295 295 296 295 299 303 299 297 303 308 308 308 309 309 307 307 307 309 314 314 312 313 313 314 314 314 313 315 316 316 316 319
295 295 296 295 295 295 294 295 296 295 295 296 294 294 295 295 294 295 295 301 298 300 301 305 305 303 304 307 310 307 306 306 309 310 310 311 313 312 313 314 314 314 317 317 320 320 319
295 295 297 296 295 294 294 293 293 294 294 294 293 294 295 295 294 295 298 298 298 300 303 302 301 303 306 307 308 308 305 306 305 308 309 310 307 313 312 313 314 315 316 315 321 322 320
295 295 296 295 295 294 293 293 293 293 294 295 295 295 294 296 294 295 299 295 298 301 300 300 301 307 306 306 305 305 305 305 304 306 308 307 307 311 312 312 313 317 320 316 319 318 321
293 293 294 295 294 293 293 293 294 293 293 294 295 294 296 297 296 298 294 297 298 299 299 300 303 306 306 305 306 305 306 307 306 305 305 307 309 309 312 312 313 316 316 320 319 320 323
294 295 294 294 293 292 292 292 293 293 293 293 293 293 297 296 297 297 289 296 298 298 299 300 301 301 302 303 305 306 309 311 310 309 306 308 308 309 314 315 315 317 318 317 319 321 320
294 294 294 293 292 292 293 292 292 292 293 293 293 288 296 296 295 295 292 298 298 299 299 300 300 300 301 305 304 307 308 311 310 309 311 309 311 312 312 312 313 316 317 316 321 320 320
293 294 293 292 293 292 292 292 293 294 294 294 293 294 295 296 290 294 297 297 298 298 299 300 301 301 301 303 304 306 308 307 307 309 311 309 311 311 313 313 314 316 316 316 316 317 317
292 292 291 293 293 293 293 292 292 292 294 294 294 287 293 296 295 295 293 296 298 298 299 300 300 301 301 302 304 305 305 306 306 309 310 307 309 308 309 309 312 313 312 312 315 319 319
293 293 291 292 292 291 292 293 294 292 292 294 294 292 293 288 295 296 296 297 297 297 298 298 300 301 302 303 305 305 305 305 307 309 309 307 308 311 310 310 311 311 311 311 313 315 318
293 292 291 293 292 292 292 291 291 292 293 293 294 293 294 294 295 294 295 296 297 298 298 298 301 300 299 302 303 305 306 305 306 308 308 307 309 309 308 308 306 306 304 306 308 311 316
291 292 291 293 292 291 291 291 290 291 292 293 293 293 294 293 294 290 288 294 296 295 295 297 299 298 299 301 301 302 304 305 305 306 307 308 307 307 307 305 305 304 308 305 307 309 313
291 292 293 291 291 291 291 290 293 291 292 292 292 293 293 292 294 294 294 294 294 294 295 296 298 298 299 302 302 303 304 305 305 304 305 307 307 306 306 305 303 302 303 306 313 315 314
291 290 291 291 293 293 292 291 293 294 294 294 293 293 293 289 294 294 294 294 295 294 295 297 299 299 298 300 305 304 303 303 303 303 304 304 305 305 304 306 304 304 310 311 311 311 315
291 291 292 294 292 290 290 291 292 293 294 294 294 292 293 293 293 294 294 294 294 294 296 298 298 298 300 300 303 304 304 304 304 304 303 303 303 303 305 305 303 303 305 306 308 312 315
291 292 293 291 291 292 293 293 292 292 293 294 295 295 293 293 294 295 295 294 295 296 296 298 296 297 300 302 304 305 303 303 302 305 306 304 304 306 305 304 304 304 308 310 310 311 311
292 292 291 292 293 292 291 291 291 291 293 294 295 296 295 294 294 294 294 294 295 295 296 295 296 297 298 301 303 303 303 303 304 303 305 305 305 303 305 306 305 307 309 311 310 307 304
291 290 291 292 291 290 290 290 291 292 293 294 294 294 296 294 294 293 294 294 294 295 294 295 296 297 298 300 301 303 302 299 302 304 304 302 304 305 304 304 305 302 303 304 306 305 302

GFSGBSN_850_thetae_081.txt.gz
Theta_e
303 302 301 301 300 301 302 302 301 301 301 300 300 300 299 298 297 297 297 297 297 297 297 297 298 299 300 301 301 301 308 307 307 308 309 309 313 311 311 308 308 311 311 311 312 312 313
304 303 302 302 303 302 302 302 301 301 301 301 301 300 299 298 297 297 297 297 296 297 297 298 299 300 303 304 302 302 301 306 308 307 308 309 312 314 312 311 310 310 309 310 310 312 312
304 303 303 302 303 302 302 302 302 302 301 301 301 301 300 298 297 297 296 296 296 297 298 299 300 303 304 302 302 302 302 303 303 304 306 309 310 311 310 308 308 309 310 311 313 313 313
302 303 303 303 303 302 302 302 302 301 301 302 301 300 299 298 297 296 296 296 297 298 301 303 305 306 303 302 303 303 303 302 302 303 304 307 309 307 306 307 308 309 310 311 314 313 314
303 303 303 302 301 300 300 300 300 300 300 300 299 299 298 298 296 296 296 297 299 303 306 306 306 306 305 304 308 308 308 308 308 306 305 307 307 307 306 308 308 308 310 313 314 314 315
302 302 301 301 300 300 299 299 300 299 299 298 298 297 297 296 296 295 296 299 304 305 305 307 307 306 305 306 309 310 309 308 308 308 306 306 307 308 306 308 308 309 311 313 313 313 313
302 302 301 301 300 301 300 299 300 299 299 298 296 295 295 295 295 295 297 300 301 303 301 301 302 304 303 303 304 306 309 308 307 308 309 307 308 309 308 307 308 308 309 310 310 311 312
302 302 301 302 301 301 300 299 300 300 299 297 295 295 295 294 294 296 302 301 297 298 299 301 301 302 302 302 304 306 308 309 309 311 308 310 310 309 308 307 308 309 309 309 311 312 313
301 300 300 300 300 299 298 298 299 299 298 296 295 297 295 294 295 296 302 300 299 301 301 302 302 304 304 305 305 305 305 307 307 311 309 311 310 309 308 309 309 310 311 312 313 313 313
299 299 299 298 299 298 298 297 297 297 296 296 295 296 295 295 296 294 300 299 300 303 302 300 306 307 306 306 306 305 304 305 307 308 310 311 310 310 311 313 312 314 313 313 314 315 317
299 299 298 297 297 297 296 295 294 294 294 294 296 295 294 295 294 295 295 297 300 303 297 300 308 307 306 306 307 306 305 305 307 310 311 310 315 314 312 312 313 315 314 315 315 316 317
297 297 296 297 297 296 295 294 296 296 295 295 295 293 294 294 294 294 294 297 302 298 296 301 305 302 303 306 308 306 306 305 307 311 314 310 313 314 315 314 314 314 315 315 316 316 318
296 295 295 295 295 295 294 293 294 294 293 293 293 293 295 294 294 293 295 300 295 296 301 303 302 300 302 306 307 307 307 307 310 312 313 312 314 314 314 314 315 315 316 317 318 319 318
295 295 296 296 295 294 294 293 293 292 293 293 294 294 294 295 293 294 299 298 294 299 301 301 299 302 306 306 306 305 306 307 306 308 310 311 309 313 314 313 313 316 316 317 319 321 320
295 295 296 296 295 294 293 293 293 293 292 293 293 294 295 295 294 295 298 295 297 300 299 299 299 306 306 304 304 306 306 306 306 308 310 310 308 311 313 313 314 316 317 316 317 318 320
295 294 294 295 295 293 292 292 294 293 293 293 293 293 296 296 296 297 295 297 297 298 299 299 300 302 300 300 302 305 306 309 311 306 307 308 309 310 313 313 314 317 316 320 319 319 321
294 294 294 294 294 293 291 292 292 292 293 293 292 294 296 296 296 295 294 295 297 298 299 299 299 298 298 300 303 305 307 309 308 311 307 308 309 312 314 315 315 317 319 317 318 320 320
294 295 295 293 292 292 292 292 292 294 294 293 293 291 296 296 296 294 296 297 298 298 298 298 300 300 300 302 305 305 306 306 305 305 311 310 311 311 314 313 314 315 316 316 318 319 320
293 294 294 293 293 292 292 292 292 293 294 294 293 293 294 296 295 295 296 297 297 297 298 299 299 300 300 301 301 304 306 306 303 307 310 310 313 314 313 315 315 315 315 316 316 316 316
292 293 293 292 294 293 294 292 292 292 293 294 293 290 294 295 295 296 295 296 298 297 297 298 299 299 300 301 302 303 305 305 304 304 308 308 310 310 312 311 311 313 312 312 314 315 318
292 292 291 292 293 292 292 292 293 293 292 294 293 291 293 293 296 295 296 296 296 297 298 298 299 300 298 301 301 303 304 305 304 303 309 307 310 311 310 310 311 311 309 308 309 311 312
292 293 292 292 293 292 292 291 291 293 292 293 293 292 294 294 294 294 294 295 295 297 297 296 297 299 297 297 298 300 301 303 306 305 306 308 310 309 308 308 306 305 304 304 306 308 309
292 292 291 292 293 292 292 291 291 291 292 292 293 293 294 293 294 293 292 294 294 294 294 295 296 296 297 298 300 300 302 302 303 306 307 308 309 308 306 306 305 304 305 305 307 312 313
291 291 293 291 292 291 291 290 293 291 291 291 292 292 292 292 294 294 294 294 294 294 294 295 295 296 297 299 298 300 302 303 303 304 305 307 308 307 307 305 302 304 305 306 307 311 309
291 291 292 292 291 291 294 292 291 293 293 293 293 292 293 291 293 293 294 294 294 294 294 294 296 298 298 297 301 302 304 304 305 306 305 305 307 307 306 306 304 306 306 306 306 305 315
291 291 290 291 291 292 292 291 290 293 294 294 294 293 292 292 293 293 293 294 294 295 296 296 296 296 297 300 304 304 303 304 304 305 303 304 305 306 306 305 302 303 307 309 309 309 309
291 291 290 293 293 291 290 291 291 292 293 294 294 294 293 293 293 293 294 295 295 295 296 295 295 296 297 301 305 305 304 303 303 305 306 306 306 307 307 306 306 307 308 309 305 310 307
291 291 291 293 292 291 292 292 293 293 292 292 294 295 294 294 294 294 294 294 294 294 295 295 296 296 297 300 303 304 304 304 305 304 306 306 307 307 306 306 306 305 308 309 307 307 302
291 292 292 292 291 291 292 292 291 291 291 293 294 294 294 294 295 295 294 294 294 295 295 294 295 295 297 301 300 302 304 303 304 305 304 306 306 307 306 306 304 302 302 300 303 303 301

GFSGBSN_850_thetae_084.txt.gz
Theta_e
304 302 301 301 301 300 300 300 300 300 300 300 300 299 298 298 298 297 297 297 297 297 297 297 298 298 299 306 304 302 306 307 307 308 311 310 310 310 312 312 312 313 313 313 313 313 313
304 303 303 302 301 302 302 302 301 301 300 300 300 300 299 298 297 297 297 297 297 297 297 298 298 299 302 307 303 302 301 306 308 310 311 313 313 313 313 314 314 314 313 314 313 314 314
305 304 303 302 302 302 302 302 302 301 301 301 301 300 298 297 297 297 296 296 297 297 298 299 300 301 305 305 302 302 302 301 304 308 310 311 313 312 311 313 312 312 312 313 313 313 314
306 305 303 303 303 303 302 301 301 301 300 299 299 298 297 296 296 296 296 296 297 297 299 300 302 306 308 302 302 304 304 303 302 303 305 308 311 311 311 309 310 310 311 313 313 316 316
303 303 304 303 302 301 301 300 299 299 299 299 298 297 297 296 296 296 296 297 298 300 302 303 306 307 308 304 308 310 309 309 308 304 305 307 307 308 309 310 310 310 310 311 314 315 316
302 304 303 303 301 300 300 299 299 300 299 299 298 295 294 294 295 295 296 297 299 301 304 307 307 307 308 309 311 310 310 309 309 309 307 307 308 310 310 310 310 310 310 312 313 314 314
302 302 301 301 300 300 300 300 300 300 299 299 296 294 295 294 294 295 296 302 303 305 302 303 303 305 303 304 305 307 308 309 308 309 308 308 310 310 309 310 310 310 309 309 310 311 312
301 302 301 301 301 301 301 300 300 300 300 298 295 296 295 294 295 296 299 301 299 299 303 301 303 303 304 304 304 305 307 308 310 312 311 310 310 310 309 309 309 310 310 311 312 312 314
303 302 302 301 301 301 300 299 298 298 298 297 295 296 294 294 295 296 300 299 298 300 304 303 305 306 307 306 307 308 306 309 311 312 313 313 312 312 311 311 311 311 311 311 313 315 316
301 301 300 300 299 299 298 298 297 297 296 294 294 295 294 294 296 295 300 296 298 301 306 302 309 308 307 307 309 307 307 307 310 310 311 313 312 312 311 311 311 311 313 314 315 316 318
301 299 299 299 299 298 297 296 295 294 294 295 296 293 294 294 294 298 295 297 299 303 302 305 309 307 303 307 308 308 306 306 307 310 310 311 311 312 312 311 313 314 315 315 316 317 318
299 299 299 298 298 297 296 295 294 295 294 294 293 293 294 294 294 294 294 297 302 305 301 303 306 303 305 307 309 308 307 306 306 308 310 310 312 315 315 314 312 314 315 315 316 317 320
298 297 297 297 297 296 294 293 294 293 293 293 293 294 294 294 296 294 294 302 302 300 301 303 302 301 304 308 308 309 310 310 312 310 310 310 311 312 315 315 316 315 315 314 320 321 319
297 295 296 296 295 295 294 293 293 293 292 293 293 294 294 294 294 294 298 301 299 300 301 301 301 301 304 306 306 309 310 311 311 311 311 312 313 313 314 314 313 315 313 315 317 319 319
296 295 297 296 296 295 293 293 293 292 292 292 293 293 296 295 294 295 300 299 300 301 300 300 299 300 302 304 301 306 310 310 310 310 312 312 311 312 314 314 313 316 318 316 319 318 320
296 295 296 296 295 294 292 292 294 293 292 292 293 296 297 295 295 297 299 299 300 299 299 299 298 300 300 300 299 301 305 311 310 310 309 311 311 313 315 315 315 316 316 319 319 320 320
295 294 295 295 295 293 291 292 292 292 293 293 293 298 296 296 296 298 300 298 298 298 299 300 299 299 299 300 301 302 303 309 307 308 308 311 311 314 315 315 315 318 318 318 319 320 322
294 295 294 294 294 293 292 292 292 294 293 293 294 300 296 296 300 299 300 299 298 299 298 300 301 301 301 301 302 303 304 306 305 305 309 312 313 312 314 314 315 315 317 318 320 321 320
294 295 295 293 292 292 293 292 293 293 294 293 296 296 295 297 300 299 298 298 298 298 299 299 299 300 301 301 301 302 303 305 305 305 307 305 313 313 314 315 315 316 317 317 317 317 318
294 295 294 293 294 293 293 292 292 292 294 293 296 298 297 297 297 298 298 298 298 297 298 299 300 300 301 301 302 302 302 303 303 305 304 304 312 313 313 313 315 316 315 315 316 318 318
292 293 293 293 294 293 293 292 292 292 293 295 296 297 296 299 298 297 297 297 297 297 298 299 299 301 300 300 301 302 303 303 302 305 302 307 314 312 311 310 310 311 311 311 312 313 313
293 293 292 292 293 292 291 292 293 293 293 295 295 296 295 296 296 296 296 296 295 296 297 298 297 298 299 299 299 300 302 303 303 305 304 305 313 310 310 309 307 307 306 306 306 307 309
292 293 293 291 293 292 293 291 291 292 292 295 293 294 296 295 296 296 296 295 295 295 296 296 297 297 298 299 299 300 300 300 300 303 306 309 309 308 309 307 306 306 307 308 310 312 313
292 293 292 292 293 292 292 291 292 290 292 293 294 294 295 297 296 296 295 295 296 296 296 296 296 297 297 299 299 299 300 301 302 303 304 308 309 307 307 306 305 306 309 307 307 311 313
292 291 293 291 293 292 291 290 292 293 291 292 291 294 295 296 295 296 296 296 296 296 296 296 297 298 298 298 299 302 304 304 305 305 306 307 309 308 306 306 305 306 308 309 308 310 311
292 291 292 293 292 291 294 294 291 293 294 294 294 293 294 296 297 295 296 296 297 298 297 297 296 297 297 299 301 303 303 303 305 307 305 307 308 309 307 305 303 309 308 309 310 311 310
291 291 292 291 291 292 293 291 290 291 293 294 294 293 293 295 296 295 296 297 296 297 297 297 297 298 298 300 304 305 305 304 304 305 308 308 308 308 307 306 307 308 308 308 310 311 308
291 291 291 291 294 293 291 291 291 291 293 294 294 294 293 294 295 295 295 296 296 296 297 297 298 298 298 302 304 305 306 305 305 306 306 307 308 308 307 307 307 306 308 309 307 306 304
290 292 291 291 293 292 292 292 292 292 292 292 294 294 293 294 295 294 294 295 296 296 295 296 296 296 297 301 301 304 306 306 306 305 307 308 307 309 308 310 305 302 302 301 301 301 300

GFSGBSN_850_thetae_087.txt.gz
Theta_e
309 309 306 303 301 301 301 301 301 301 300 300 299 299 298 298 298 298 298 298 298 298 298 298 298 299 299 309 309 307 304 306 308 311 314 312 311 311 315 315 314 316 316 316 316 315 315
310 308 305 303 302 301 301 303 302 301 301 301 300 299 299 299 298 298 298 297 298 298 298 298 298 299 303 310 307 305 303 306 308 312 313 313 312 312 313 314 314 314 316 315 315 315 315
310 310 307 303 302 301 302 302 302 302 301 300 299 298 298 298 297 297 297 297 297 297 297 298 299 301 308 308 308 306 306 306 306 309 312 312 313 315 314 315 313 314 315 315 315 314 315
310 308 305 303 302 303 302 302 302 301 301 300 298 297 297 297 297 297 296 297 297 297 298 299 301 307 309 308 306 307 307 308 307 306 308 311 312 313 313 312 312 312 312 313 314 315 316
309 307 304 303 302 302 302 301 301 300 299 299 298 298 297 296 296 296 296 296 297 298 300 301 308 310 311 307 309 311 311 310 308 306 306 307 308 310 312 312 312 312 312 313 313 314 316
309 307 304 303 303 302 301 300 299 299 299 299 298 296 295 295 295 295 296 297 298 300 306 309 310 311 312 311 309 311 310 311 311 310 309 307 308 310 311 312 312 311 312 313 313 314 315
308 306 304 303 302 301 300 300 299 300 300 299 297 294 295 294 295 295 297 305 308 310 307 306 306 307 304 305 306 305 309 310 310 311 313 309 310 311 311 312 312 312 312 312 313 313 312
306 305 303 301 301 300 300 301 301 300 300 299 296 295 294 294 295 298 302 304 302 302 305 304 306 306 307 308 309 308 306 308 311 312 313 312 312 312 312 312 311 311 312 312 312 313 314
305 303 302 301 301 301 301 301 300 298 298 297 295 295 294 294 295 300 302 301 300 301 307 306 308 309 308 309 311 311 308 309 310 312 313 314 314 314 312 311 311 311 311 313 313 313 316
303 303 303 302 302 301 300 300 298 297 297 295 294 294 294 295 300 300 304 299 301 300 313 307 311 309 307 308 312 310 309 309 311 311 312 313 314 314 313 313 313 313 312 312 313 315 316
303 302 301 301 300 300 299 298 297 295 294 294 294 294 294 294 300 301 300 299 302 305 310 307 311 308 305 309 309 311 308 309 310 311 311 312 313 313 314 313 312 312 313 315 316 317 318
301 300 300 300 299 298 297 297 295 294 294 294 293 294 294 300 301 300 298 297 305 314 306 307 307 305 305 308 309 310 310 309 309 309 310 312 312 313 313 313 313 313 314 316 315 317 319
300 300 299 298 298 297 296 295 294 295 293 293 293 294 295 298 302 295 295 305 311 306 304 306 305 304 304 307 308 309 309 311 312 313 312 311 311 312 312 314 315 313 315 317 318 320 319
298 298 299 297 297 296 295 293 293 293 293 293 293 294 295 298 298 296 303 307 304 303 304 304 303 303 302 305 306 305 307 309 310 312 312 313 313 312 311 314 315 315 316 316 314 316 320
297 296 297 297 295 295 294 293 293 293 292 293 293 298 301 298 295 300 304 305 305 304 302 302 302 301 303 305 302 302 305 308 311 313 315 315 313 313 314 314 314 314 315 315 315 316 318
296 296 297 297 296 295 293 293 294 293 292 293 299 300 300 295 294 302 304 303 302 302 301 301 301 301 303 303 302 302 303 310 312 311 310 314 315 314 314 315 315 315 315 318 318 318 319
296 296 298 297 296 294 292 292 292 292 293 293 298 302 300 295 300 302 306 302 300 300 300 301 301 301 302 302 302 303 304 308 309 309 308 311 314 314 315 316 315 315 318 318 318 319 320
295 295 296 296 295 294 292 292 292 294 293 296 298 304 298 300 304 302 303 302 298 300 300 301 302 302 302 303 302 303 303 305 307 307 306 307 312 315 315 314 315 316 316 317 319 318 319
294 295 295 294 294 294 292 292 294 293 294 298 300 300 297 301 305 303 301 300 300 300 300 301 301 301 302 302 302 303 303 303 304 306 307 305 310 314 314 315 315 315 317 317 318 319 320
295 296 295 294 292 293 292 292 292 293 294 298 299 303 300 300 300 302 300 300 300 299 299 300 300 301 302 302 302 304 304 304 304 304 305 304 307 310 315 314 316 315 315 317 318 320 319
294 296 294 293 294 294 294 292 292 293 294 298 299 301 301 302 301 300 300 299 299 299 299 299 300 302 302 301 301 301 303 303 303 305 305 307 307 308 313 314 315 316 315 316 316 316 317
293 294 293 293 294 293 292 292 293 292 294 298 298 299 298 299 298 299 297 299 298 298 298 299 299 299 300 300 300 301 301 302 303 305 303 304 308 306 315 311 311 311 311 310 310 309 308
293 293 293 292 294 293 292 292 292 293 296 298 296 298 300 297 300 300 299 298 297 297 298 298 298 299 299 300 299 300 301 301 302 303 304 304 307 312 314 311 309 309 309 308 310 312 314
293 293 294 292 293 292 294 292 291 291 296 296 297 297 299 300 300 299 298 298 298 298 298 297 297 298 298 299 299 300 300 301 302 303 303 304 306 309 310 308 309 309 309 309 309 313 312
292 292 293 292 293 293 292 292 293 291 293 296 295 297 298 300 299 298 298 299 298 298 299 299 298 298 299 299 300 301 304 305 304 304 304 304 308 312 310 310 306 308 309 310 311 314 312
292 292 292 292 293 293 291 290 291 293 293 296 296 296 297 300 300 297 299 298 299 300 300 299 298 298 299 300 301 303 304 304 305 305 305 307 308 310 308 306 307 311 309 309 310 313 310
292 292 292 293 292 292 293 294 293 291 294 295 297 295 297 298 298 298 298 299 298 298 299 298 299 299 300 302 304 305 306 305 305 305 307 308 308 309 309 307 309 310 309 309 310 313 307
291 291 292 293 293 291 293 293 291 291 293 295 295 295 296 297 298 298 298 297 297 298 299 298 299 299 301 303 305 305 309 306 305 306 307 307 308 309 308 308 309 307 309 311 306 305 303
291 292 292 291 291 293 293 291 291 291 292 294 296 295 294 295 297 296 296 297 297 296 297 297 298 298 299 300 301 302 307 307 306 306 307 309 309 311 312 311 305 303 302 301 300 299 299

GFSGBSN_850_thetae_093.txt.gz
Theta_e
326 327 327 327 325 324 322 315 312 312 308 303 301 300 300 299 299 299 299 300 300 300 300 299 298 298 298 304 305 306 309 308 305 305 306 311 313 313 308 311 312 313 315 316 316 316 316
325 326 326 327 325 323 322 315 311 310 307 303 301 300 299 299 299 299 300 299 299 299 299 298 297 298 299 308 307 308 308 307 306 309 312 313 314 314 312 311 310 312 312 313 314 314 315
327 327 326 326 324 323 322 316 311 309 306 302 300 300 299 299 300 299 299 298 298 298 297 297 298 300 303 301 306 308 308 308 307 306 307 309 312 313 313 312 315 314 312 312 312 313 312
327 327 327 326 323 321 319 316 313 308 303 302 301 299 299 300 299 299 298 297 297 297 297 297 300 305 306 304 309 308 308 309 308 308 307 307 308 309 312 313 313 312 311 311 312 311 312
324 325 325 325 321 319 314 312 311 307 303 301 300 300 299 298 298 298 297 296 296 297 298 300 301 305 311 311 310 310 312 310 311 311 309 307 307 308 310 310 310 311 311 310 311 311 311
321 322 324 321 319 317 311 311 308 305 302 301 300 299 299 298 296 295 296 296 301 306 307 307 310 311 312 311 308 310 311 312 311 311 309 308 307 305 305 306 309 310 310 308 309 309 310
319 322 322 321 316 312 310 308 306 303 301 301 299 299 298 297 295 295 298 304 308 311 311 312 313 309 311 309 306 307 307 307 308 311 310 308 305 305 305 306 308 308 309 309 309 310 310
319 321 320 318 314 312 309 307 304 302 301 300 300 299 297 295 295 301 304 306 304 303 303 305 309 310 307 306 310 312 310 308 306 311 310 310 308 309 309 308 309 310 309 309 310 311 310
318 319 319 316 312 309 307 304 302 302 300 300 300 298 296 294 295 302 303 303 302 301 304 307 305 307 309 310 311 312 310 308 307 308 308 309 312 312 311 311 311 311 311 310 310 309 309
318 319 317 312 308 306 304 303 302 302 300 300 298 297 294 295 300 301 305 301 301 299 309 311 307 309 309 309 310 312 312 311 310 308 308 309 309 311 312 312 312 312 312 312 312 311 310
318 315 312 309 307 304 303 303 302 302 300 298 296 294 294 298 303 303 301 302 301 308 315 308 309 309 308 308 309 312 311 310 310 310 310 310 310 310 311 311 312 313 313 313 312 310 312
315 311 308 307 305 303 302 302 301 299 298 296 294 294 295 299 300 302 301 297 307 313 313 308 309 309 306 306 307 311 311 310 310 310 310 309 310 309 309 311 312 312 312 312 311 310 313
308 306 304 303 302 302 300 300 299 298 295 294 294 293 301 301 304 303 299 306 311 313 308 307 307 306 305 304 304 304 308 306 309 307 308 311 312 310 309 309 311 312 312 311 312 312 314
301 301 301 301 301 300 299 299 300 298 295 293 293 294 297 302 302 299 306 307 310 308 306 305 303 303 303 303 303 305 304 302 303 311 313 312 311 312 312 310 310 311 311 315 315 314 314
300 300 300 300 300 300 299 300 295 294 293 293 293 297 302 302 296 303 306 309 306 305 303 302 302 303 303 305 304 303 303 303 310 309 311 313 313 311 310 312 312 311 313 314 317 315 316
300 300 300 299 298 298 298 295 293 293 293 293 300 302 303 302 296 305 305 308 304 302 302 302 301 303 303 303 303 303 303 305 309 307 306 308 309 309 310 313 312 313 312 314 316 321 319
299 299 298 297 297 296 294 295 293 293 292 297 301 303 303 294 299 306 303 305 303 301 301 301 301 302 302 302 302 302 303 304 305 305 305 307 308 308 308 311 315 315 315 315 316 316 317
299 298 297 297 295 293 292 293 293 292 293 299 301 303 299 301 305 307 304 304 301 302 301 301 302 302 302 303 302 302 302 306 305 306 305 306 306 307 305 305 306 314 315 315 316 317 318
299 298 298 297 295 294 292 292 293 293 297 300 302 302 296 304 303 303 303 302 301 301 301 301 301 302 302 301 301 302 303 305 305 305 305 305 303 303 301 306 310 312 311 310 312 317 316
296 298 297 296 295 294 292 293 293 295 299 301 303 300 302 302 302 303 301 302 301 300 300 300 300 301 301 303 302 303 303 304 302 305 305 304 304 303 302 304 306 307 309 309 312 317 318
296 295 295 294 292 293 292 293 293 294 299 301 302 302 302 300 301 301 301 300 301 300 300 300 300 302 302 301 301 301 302 301 302 305 304 302 303 304 305 305 305 307 308 309 313 316 317
296 295 295 294 293 292 292 292 293 297 300 300 300 302 301 301 300 301 298 301 300 300 300 299 299 300 299 299 299 299 299 299 300 301 303 302 303 301 303 304 305 306 308 311 312 314 315
296 296 294 295 294 294 292 293 293 298 300 299 300 301 302 299 299 299 299 300 300 299 299 299 299 299 299 299 300 300 300 299 300 299 296 300 300 300 301 305 305 309 313 311 312 313 313
295 293 293 295 294 292 292 293 294 298 298 299 298 299 302 297 299 300 300 300 300 300 299 299 299 299 299 299 299 299 299 299 299 299 299 300 301 303 303 304 310 311 311 312 310 308 308
293 293 293 293 294 293 292 291 295 297 297 298 298 300 301 299 300 299 300 300 299 300 300 300 300 300 299 299 298 298 299 301 301 300 300 300 301 304 306 307 312 311 310 310 311 308 305
294 294 294 292 294 294 293 292 292 296 297 297 298 299 300 301 299 300 299 300 297 297 298 299 299 299 299 295 295 300 301 302 307 305 301 302 303 304 307 309 314 308 305 306 309 309 303
293 293 293 292 294 293 292 293 291 295 296 296 296 298 298 300 299 300 299 298 298 297 295 299 298 299 300 294 294 298 303 303 307 306 305 304 305 305 305 307 309 303 304 306 308 307 300
293 293 293 292 294 293 292 292 293 294 296 297 297 296 297 298 299 299 300 299 299 298 294 298 296 298 297 297 302 298 299 303 308 307 305 305 308 310 309 310 308 300 303 305 303 300 298
292 292 293 294 292 292 293 294 293 293 294 297 297 296 295 295 299 298 296 298 297 298 298 297 298 299 297 295 298 299 301 302 306 309 307 309 308 308 308 306 300 298 298 299 299 298 296

GFSGBSN_850_thetae_096.txt.gz
Theta_e
326 326 325 326 325 326 327 325 325 325 322 318 313 309 304 302 302 301 300 300 300 301 301 300 299 298 298 299 302 306 304 308 307 305 305 308 311 310 308 307 309 310 312 313 314 314 314
325 326 325 326 325 325 326 326 326 324 322 317 313 308 303 301 301 300 300 300 300 300 300 298 297 297 298 303 305 308 307 307 307 306 311 312 314 314 313 311 308 310 310 310 311 312 312
320 327 326 325 326 325 325 325 326 323 320 316 312 306 305 301 300 299 300 299 299 298 297 297 297 298 300 300 303 308 307 308 308 308 306 307 307 307 309 311 312 313 312 310 311 312 310
316 322 321 323 326 326 324 324 323 319 319 311 310 307 303 301 299 300 299 298 298 296 296 297 298 303 302 301 306 307 307 309 308 309 308 307 306 307 308 311 311 311 310 311 312 311 311
310 313 318 323 322 323 322 322 322 316 316 309 307 303 301 300 299 299 298 297 296 296 298 300 302 304 306 308 310 310 311 310 309 310 309 308 308 307 307 308 308 309 310 311 310 310 309
310 311 317 320 321 320 322 323 321 315 312 310 309 303 301 299 300 299 297 296 296 298 304 304 306 309 307 309 307 309 312 312 311 311 310 308 307 304 303 304 309 309 310 308 308 307 309
310 312 319 320 317 321 321 320 319 313 310 308 305 302 300 299 299 296 295 301 304 308 306 308 307 308 311 310 307 308 307 308 309 308 309 307 304 303 303 303 306 307 308 307 307 307 309
311 317 319 319 319 319 320 317 315 311 308 307 302 301 299 300 297 295 300 305 304 303 302 306 309 309 312 309 306 310 309 308 306 305 309 309 305 306 306 306 306 306 306 306 307 308 308
314 316 317 319 320 320 318 315 313 309 306 304 302 301 301 298 295 298 303 302 303 302 301 302 302 306 308 307 308 311 310 309 306 306 308 309 309 310 309 309 309 308 307 308 309 309 308
316 317 317 317 317 318 315 312 309 308 304 302 301 300 299 295 295 303 304 301 301 298 304 308 307 307 307 309 310 310 311 310 308 306 306 306 307 308 308 310 311 310 310 310 311 310 311
317 316 318 317 318 317 311 308 307 304 302 302 302 299 296 294 303 302 302 302 301 306 304 308 307 309 309 309 308 311 311 311 309 309 309 309 308 308 308 309 309 310 311 311 311 310 309
317 317 317 316 315 310 307 306 304 303 302 301 299 296 294 296 301 302 302 301 302 309 304 310 310 309 307 307 306 310 311 310 309 309 308 307 309 308 307 308 308 309 311 310 310 309 312
317 316 316 311 308 306 304 304 303 303 301 300 296 294 294 300 302 303 302 305 310 312 308 306 307 306 304 304 304 303 306 307 307 305 304 307 307 308 309 309 308 309 310 311 311 310 312
304 305 305 305 304 303 303 302 301 301 299 295 294 294 299 301 302 303 302 305 311 307 305 303 303 302 302 302 303 303 302 301 307 309 310 312 311 309 308 310 310 308 311 313 316 314 312
306 303 303 301 301 301 301 300 300 299 299 297 293 294 298 301 300 301 305 308 305 304 303 302 302 302 303 303 303 303 302 307 308 305 309 310 311 306 308 307 310 312 310 310 313 313 316
301 300 300 300 300 300 300 300 300 298 295 293 295 300 301 301 297 304 304 308 302 302 301 302 301 303 303 302 302 302 302 306 306 305 305 307 307 307 307 305 307 312 311 312 311 315 315
300 300 299 299 299 299 300 300 295 294 293 296 301 302 302 298 302 306 302 303 301 301 301 301 301 302 301 302 302 302 303 304 304 305 305 305 306 306 305 305 306 304 310 314 315 314 315
299 298 298 297 297 298 297 294 293 292 294 300 301 301 301 301 305 304 303 303 301 301 301 302 301 302 302 302 301 301 302 305 305 304 304 305 304 306 304 303 303 303 306 314 316 317 315
298 298 297 296 295 293 293 293 292 293 297 300 302 298 296 304 302 301 302 301 301 301 301 301 301 302 301 300 300 302 303 305 304 303 303 304 302 302 301 301 305 305 306 309 310 312 314
298 298 297 296 295 292 292 292 293 293 298 300 302 299 300 302 302 301 301 302 301 299 299 300 300 300 300 302 301 302 301 304 302 305 305 303 303 302 302 301 303 304 305 306 309 310 313
298 297 296 295 295 292 292 294 293 295 299 301 302 300 301 299 299 300 301 301 301 300 300 299 300 300 299 300 299 299 299 299 299 305 303 300 302 302 303 302 302 302 303 303 306 308 313
296 295 294 293 293 292 292 293 293 297 300 300 302 299 300 299 300 298 299 299 300 299 299 298 298 299 298 298 298 298 299 298 298 299 301 301 298 301 301 301 301 303 304 305 306 312 313
295 295 294 293 293 292 292 292 294 299 300 299 299 301 300 298 298 298 298 300 300 299 299 299 299 298 298 298 299 298 298 299 298 298 296 299 298 299 299 301 302 302 304 305 311 309 312
296 294 294 294 294 292 293 292 298 299 299 299 299 300 299 296 298 299 300 299 299 299 298 299 299 298 299 299 298 298 298 297 297 297 298 298 296 298 300 302 303 309 311 309 307 306 305
294 294 295 294 292 292 292 294 298 298 298 299 300 301 301 296 299 299 300 299 298 298 298 300 299 299 298 299 297 298 298 300 301 298 298 298 298 300 302 304 304 306 307 307 309 305 302
294 293 293 293 293 292 291 295 297 297 297 298 300 301 301 297 298 299 298 298 296 296 295 298 298 299 299 292 294 299 299 301 303 305 299 298 299 300 304 306 308 306 301 302 306 306 299
295 294 293 294 293 293 292 292 296 296 296 297 298 300 300 299 299 299 297 297 298 295 293 296 297 297 299 289 294 298 301 302 304 306 303 301 302 302 302 305 307 301 300 302 307 304 296
294 294 293 294 294 292 292 292 294 296 297 296 296 298 299 299 299 299 299 298 297 297 292 296 294 295 295 294 297 296 293 302 302 308 306 305 306 306 305 306 306 298 301 304 301 297 295
293 293 293 294 293 292 292 292 293 295 297 296 295 296 298 297 298 297 297 297 296 298 298 297 297 297 296 294 298 298 300 300 304 305 304 305 304 304 304 301 298 296 296 297 297 296 294

GFSGBSN_850_thetae_102.txt.gz
Theta_e
314 317 319 321 323 324 323 324 324 325 325 325 325 325 324 323 323 321 318 313 307 302 300 300 300 300 299 299 302 305 305 306 305 303 307 305 306 305 303 304 306 307 308 310 311 310 311
308 308 309 310 315 318 321 323 324 323 324 324 324 324 324 324 324 318 315 311 306 302 300 299 299 298 298 298 305 304 305 305 306 306 306 305 308 307 310 310 308 309 308 309 310 310 309
306 307 308 308 308 309 312 316 316 320 324 324 324 325 324 323 323 316 313 309 304 301 300 298 297 296 297 303 306 304 304 306 306 307 306 308 308 309 307 306 308 310 309 308 309 310 309
303 305 307 308 308 308 308 309 320 316 322 319 322 323 323 322 321 319 309 308 304 300 299 296 296 300 299 304 301 302 302 306 307 307 308 307 306 306 306 306 307 309 308 310 309 309 310
301 303 305 306 307 308 308 309 308 316 319 315 321 320 320 321 316 318 310 308 302 299 297 296 300 302 301 301 301 306 304 303 304 307 307 308 306 306 306 305 303 306 307 309 309 309 308
300 302 304 306 307 307 308 308 309 312 312 318 319 316 319 318 314 314 308 303 298 298 298 299 304 303 303 303 309 307 307 309 307 308 307 306 305 302 301 303 304 306 308 307 307 306 306
301 303 305 307 308 309 309 309 309 312 315 315 319 317 317 316 314 310 306 306 302 301 301 303 304 302 303 309 309 308 307 310 309 308 307 305 303 304 304 302 304 306 306 305 303 303 304
303 303 306 308 308 309 310 310 312 313 317 319 318 317 317 316 311 311 305 298 301 302 302 303 301 304 303 306 308 310 307 309 306 305 306 307 304 304 303 302 303 303 303 303 303 304 303
305 305 307 308 308 311 315 312 315 313 315 316 317 317 316 312 309 307 305 301 300 302 301 301 303 304 305 305 307 309 308 306 304 303 304 306 308 308 305 306 305 304 304 305 306 306 305
304 303 306 307 307 315 315 316 315 313 315 317 317 316 314 309 306 303 299 298 302 301 297 298 301 302 305 309 310 306 308 307 304 304 302 303 304 306 306 306 306 306 305 307 307 308 307
304 305 305 308 310 314 316 314 314 315 317 318 316 315 310 308 304 299 301 302 301 299 304 302 304 303 304 307 307 308 308 307 305 305 304 305 307 306 306 306 306 306 307 307 307 307 307
304 305 306 309 314 315 314 314 315 316 316 316 315 311 306 302 299 300 302 302 302 307 302 306 306 306 307 308 307 308 309 309 308 307 306 306 307 307 307 307 307 307 307 307 306 307 309
303 306 307 312 315 315 315 315 317 316 317 314 310 307 304 303 300 300 301 301 303 302 305 308 308 307 308 307 306 307 307 306 307 305 304 308 307 306 306 309 307 305 307 309 308 309 310
304 305 308 310 315 315 316 315 317 314 310 308 307 303 301 301 301 301 301 304 302 303 304 302 303 304 302 301 302 302 305 306 305 308 308 306 305 306 305 306 304 305 307 308 311 312 309
304 305 307 310 314 314 313 315 313 309 307 305 302 300 300 298 302 301 302 304 301 304 302 302 303 302 302 302 302 303 306 307 305 304 306 309 309 305 304 304 303 305 309 309 311 310 311
303 304 306 303 302 303 302 301 301 302 302 301 300 297 297 301 301 301 304 304 305 301 302 303 303 303 302 302 302 302 304 304 304 303 303 305 303 304 304 302 302 302 303 305 307 311 313
301 301 303 305 305 305 304 303 302 301 300 300 298 297 298 301 302 302 302 306 302 301 301 302 302 302 302 301 301 301 303 303 303 304 302 302 302 303 301 302 300 300 300 303 308 308 310
300 300 300 300 301 301 301 300 300 300 298 297 299 300 300 301 302 302 304 304 301 301 301 302 302 302 301 301 300 300 303 304 304 302 302 303 302 302 301 300 301 301 305 307 298 302 306
299 299 299 299 299 299 299 299 299 297 296 298 300 300 301 299 303 302 303 301 301 301 300 300 301 301 300 300 300 302 304 303 302 301 302 301 300 301 299 300 301 301 302 304 304 305 304
299 298 297 298 298 298 298 299 298 297 298 300 298 298 299 300 302 302 301 301 300 299 299 299 300 300 300 301 300 300 301 299 299 303 304 301 300 300 299 300 301 302 301 301 300 295 301
298 297 296 297 297 296 293 293 293 296 299 300 301 297 299 300 300 299 300 301 300 299 298 298 298 298 299 300 298 298 297 297 298 302 301 299 301 301 301 301 301 301 301 301 300 300 300
297 297 295 295 296 293 293 292 294 298 299 300 301 300 299 299 300 298 299 300 300 298 298 297 298 297 296 297 297 297 297 297 297 302 299 298 296 300 301 301 301 300 298 298 299 300 300
297 297 296 294 294 293 293 293 296 298 299 300 300 299 300 297 297 298 298 299 299 299 298 298 297 297 297 297 297 297 297 297 297 296 296 297 297 297 296 298 298 297 299 300 301 304 301
296 296 296 294 292 293 293 293 296 298 300 299 300 299 299 297 297 298 299 299 298 298 298 298 298 297 298 298 298 298 297 296 296 295 296 298 294 295 297 297 296 296 303 303 303 302 302
295 294 295 293 292 292 293 295 298 299 299 299 300 300 300 296 298 299 298 298 297 297 297 297 297 298 298 298 296 297 297 298 298 296 295 296 296 293 294 295 297 300 301 302 303 300 298
296 295 294 292 292 293 297 298 298 298 299 300 300 300 300 298 297 298 296 296 295 295 295 296 297 297 298 290 293 298 299 299 298 302 296 296 297 292 293 297 301 300 299 298 302 303 296
295 294 293 292 292 294 297 297 298 298 299 300 300 299 299 298 298 298 296 296 295 293 292 294 296 296 296 288 290 293 299 300 303 304 299 298 298 297 297 299 300 297 296 298 306 299 294
295 294 293 292 291 293 296 297 296 296 297 300 299 299 299 298 298 297 297 296 295 294 291 295 293 293 292 292 296 295 299 300 301 302 301 301 300 299 300 300 302 295 297 300 296 293 291
293 293 293 293 292 292 295 296 296 295 297 299 299 299 299 298 296 296 296 296 296 296 296 296 293 295 294 294 297 299 298 299 300 301 300 300 300 301 300 299 296 294 294 294 294 292 290

GFSGBSN_850_thetae_105.txt.gz
Theta_e
309 310 310 312 315 318 318 319 320 324 323 323 324 324 325 325 324 323 323 322 323 317 312 306 302 301 299 300 304 310 308 307 308 307 304 306 307 305 305 304 305 308 309 310 310 310 310
306 307 307 307 308 308 309 309 313 318 318 321 322 324 324 324 324 324 323 323 320 314 308 303 301 299 298 298 308 306 305 305 305 304 304 306 305 305 306 309 308 309 307 309 309 309 309
301 302 303 304 305 306 307 308 308 308 313 312 316 319 322 323 324 323 323 322 319 310 306 302 299 298 298 306 308 307 304 304 306 306 306 306 307 310 308 307 307 308 310 310 310 311 311
299 299 299 300 302 303 304 305 307 308 308 308 308 317 318 321 322 322 321 319 317 312 302 299 297 298 300 309 306 306 303 303 306 306 306 307 307 309 305 306 307 309 309 310 311 310 310
298 298 299 299 300 301 303 303 305 306 307 308 308 318 316 319 318 320 317 318 311 310 300 297 297 300 303 306 304 302 301 300 306 306 307 305 307 306 305 306 307 307 309 310 310 310 310
297 298 298 299 300 301 302 304 305 306 307 308 309 312 315 317 318 316 316 315 309 306 299 298 303 304 307 307 308 306 307 307 302 303 303 306 305 306 305 306 308 308 309 309 310 310 309
298 300 300 300 301 303 305 306 306 307 308 309 312 314 318 316 317 315 314 310 307 305 301 306 307 306 303 308 308 308 307 308 307 307 308 304 307 307 307 306 306 307 307 307 307 307 306
302 305 305 302 300 303 305 307 306 308 312 312 313 315 313 317 316 315 313 308 305 304 303 304 303 303 305 307 307 309 306 309 307 309 307 306 307 307 307 305 305 305 306 307 307 307 306
303 303 302 299 298 299 302 306 307 308 313 313 314 314 317 313 315 314 313 310 303 303 303 304 306 305 304 303 304 307 308 308 307 307 308 310 310 307 305 305 306 307 308 308 309 309 308
302 302 302 300 299 300 302 305 308 310 314 314 314 314 315 314 312 310 308 307 301 300 301 304 301 304 304 305 306 303 308 306 305 307 305 306 307 308 307 309 308 309 307 308 308 309 310
301 300 301 299 299 301 304 308 309 313 314 314 314 315 315 312 312 309 307 299 302 300 309 304 302 303 305 306 306 306 306 306 306 305 305 306 306 305 307 307 306 308 308 308 309 309 309
300 301 302 302 301 303 306 312 313 314 315 314 314 314 315 310 309 307 302 302 301 304 309 304 305 304 308 308 307 307 306 307 306 306 306 306 306 307 308 307 307 307 308 308 308 309 311
300 302 302 303 304 305 308 314 314 314 314 314 315 314 313 313 308 304 302 301 302 306 305 308 307 307 307 306 307 308 308 308 309 309 308 307 306 307 307 309 307 308 310 309 310 312 310
300 302 303 304 305 307 312 314 315 314 314 314 315 311 308 305 304 302 302 302 306 304 304 304 305 307 307 302 302 302 308 308 306 307 308 305 308 307 306 305 305 306 310 311 311 311 311
301 302 303 304 305 307 314 315 315 314 314 311 310 306 302 301 302 301 302 305 306 304 302 302 303 304 302 302 302 306 307 307 305 305 308 309 308 305 304 304 303 307 310 307 310 311 310
301 302 303 304 305 309 313 313 313 313 313 312 306 302 299 300 300 301 303 304 303 302 302 303 304 303 303 302 302 305 307 305 305 304 304 306 306 304 304 302 302 304 302 306 311 308 306
300 302 302 302 305 301 303 304 303 301 301 302 303 299 299 300 300 301 303 303 303 301 301 302 302 303 302 302 302 303 304 304 303 304 303 303 303 303 302 302 301 301 301 304 308 310 307
300 300 300 301 302 305 304 303 302 301 301 301 299 298 299 299 302 301 303 303 302 301 301 302 302 302 304 305 301 301 304 305 303 303 303 303 303 302 301 301 301 302 304 305 304 303 307
300 299 299 300 300 300 301 302 302 302 301 300 298 298 298 299 302 302 303 303 302 301 300 301 302 302 301 301 301 303 304 302 302 302 304 303 302 301 302 302 301 303 302 305 304 304 304
300 299 298 299 299 299 299 300 301 300 300 300 299 300 299 300 300 301 303 302 300 299 299 300 300 300 301 301 301 301 302 299 299 304 303 302 301 300 299 301 302 302 302 302 302 302 301
300 298 298 298 298 299 298 298 299 298 299 299 298 298 299 300 301 301 301 301 300 299 298 298 299 299 301 300 299 299 298 298 299 304 301 302 301 302 301 301 302 302 301 301 302 301 301
299 298 297 297 297 297 297 297 297 298 299 300 300 299 298 299 301 300 300 300 300 298 299 298 299 297 298 298 298 298 298 298 298 303 301 300 301 301 300 300 300 299 299 299 299 299 299
298 297 296 296 296 295 295 294 297 297 298 299 299 299 300 299 298 299 300 300 299 299 299 298 298 298 298 297 297 297 297 297 298 300 300 300 300 299 298 297 297 296 298 299 300 302 301
297 296 295 295 295 294 294 294 295 297 299 298 299 298 299 299 298 299 299 299 299 298 299 298 297 299 298 298 298 297 296 296 296 297 298 299 298 298 298 298 296 298 303 302 303 301 300
297 297 295 294 293 293 293 294 295 297 299 299 299 299 299 298 299 299 299 299 298 297 298 297 297 297 298 297 297 297 298 298 298 296 297 298 298 298 298 298 297 299 300 301 301 302 298
296 296 294 292 295 293 297 297 296 299 300 299 300 299 299 299 298 298 297 297 297 296 297 296 296 297 297 295 297 299 299 299 300 300 297 296 298 298 297 297 299 298 298 297 300 304 296
296 295 293 292 293 295 298 297 298 299 299 300 300 299 299 297 297 297 297 296 294 294 295 295 296 296 295 295 297 298 299 300 302 304 300 299 299 298 298 299 299 296 296 297 304 299 292
295 293 293 292 293 296 297 297 297 297 299 299 299 299 299 298 297 297 297 295 294 294 296 295 295 295 295 297 297 298 299 300 300 301 300 300 300 299 299 299 301 294 296 299 295 292 291
295 293 292 292 294 296 296 296 296 295 299 299 299 299 298 297 296 296 296 295 295 295 295 294 293 294 294 297 298 298 299 299 300 301 299 301 300 301 300 299 295 293 293 292 292 291 290